[[{"header":{"parameterUnit":"m.s-1","parameterCategory":1,"la1":31.0,"la2":29.5877,"lo1":-88.7671,"lo2":-86.6584,"dy":0.0162,"dx":0.0185,"nx":115,"ny":88,"refTime":"2023-07-30T18:00:00:Z","depth":0,"parameterNumber":2,"parameterNumberName":"U-component_of_WINDS"},"data":[0.0,0.0,0.0,0.0,0.0,0.0,0.0,0.0,0.0,0.0,0.0,0.0,0.0,0.0,0.0,0.0,0.0,0.0,0.0,0.0,0.0,0.0,0.0,0.0,0.0,0.0,0.0,0.0,0.0,0.0,0.0,0.0,0.0,0.0,0.0,0.0,0.0,0.0,0.0,0.0,0.0,0.0,0.0,0.0,0.0,0.0,0.0,0.0,0.0,0.0,0.0,0.0,0.0,0.0,0.0,0.0,0.0,0.0,0.0,0.0,0.0,0.0,0.0,0.0,0.0,0.0,0.0,0.0,0.0,0.0,0.0,0.0,0.0,0.0,0.0,0.0,0.0,0.0,0.0,0.0,0.0,0.0,0.0,0.0,0.0,0.0,0.0,0.0,0.0,0.0,0.0,0.0,0.0,0.0,0.0,0.0,0.0,0.0,0.0,0.0,0.0,0.0,0.0,0.0,0.0,0.0,0.0,0.0,0.0,0.0,0.0,0.0,0.0,0.0,0.0,0.0,0.0,0.0,0.0,0.0,0.0,0.0,0.0,0.0,0.0,0.0,0.0,0.0,0.0,0.0,0.0,0.0,0.0,0.0,0.0,0.0,0.0,0.0,0.0,0.0,0.0,0.0,0.0,0.0,0.0,0.0,0.0,0.0,0.0,0.0,0.0,0.0,0.0,0.0,0.0,0.0,0.0,0.0,0.0,0.0,0.0,0.0,0.0,0.0,0.0,0.0,0.0,0.0,0.0,0.0,0.0,0.0,0.0,0.0,0.0,0.0,0.0,0.0,0.0,0.0,0.0,0.0,0.0,0.0,0.0,0.0,0.0,0.0,0.0,0.0,0.0,0.0,0.0,0.0,0.0,0.0,0.0,0.0,0.0,0.0,0.0,0.0,0.0,0.0,0.0,0.0,0.0,0.0,0.0,0.0,0.0,0.0,0.0,0.0,0.0,0.0,0.0,0.0,0.0,0.0,0.0,0.0,0.0,0.0,0.0,0.0,0.0,0.0,0.0,0.0,0.0,0.0,0.0,0.0,0.0,0.0,0.0,0.0,0.0,0.0,0.0,0.0,0.0,0.0,0.0,0.0,0.0,0.0,0.0,0.0,0.0,0.0,0.0,0.0,0.0,0.0,0.0,0.0,0.0,0.0,0.0,0.0,0.0,0.0,0.0,0.0,0.0,0.0,0.0,0.0,0.0,0.0,0.0,0.0,0.0,0.0,0.0,0.0,0.0,0.0,0.0,0.0,0.0,0.0,0.0,0.0,0.0,0.0,0.0,0.0,0.0,0.0,0.0,0.0,0.0,0.0,0.0,0.0,0.0,0.0,0.0,0.0,0.0,0.0,0.0,0.0,0.0,0.0,0.0,0.0,0.0,0.0,0.0,0.0,0.0,0.0,0.0,0.0,0.0,0.0,0.0,0.0,0.0,0.0,0.0,0.0,0.0,0.0,0.0,0.0,0.0,0.0,0.0,0.0,0.0,0.0,0.0,0.0,0.0,0.0,0.0,0.0,0.0,0.0,0.0,0.0,0.0,0.0,0.0,0.0,0.0,0.0,0.0,0.0,0.0,0.0,0.0,0.0,0.0,0.0,0.0,0.0,0.0,0.0,0.0,0.0,0.0,0.0,0.0,0.0,0.0,0.0,0.0,0.0,0.0,0.0,0.0,0.0,0.0,0.0,0.0,0.0,0.0,0.0,0.0,0.0,0.0,0.0,0.0,0.0,0.0,0.0,0.0,0.0,0.0,0.0,0.0,0.0,0.0,0.0,0.0,0.0,0.0,0.0,0.0,0.0,0.0,0.0,0.0,0.0,0.0,0.0,0.0,0.0,0.0,0.0,0.0,0.0,0.0,0.0,0.0,0.0,0.0,0.0,0.0,0.0,0.0,0.0,0.0,0.0,0.0,0.0,0.0,0.0,0.0,0.0,0.0,0.0,0.0,0.0,0.0,0.0,0.0,0.0,0.0,0.0,0.0,0.0,0.0,0.0,0.0,0.0,0.0,0.0,0.0,0.0,0.0,0.0,0.0,0.0,0.0,0.0,0.0,0.0,0.0,0.0,0.0,0.0,0.0,0.0,0.0,0.0,0.0,0.0,0.0,0.0,0.0,0.0,0.0,0.0,0.0,0.0,0.0,0.0,0.0,0.0,0.0,0.0,0.0,0.0,0.0,0.0,0.0,0.0,0.0,0.0,0.0,0.0,0.0,0.0,0.0,0.0,0.0,0.0,0.0,0.0,0.0,0.0,0.0,0.0,0.0,0.0,0.0,0.0,0.0,0.0,0.0,0.0,0.0,0.0,0.0,0.0,0.0,0.0,0.0,0.0,0.0,0.0,0.0,0.0,0.0,0.0,0.0,0.0,0.0,0.0,0.0,0.0,0.0,0.0,0.0,0.0,0.0,0.0,0.0,0.0,0.0,0.0,0.0,0.0,0.0,0.0,0.0,0.0,0.0,0.0,0.0,0.0,0.0,0.0,0.0,0.0,0.0,0.0,0.0,0.0,0.0,0.0,0.0,0.0,0.0,0.0,0.0,0.0,0.0,0.0,0.0,0.0,0.0,0.0,0.0,0.0,0.0,0.0,0.0,0.0,0.0,0.0,0.0,0.0,0.0,0.0,0.0,0.0,0.0,0.0,0.0,0.0,0.0,0.0,0.0,0.0,0.0,0.0,0.0,0.0,0.0,0.0,0.0,0.0,0.0,0.0,0.0,0.0,0.0,0.0,0.0,0.0,0.0,0.0,0.0,0.0,0.0,0.0,0.0,0.0,0.0,0.0,0.0,0.0,0.0,0.0,0.0,0.0,0.0,0.0,0.0,0.0,0.0,0.0,0.0,0.0,0.0,0.0,0.0,0.0,0.0,0.0,0.0,0.0,0.0,0.0,0.0,0.0,0.0,0.0,0.0,0.0,0.0,0.0,0.0,0.0,0.0,0.0,0.0,0.0,0.0,0.0,0.0,0.0,0.0,0.0,0.0,0.0,0.0,0.0,0.0,0.0,0.0,0.0,0.0,0.0,0.0,0.0,0.0,0.0,0.0,0.0,0.0,0.0,0.0,0.0,0.0,0.0,0.0,0.0,0.0,0.0,0.0,0.0,0.0,0.0,0.0,0.0,0.0,0.0,0.0,0.0,0.0,0.0,0.0,0.0,0.0,0.0,0.0,0.0,0.0,0.0,0.0,0.0,0.0,0.0,0.0,0.0,0.0,0.0,0.0,0.0,0.0,0.0,0.0,0.0,0.0,0.0,0.0,0.0,0.0,0.0,0.0,0.0,0.0,0.0,0.0,0.0,0.0,0.0,0.0,0.0,0.0,0.0,0.0,0.0,0.0,0.0,0.0,0.0,0.0,0.0,0.0,0.0,0.0,0.0,0.0,0.0,0.0,0.0,0.0,0.0,0.0,0.0,0.0,0.0,0.0,0.0,0.0,0.0,0.0,0.0,0.0,0.0,0.0,0.0,0.0,0.0,0.0,0.0,0.0,0.0,0.0,0.0,0.0,0.0,0.0,0.0,0.0,0.0,0.0,0.0,0.0,0.0,0.0,0.0,0.0,0.0,0.0,0.0,0.0,0.0,0.0,0.0,0.0,0.0,0.0,0.0,0.0,0.0,0.0,0.0,0.0,0.0,0.0,0.0,0.0,0.0,0.0,0.0,0.0,0.0,0.0,0.0,0.0,0.0,0.0,0.0,0.0,0.0,0.0,0.0,0.0,0.0,0.0,0.0,0.0,0.0,0.0,0.0,0.0,0.0,0.0,0.0,0.0,0.0,0.0,0.0,0.0,0.0,0.0,0.0,0.0,0.0,0.0,0.0,0.0,0.0,0.0,0.0,0.0,0.0,0.0,0.0,0.0,0.0,0.0,0.0,0.0,0.0,0.0,0.0,0.0,0.0,0.0,0.0,0.0,0.0,0.0,0.0,0.0,0.0,0.0,0.0,0.0,0.0,0.0,0.0,0.0,0.0,0.0,0.0,0.0,0.0,0.0,0.0,0.0,0.0,0.0,0.0,0.0,0.0,0.0,0.0,0.0,0.0,0.0,0.0,0.0,0.0,0.0,0.0,0.0,0.0,0.0,0.0,0.0,0.0,0.0,0.0,0.0,0.0,0.0,0.0,0.0,0.0,0.0,0.0,0.0,0.0,0.0,0.0,0.0,0.0,0.0,0.0,0.0,0.0,0.0,0.0,0.0,0.0,0.0,0.0,0.0,0.0,0.0,0.0,0.0,0.0,0.0,0.0,0.0,0.0,0.0,0.0,0.0,0.0,0.0,0.0,-1.504,0.0,0.0,0.0,0.0,0.0,0.0,0.0,0.0,0.0,0.0,0.0,0.0,0.0,0.0,0.0,0.0,0.0,0.0,0.0,0.0,0.0,0.0,0.0,0.0,0.0,0.0,0.0,0.0,0.0,0.0,0.0,0.0,0.0,0.0,0.0,0.0,0.0,0.0,0.0,0.0,0.0,0.0,0.0,0.0,0.0,0.0,0.0,0.0,0.0,0.0,0.0,0.0,0.0,0.0,0.0,0.0,0.0,0.0,0.0,0.0,0.0,0.0,0.0,0.0,0.0,0.0,0.0,0.0,0.0,0.0,0.0,0.0,0.0,0.0,0.0,0.0,0.0,0.0,0.0,0.0,0.0,0.0,0.0,0.0,0.0,0.0,0.0,0.0,0.0,0.0,0.0,0.0,0.0,0.0,0.0,0.0,0.0,0.0,0.0,0.0,0.0,0.0,0.0,0.0,0.0,0.0,0.0,0.0,0.0,0.0,-1.5978,-1.5712,-1.551,-1.5449,-1.5468,0.0,0.0,0.0,0.0,0.0,0.0,0.0,0.0,0.0,0.0,0.0,0.0,0.0,0.0,0.0,0.0,0.0,0.0,0.0,0.0,0.0,0.0,0.0,0.0,0.0,0.0,0.0,0.0,0.0,0.0,0.0,0.0,0.0,0.0,0.0,0.0,0.0,0.0,0.0,0.0,0.0,0.0,0.0,0.0,0.0,0.0,0.0,0.0,0.0,0.0,0.0,0.0,0.0,0.0,0.0,0.0,0.0,0.0,0.0,0.0,0.0,0.0,0.0,0.0,0.0,0.0,0.0,0.0,0.0,0.0,0.0,0.0,0.0,0.0,0.0,0.0,0.0,0.0,0.0,0.0,0.0,0.0,0.0,0.0,0.0,0.0,0.0,0.0,0.0,0.0,0.0,0.0,0.0,0.0,0.0,0.0,0.0,0.0,0.0,0.0,0.0,0.0,0.0,0.0,0.0,0.0,0.0,0.0,0.0,0.0,0.0,0.0,-1.5731,-1.5658,-1.5603,0.0,0.0,0.0,0.0,0.0,0.0,0.0,0.0,0.0,0.0,0.0,0.0,0.0,0.0,0.0,0.0,0.0,0.0,0.0,0.0,0.0,0.0,0.0,0.0,0.0,0.0,0.0,0.0,0.0,0.0,0.0,0.0,0.0,0.0,0.0,0.0,0.0,0.0,0.0,0.0,0.0,0.0,0.0,0.0,0.0,0.0,0.0,0.0,0.0,0.0,0.0,0.0,0.0,0.0,0.0,0.0,0.0,0.0,0.0,0.0,0.0,0.0,0.0,0.0,0.0,0.0,0.0,0.0,0.0,0.0,0.0,0.0,0.0,0.0,0.0,0.0,0.0,0.0,0.0,0.0,0.0,0.0,0.0,0.0,0.0,0.0,0.0,0.0,0.0,0.0,0.0,0.0,0.0,0.0,0.0,0.0,0.0,0.0,0.0,0.0,0.0,0.0,0.0,0.0,0.0,0.0,0.0,0.0,0.0,0.0,-1.7364,-1.6221,-1.7182,0.0,-1.5131,0.0,0.0,0.0,0.0,0.0,0.0,0.0,0.0,0.0,0.0,0.0,0.0,0.0,0.0,0.0,0.0,0.0,0.0,0.0,0.0,0.0,0.0,0.0,0.0,0.0,0.0,0.0,0.0,0.0,0.0,0.0,0.0,0.0,0.0,0.0,0.0,0.0,0.0,0.0,0.0,0.0,0.0,0.0,0.0,0.0,0.0,0.0,0.0,0.0,0.0,0.0,0.0,0.0,0.0,0.0,0.0,0.0,0.0,0.0,0.0,0.0,0.0,0.0,0.0,0.0,0.0,0.0,0.0,0.0,0.0,0.0,0.0,0.0,0.0,0.0,0.0,0.0,0.0,0.0,0.0,0.0,0.0,0.0,0.0,0.0,0.0,0.0,0.0,0.0,0.0,0.0,0.0,0.0,0.0,0.0,0.0,0.0,0.0,0.0,0.0,0.0,0.0,0.0,0.0,0.0,0.0,0.0,0.0,0.0,0.0,-1.7463,-1.6612,-1.6833,-1.6257,0.0,0.0,0.0,0.0,0.0,0.0,0.0,0.0,0.0,0.0,0.0,0.0,0.0,0.0,0.0,0.0,0.0,0.0,0.0,0.0,0.0,0.0,0.0,0.0,0.0,0.0,0.0,0.0,0.0,0.0,0.0,0.0,0.0,0.0,0.0,0.0,0.0,0.0,0.0,0.0,0.0,0.0,0.0,0.0,0.0,0.0,0.0,0.0,0.0,0.0,0.0,0.0,0.0,0.0,0.0,0.0,0.0,0.0,0.0,0.0,0.0,0.0,0.0,0.0,0.0,0.0,0.0,0.0,0.0,0.0,0.0,0.0,0.0,0.0,0.0,0.0,0.0,0.0,0.0,0.0,0.0,0.0,0.0,0.0,0.0,0.0,0.0,0.0,0.0,0.0,0.0,0.0,0.0,0.0,0.0,0.0,0.0,0.0,0.0,0.0,0.0,0.0,0.0,0.0,0.0,0.0,0.0,0.0,0.0,0.0,-1.7667,-1.7663,-1.7118,-1.6522,-1.579,-1.4915,0.0,0.0,0.0,0.0,0.0,0.0,0.0,0.0,0.0,0.0,0.0,0.0,0.0,0.0,0.0,0.0,0.0,0.0,0.0,0.0,0.0,0.0,0.0,0.0,0.0,0.0,0.0,0.0,0.0,0.0,0.0,0.0,0.0,0.0,0.0,0.0,0.0,0.0,0.0,0.0,0.0,0.0,0.0,0.0,0.0,0.0,0.0,0.0,0.0,0.0,0.0,0.0,0.0,0.0,0.0,0.0,0.0,0.0,0.0,0.0,0.0,0.0,0.0,0.0,0.0,0.0,0.0,0.0,0.0,0.0,0.0,0.0,0.0,0.0,0.0,0.0,0.0,0.0,0.0,0.0,0.0,0.0,0.0,0.0,0.0,0.0,0.0,0.0,0.0,0.0,0.0,0.0,0.0,0.0,0.0,0.0,0.0,0.0,0.0,0.0,0.0,0.0,0.0,0.0,0.0,0.0,0.0,0.0,-1.7435,-1.8159,-1.8263,-1.7581,-1.6717,-1.5986,0.0,0.0,0.0,0.0,0.0,0.0,0.0,0.0,0.0,0.0,0.0,0.0,0.0,0.0,0.0,0.0,0.0,0.0,0.0,0.0,0.0,0.0,0.0,0.0,0.0,0.0,0.0,0.0,0.0,0.0,0.0,0.0,0.0,0.0,0.0,0.0,0.0,0.0,0.0,0.0,0.0,0.0,0.0,0.0,0.0,0.0,0.0,0.0,0.0,0.0,0.0,0.0,0.0,0.0,0.0,0.0,0.0,0.0,0.0,0.0,0.0,0.0,0.0,0.0,0.0,0.0,0.0,0.0,0.0,0.0,0.0,0.0,0.0,0.0,0.0,0.0,0.0,0.0,0.0,0.0,0.0,0.0,0.0,0.0,0.0,0.0,0.0,0.0,0.0,0.0,0.0,0.0,0.0,0.0,0.0,0.0,0.0,0.0,0.0,0.0,0.0,0.0,0.0,0.0,0.0,0.0,0.0,0.0,0.0,-1.7984,-1.8231,-1.825,-1.7955,-1.7027,-1.6255,0.0,0.0,0.0,0.0,0.0,0.0,0.0,0.0,0.0,0.0,0.0,0.0,0.0,0.0,0.0,0.0,0.0,0.0,0.0,0.0,0.0,0.0,0.0,0.0,0.0,0.0,0.0,0.0,0.0,0.0,0.0,0.0,0.0,0.0,0.0,0.0,0.0,0.0,0.0,0.0,0.0,0.0,0.0,0.0,0.0,0.0,0.0,0.0,0.0,0.0,0.0,0.0,0.0,0.0,0.0,0.0,0.0,0.0,0.0,0.0,0.0,0.0,0.0,0.0,0.0,0.0,0.0,0.0,0.0,0.0,0.0,0.0,0.0,0.0,0.0,0.0,0.0,0.0,0.0,0.0,0.0,0.0,0.0,0.0,0.0,0.0,0.0,0.0,0.0,0.0,0.0,0.0,0.0,0.0,0.0,0.0,0.0,0.0,0.0,0.0,0.0,0.0,0.0,0.0,0.0,0.0,0.0,0.0,0.0,-1.8536,0.0,-1.8386,-1.8181,-1.7508,-1.6777,0.0,0.0,0.0,0.0,0.0,0.0,0.0,0.0,0.0,0.0,0.0,0.0,0.0,0.0,0.0,0.0,0.0,0.0,0.0,0.0,0.0,0.0,0.0,0.0,0.0,0.0,0.0,0.0,0.0,0.0,0.0,0.0,0.0,0.0,0.0,0.0,0.0,0.0,0.0,0.0,0.0,0.0,0.0,0.0,0.0,0.0,0.0,0.0,0.0,0.0,0.0,0.0,0.0,0.0,0.0,0.0,0.0,0.0,0.0,0.0,0.0,0.0,0.0,0.0,0.0,0.0,0.0,0.0,0.0,0.0,0.0,0.0,0.0,0.0,0.0,0.0,0.0,0.0,0.0,0.0,0.0,0.0,0.0,0.0,0.0,0.0,0.0,0.0,0.0,0.0,0.0,0.0,0.0,0.0,0.0,0.0,0.0,0.0,0.0,0.0,0.0,0.0,0.0,0.0,0.0,0.0,0.0,0.0,-1.9117,-1.8987,-1.8975,-1.8722,-1.8229,-1.8169,-1.77,0.0,0.0,0.0,0.0,0.0,0.0,0.0,0.0,0.0,0.0,0.0,0.0,0.0,0.0,0.0,0.0,0.0,0.0,0.0,0.0,0.0,0.0,0.0,0.0,0.0,0.0,0.0,0.0,0.0,0.0,0.0,0.0,0.0,0.0,0.0,0.0,0.0,0.0,0.0,0.0,0.0,0.0,0.0,0.0,0.0,0.0,0.0,0.0,0.0,0.0,0.0,0.0,0.0,0.0,0.0,0.0,0.0,0.0,0.0,0.0,0.0,0.0,0.0,0.0,0.0,0.0,0.0,0.0,0.0,0.0,0.0,0.0,0.0,0.0,0.0,0.0,0.0,0.0,0.0,0.0,0.0,0.0,0.0,0.0,0.0,0.0,0.0,0.0,0.0,0.0,0.0,0.0,0.0,0.0,0.0,0.0,0.0,0.0,0.0,0.0,0.0,0.0,0.0,0.0,0.0,0.0,0.0,0.0,0.0,-1.8987,-1.8987,-1.8903,-1.8746,-1.8398,-1.8049,0.0,0.0,0.0,0.0,0.0,0.0,0.0,0.0,0.0,0.0,0.0,0.0,0.0,0.0,0.0,0.0,0.0,0.0,0.0,0.0,0.0,0.0,0.0,0.0,0.0,0.0,0.0,0.0,0.0,0.0,0.0,0.0,0.0,0.0,0.0,0.0,0.0,0.0,0.0,0.0,0.0,0.0,0.0,0.0,0.0,0.0,0.0,0.0,0.0,0.0,0.0,0.0,0.0,0.0,0.0,0.0,0.0,0.0,0.0,0.0,0.0,0.0,0.0,0.0,0.0,0.0,0.0,0.0,0.0,0.0,0.0,0.0,0.0,0.0,0.0,0.0,0.0,0.0,0.0,0.0,0.0,0.0,0.0,0.0,0.0,0.0,0.0,0.0,0.0,0.0,0.0,0.0,0.0,0.0,0.0,0.0,0.0,0.0,0.0,0.0,0.0,0.0,0.0,0.0,0.0,0.0,0.0,0.0,0.0,-1.9258,-1.9313,-1.9369,-1.9369,-1.8927,-1.849,-1.8052,0.0,0.0,0.0,0.0,0.0,0.0,0.0,0.0,0.0,0.0,0.0,0.0,0.0,0.0,0.0,0.0,0.0,0.0,0.0,0.0,0.0,0.0,0.0,0.0,0.0,0.0,0.0,0.0,0.0,0.0,0.0,0.0,0.0,0.0,0.0,0.0,0.0,0.0,0.0,0.0,0.0,0.0,0.0,0.0,0.0,0.0,0.0,0.0,0.0,0.0,0.0,0.0,0.0,0.0,0.0,0.0,0.0,0.0,0.0,0.0,0.0,0.0,0.0,0.0,0.0,0.0,0.0,0.0,0.0,0.0,0.0,0.0,0.0,0.0,0.0,0.0,0.0,0.0,0.0,0.0,0.0,0.0,0.0,0.0,0.0,0.0,0.0,0.0,0.0,0.0,0.0,0.0,0.0,0.0,0.0,0.0,0.0,0.0,0.0,0.0,0.0,0.0,0.0,0.0,0.0,0.0,0.0,0.0,-1.9687,-1.997,-2.0099,-2.0041,-1.9725,-1.9034,0.0,0.0,0.0,0.0,0.0,0.0,0.0,0.0,0.0,0.0,0.0,0.0,0.0,0.0,0.0,0.0,0.0,0.0,0.0,0.0,0.0,0.0,0.0,0.0,0.0,0.0,0.0,0.0,0.0,0.0,0.0,0.0,0.0,0.0,0.0,0.0,0.0,0.0,0.0,0.0,0.0,0.0,0.0,0.0,0.0,0.0,0.0,0.0,0.0,0.0,0.0,0.0,0.0,0.0,0.0,0.0,0.0,0.0,0.0,0.0,0.0,0.0,0.0,0.0,0.0,0.0,0.0,0.0,0.0,0.0,0.0,0.0,0.0,0.0,0.0,0.0,0.0,0.0,0.0,0.0,0.0,0.0,0.0,0.0,0.0,0.0,0.0,0.0,0.0,0.0,0.0,0.0,0.0,0.0,0.0,0.0,0.0,0.0,0.0,0.0,0.0,0.0,0.0,0.0,0.0,0.0,0.0,0.0,0.0,-2.0369,-2.1102,-2.1255,-2.0779,-1.9984,-1.947,0.0,0.0,0.0,0.0,0.0,0.0,0.0,0.0,0.0,0.0,0.0,0.0,0.0,0.0,0.0,0.0,0.0,0.0,0.0,0.0,0.0,0.0,0.0,0.0,0.0,0.0,0.0,0.0,0.0,0.0,0.0,0.0,0.0,0.0,0.0,0.0,0.0,0.0,0.0,0.0,0.0,0.0,0.0,0.0,0.0,0.0,0.0,0.0,0.0,0.0,0.0,0.0,0.0,0.0,0.0,0.0,0.0,0.0,0.0,0.0,0.0,0.0,0.0,0.0,0.0,0.0,0.0,0.0,0.0,0.0,0.0,0.0,0.0,0.0,0.0,0.0,0.0,0.0,0.0,0.0,0.0,0.0,0.0,0.0,0.0,0.0,0.0,0.0,0.0,0.0,0.0,0.0,0.0,0.0,0.0,0.0,0.0,0.0,0.0,0.0,0.0,0.0,0.0,0.0,0.0,0.0,0.0,0.0,-2.0138,-2.0388,-2.1749,-2.2262,-2.1901,-2.0523,-1.9654,0.0,0.0,0.0,0.0,0.0,0.0,0.0,0.0,0.0,0.0,0.0,0.0,0.0,0.0,0.0,0.0,0.0,0.0,0.0,0.0,0.0,0.0,0.0,0.0,0.0,0.0,0.0,0.0,0.0,0.0,0.0,0.0,0.0,0.0,0.0,0.0,0.0,0.0,0.0,0.0,0.0,0.0,0.0,0.0,0.0,0.0,0.0,0.0,0.0,0.0,0.0,0.0,0.0,0.0,0.0,0.0,0.0,0.0,0.0,0.0,0.0,0.0,0.0,0.0,0.0,0.0,0.0,0.0,0.0,0.0,0.0,0.0,0.0,0.0,0.0,0.0,0.0,0.0,0.0,0.0,0.0,0.0,0.0,0.0,0.0,0.0,0.0,0.0,0.0,0.0,0.0,0.0,0.0,0.0,0.0,0.0,0.0,0.0,0.0,0.0,0.0,0.0,0.0,0.0,0.0,0.0,0.0,0.0,-2.0444,-2.026,-2.2062,-2.299,-2.2872,-2.1032,-1.9745,0.0,0.0,0.0,0.0,0.0,0.0,0.0,0.0,0.0,0.0,0.0,0.0,0.0,0.0,0.0,0.0,0.0,0.0,0.0,0.0,0.0,0.0,0.0,0.0,0.0,0.0,0.0,0.0,0.0,0.0,0.0,0.0,0.0,0.0,0.0,0.0,0.0,0.0,0.0,0.0,0.0,0.0,0.0,0.0,0.0,0.0,0.0,0.0,0.0,0.0,0.0,0.0,0.0,0.0,0.0,0.0,0.0,0.0,0.0,0.0,0.0,0.0,0.0,0.0,0.0,0.0,0.0,0.0,0.0,0.0,0.0,0.0,0.0,0.0,0.0,0.0,0.0,0.0,0.0,0.0,0.0,0.0,0.0,0.0,0.0,0.0,0.0,0.0,0.0,0.0,0.0,0.0,0.0,0.0,0.0,0.0,0.0,0.0,0.0,0.0,0.0,0.0,0.0,0.0,0.0,0.0,0.0,0.0,-2.0588,-2.1286,-2.2411,-2.2777,-2.2317,-2.0504,-1.9648,0.0,0.0,0.0,0.0,0.0,0.0,0.0,0.0,0.0,0.0,0.0,0.0,0.0,0.0,0.0,0.0,0.0,0.0,0.0,0.0,0.0,0.0,0.0,0.0,0.0,0.0,0.0,0.0,0.0,0.0,0.0,0.0,0.0,0.0,0.0,0.0,0.0,0.0,0.0,0.0,0.0,0.0,0.0,0.0,0.0,0.0,0.0,0.0,-1.3887,0.0,0.0,0.0,0.0,0.0,0.0,0.0,0.0,0.0,0.0,0.0,0.0,0.0,0.0,0.0,0.0,0.0,0.0,0.0,0.0,0.0,0.0,0.0,0.0,0.0,0.0,0.0,0.0,0.0,0.0,0.0,0.0,0.0,0.0,0.0,0.0,0.0,0.0,0.0,0.0,0.0,0.0,0.0,0.0,0.0,0.0,0.0,0.0,0.0,0.0,0.0,0.0,0.0,0.0,0.0,0.0,0.0,0.0,0.0,-2.062,-2.157,-2.251,-2.2852,-2.2478,-2.0621,-1.9639,0.0,0.0,0.0,0.0,0.0,0.0,0.0,0.0,0.0,0.0,0.0,0.0,0.0,0.0,0.0,0.0,0.0,0.0,0.0,0.0,0.0,0.0,0.0,0.0,0.0,0.0,0.0,0.0,0.0,0.0,0.0,0.0,0.0,0.0,0.0,0.0,0.0,0.0,0.0,0.0,0.0,0.0,0.0,0.0,0.0,0.0,0.0,0.0,0.0,0.0,0.0,0.0,0.0,0.0,0.0,0.0,0.0,0.0,0.0,0.0,0.0,0.0,0.0,0.0,0.0,0.0,0.0,0.0,0.0,0.0,0.0,0.0,0.0,0.0,0.0,0.0,0.0,0.0,0.0,0.0,0.0,0.0,0.0,0.0,0.0,0.0,0.0,0.0,0.0,0.0,0.0,0.0,0.0,0.0,0.0,0.0,0.0,0.0,0.0,0.0,0.0,0.0,0.0,0.0,0.0,0.0,0.0,-1.9661,-2.0686,-2.1778,-2.2586,-2.2916,-2.283,-2.096,-1.9625,-1.9083,0.0,0.0,0.0,0.0,0.0,0.0,0.0,0.0,0.0,0.0,0.0,0.0,0.0,0.0,0.0,0.0,0.0,0.0,0.0,0.0,0.0,0.0,0.0,0.0,0.0,0.0,0.0,0.0,0.0,0.0,0.0,0.0,0.0,0.0,0.0,0.0,0.0,0.0,-1.225,-1.2299,0.0,0.0,0.0,0.0,0.0,0.0,0.0,0.0,-1.3729,0.0,0.0,0.0,0.0,0.0,0.0,0.0,0.0,0.0,0.0,0.0,0.0,0.0,0.0,0.0,0.0,0.0,0.0,0.0,0.0,0.0,0.0,0.0,0.0,0.0,0.0,0.0,0.0,0.0,0.0,0.0,0.0,0.0,0.0,0.0,0.0,0.0,0.0,0.0,0.0,0.0,0.0,0.0,0.0,0.0,0.0,0.0,0.0,0.0,0.0,0.0,0.0,0.0,0.0,0.0,0.0,-1.9813,-1.9998,-2.0992,-2.2706,-2.2925,-2.2777,-2.222,-2.0747,-1.9479,-1.8614,0.0,0.0,0.0,0.0,0.0,0.0,0.0,0.0,0.0,0.0,0.0,0.0,0.0,0.0,0.0,0.0,0.0,0.0,0.0,0.0,0.0,0.0,0.0,0.0,0.0,0.0,0.0,0.0,0.0,0.0,0.0,0.0,0.0,0.0,0.0,0.0,0.0,0.0,0.0,-1.2661,-1.2581,0.0,0.0,0.0,0.0,0.0,0.0,0.0,0.0,-1.4554,0.0,0.0,0.0,0.0,0.0,0.0,0.0,0.0,0.0,0.0,0.0,0.0,0.0,0.0,0.0,0.0,0.0,0.0,0.0,0.0,0.0,0.0,0.0,0.0,0.0,0.0,0.0,0.0,0.0,0.0,0.0,0.0,0.0,0.0,0.0,0.0,0.0,0.0,0.0,0.0,0.0,0.0,0.0,0.0,0.0,0.0,0.0,0.0,0.0,0.0,0.0,0.0,0.0,0.0,0.0,-2.0031,-2.0508,-2.1441,-2.2798,-2.2703,-2.2628,-2.2371,-2.0676,-1.94,0.0,0.0,0.0,0.0,0.0,0.0,0.0,0.0,0.0,0.0,0.0,0.0,0.0,0.0,0.0,0.0,0.0,0.0,0.0,0.0,0.0,0.0,0.0,0.0,0.0,0.0,0.0,0.0,0.0,0.0,0.0,0.0,0.0,0.0,0.0,0.0,0.0,0.0,0.0,0.0,-1.3009,-1.3118,-1.3931,0.0,0.0,0.0,0.0,0.0,0.0,-1.4054,-1.4129,0.0,0.0,0.0,0.0,0.0,0.0,0.0,0.0,0.0,0.0,0.0,0.0,0.0,0.0,0.0,0.0,0.0,0.0,0.0,0.0,0.0,0.0,0.0,0.0,0.0,0.0,0.0,0.0,0.0,0.0,0.0,0.0,0.0,0.0,0.0,0.0,0.0,0.0,0.0,0.0,0.0,0.0,0.0,0.0,0.0,0.0,0.0,0.0,0.0,0.0,0.0,0.0,0.0,0.0,0.0,-2.0009,-2.0896,-2.1836,-2.2649,-2.2467,-2.2402,-2.2521,-2.0344,-1.8947,0.0,0.0,0.0,0.0,0.0,0.0,0.0,0.0,0.0,0.0,0.0,0.0,0.0,0.0,0.0,0.0,0.0,0.0,0.0,0.0,0.0,0.0,0.0,0.0,0.0,0.0,0.0,0.0,0.0,0.0,0.0,0.0,0.0,0.0,0.0,0.0,0.0,0.0,0.0,0.0,0.0,-1.3589,-1.4387,-1.3818,0.0,0.0,0.0,0.0,-1.371,-1.3784,0.0,0.0,0.0,0.0,0.0,0.0,0.0,0.0,0.0,0.0,0.0,0.0,0.0,0.0,0.0,0.0,0.0,0.0,0.0,0.0,0.0,0.0,0.0,0.0,0.0,0.0,0.0,0.0,0.0,0.0,0.0,0.0,0.0,0.0,0.0,0.0,0.0,0.0,0.0,0.0,0.0,0.0,0.0,0.0,0.0,0.0,0.0,0.0,0.0,0.0,0.0,0.0,0.0,0.0,0.0,0.0,-1.9671,-2.0885,-2.1897,-2.2649,-2.2327,-2.2176,-2.2145,-1.9147,-1.7604,0.0,0.0,0.0,0.0,0.0,0.0,0.0,0.0,0.0,0.0,0.0,0.0,0.0,0.0,0.0,0.0,0.0,0.0,0.0,0.0,0.0,0.0,0.0,0.0,0.0,0.0,0.0,0.0,0.0,0.0,0.0,0.0,0.0,0.0,0.0,0.0,0.0,0.0,0.0,0.0,0.0,-1.3589,-1.4405,-1.3818,-1.3296,0.0,0.0,-1.4378,-1.4368,-1.4709,0.0,0.0,0.0,0.0,0.0,0.0,0.0,0.0,0.0,0.0,0.0,0.0,0.0,0.0,0.0,0.0,0.0,0.0,0.0,0.0,0.0,0.0,0.0,0.0,0.0,0.0,0.0,0.0,0.0,0.0,0.0,0.0,0.0,0.0,0.0,0.0,0.0,0.0,0.0,0.0,0.0,0.0,0.0,0.0,0.0,0.0,0.0,0.0,0.0,0.0,0.0,0.0,0.0,0.0,0.0,-1.8192,-1.8864,-2.0185,-2.1073,-2.1614,-2.1405,-2.1339,-2.1405,-1.8444,-1.6994,0.0,0.0,0.0,0.0,0.0,0.0,0.0,0.0,0.0,0.0,0.0,0.0,0.0,0.0,0.0,0.0,0.0,0.0,0.0,0.0,0.0,0.0,0.0,0.0,0.0,0.0,0.0,0.0,0.0,0.0,0.0,0.0,0.0,0.0,0.0,0.0,0.0,0.0,0.0,0.0,0.0,0.0,-1.4469,-1.4203,0.0,0.0,0.0,-1.4359,-1.3892,0.0,0.0,0.0,0.0,0.0,0.0,0.0,0.0,0.0,0.0,0.0,0.0,0.0,0.0,0.0,0.0,0.0,0.0,0.0,0.0,0.0,0.0,0.0,0.0,0.0,0.0,0.0,0.0,0.0,0.0,0.0,0.0,0.0,0.0,0.0,0.0,0.0,0.0,0.0,0.0,0.0,0.0,0.0,0.0,0.0,0.0,0.0,0.0,0.0,0.0,0.0,0.0,0.0,0.0,0.0,0.0,0.0,-1.826,-1.958,-2.045,-2.0857,-2.0644,-2.0557,-2.0672,-1.8151,0.0,0.0,0.0,0.0,0.0,0.0,0.0,0.0,0.0,0.0,0.0,0.0,0.0,0.0,0.0,0.0,0.0,0.0,0.0,0.0,0.0,0.0,0.0,0.0,0.0,0.0,0.0,-1.1781,0.0,0.0,0.0,0.0,0.0,0.0,0.0,0.0,0.0,0.0,0.0,0.0,0.0,0.0,-1.4446,-1.4258,-1.4327,-1.4399,0.0,0.0,-1.425,-1.3841,-1.4631,-1.4672,0.0,0.0,0.0,0.0,0.0,0.0,0.0,0.0,0.0,0.0,0.0,0.0,0.0,0.0,0.0,0.0,0.0,0.0,0.0,0.0,0.0,0.0,0.0,0.0,0.0,0.0,0.0,0.0,0.0,0.0,0.0,0.0,0.0,0.0,0.0,0.0,0.0,0.0,0.0,0.0,0.0,0.0,0.0,0.0,0.0,0.0,0.0,0.0,0.0,0.0,0.0,0.0,0.0,0.0,0.0,-1.8021,-1.9653,-2.0595,-2.0857,-2.0479,-2.0245,-2.0226,-1.8405,-1.6973,0.0,0.0,0.0,0.0,0.0,0.0,0.0,0.0,0.0,0.0,0.0,0.0,0.0,0.0,0.0,0.0,0.0,0.0,0.0,0.0,0.0,0.0,0.0,0.0,0.0,0.0,0.0,0.0,0.0,0.0,0.0,0.0,0.0,0.0,0.0,0.0,0.0,0.0,0.0,0.0,0.0,-1.4258,-1.3631,-1.3899,-1.4224,0.0,0.0,-1.4319,-1.4897,-1.5416,-1.5119,-1.3429,0.0,0.0,0.0,0.0,0.0,0.0,0.0,0.0,0.0,0.0,0.0,0.0,0.0,0.0,0.0,0.0,0.0,0.0,0.0,0.0,0.0,0.0,0.0,0.0,0.0,0.0,0.0,0.0,0.0,0.0,0.0,0.0,0.0,0.0,0.0,0.0,0.0,0.0,0.0,0.0,0.0,0.0,0.0,0.0,0.0,0.0,0.0,0.0,0.0,0.0,0.0,0.0,0.0,-1.5806,-1.6188,-1.7755,-1.8718,-1.9134,-1.8904,-1.8993,-1.924,-1.768,-1.6462,0.0,0.0,0.0,0.0,0.0,0.0,0.0,0.0,0.0,0.0,0.0,0.0,0.0,0.0,0.0,0.0,0.0,0.0,0.0,0.0,0.0,0.0,0.0,0.0,0.0,0.0,0.0,0.0,-1.2497,-1.2525,-1.1962,0.0,0.0,0.0,0.0,0.0,0.0,0.0,0.0,0.0,0.0,-1.4328,-1.48,-1.498,0.0,0.0,-1.4786,-1.4515,-1.3926,-1.4183,-1.3819,-1.1856,-1.1526,0.0,0.0,0.0,0.0,0.0,0.0,0.0,0.0,0.0,0.0,0.0,0.0,0.0,0.0,0.0,0.0,0.0,0.0,0.0,0.0,0.0,0.0,0.0,0.0,0.0,0.0,0.0,0.0,0.0,0.0,0.0,0.0,0.0,0.0,0.0,0.0,0.0,0.0,0.0,0.0,0.0,0.0,0.0,0.0,0.0,0.0,0.0,0.0,0.0,0.0,0.0,0.0,-1.4698,-1.5033,-1.6649,-1.7635,-1.8049,-1.8031,-1.8201,-1.8434,-1.7492,-1.648,0.0,0.0,0.0,0.0,0.0,0.0,0.0,0.0,0.0,0.0,0.0,0.0,0.0,0.0,0.0,0.0,0.0,0.0,0.0,0.0,0.0,0.0,0.0,0.0,0.0,0.0,0.0,0.0,-1.2143,-1.2236,-1.1681,0.0,0.0,0.0,0.0,0.0,0.0,0.0,0.0,0.0,0.0,-1.4538,-1.4835,-1.4952,-1.4853,-1.4293,-1.4153,-1.3802,-1.2952,-1.3059,-1.2747,-1.1207,0.0,0.0,0.0,0.0,0.0,0.0,0.0,0.0,0.0,0.0,0.0,0.0,0.0,0.0,0.0,0.0,0.0,0.0,0.0,0.0,0.0,0.0,0.0,0.0,0.0,0.0,0.0,0.0,0.0,0.0,-1.3387,0.0,0.0,0.0,0.0,0.0,0.0,0.0,0.0,0.0,0.0,0.0,0.0,0.0,0.0,0.0,0.0,0.0,0.0,0.0,0.0,0.0,0.0,-1.4189,-1.518,-1.6657,-1.7554,-1.7951,-1.804,-1.8031,-1.804,-1.8006,-1.7527,-1.6494,0.0,0.0,0.0,0.0,0.0,0.0,0.0,0.0,0.0,0.0,0.0,0.0,0.0,0.0,0.0,0.0,0.0,0.0,0.0,0.0,0.0,0.0,0.0,0.0,0.0,0.0,-0.9333,-1.0328,-1.1384,0.0,0.0,0.0,0.0,0.0,0.0,0.0,0.0,0.0,0.0,-1.41,-1.4944,-1.321,-1.3287,-1.3314,-1.2448,-1.2043,-1.1938,-1.2376,-1.2415,-1.2359,0.0,0.0,0.0,0.0,0.0,0.0,0.0,0.0,0.0,0.0,0.0,0.0,0.0,0.0,0.0,0.0,0.0,0.0,0.0,0.0,0.0,0.0,0.0,0.0,0.0,0.0,0.0,-1.4802,-1.4538,0.0,0.0,0.0,0.0,0.0,0.0,0.0,0.0,0.0,0.0,0.0,-1.391,-1.3465,0.0,0.0,0.0,0.0,0.0,0.0,0.0,0.0,0.0,0.0,0.0,0.0,-1.4107,-1.4197,-1.5964,-1.7147,-1.7554,-1.7635,-1.7887,-1.8451,-1.8451,-1.8055,-1.7162,0.0,0.0,0.0,0.0,0.0,0.0,0.0,0.0,0.0,0.0,0.0,0.0,0.0,0.0,0.0,0.0,0.0,0.0,0.0,0.0,0.0,0.0,0.0,0.0,0.0,-1.0205,0.0,0.0,0.0,0.0,0.0,0.0,0.0,0.0,0.0,0.0,0.0,-1.1878,-1.2363,-1.2425,-1.2483,-1.2694,-1.2802,-1.3029,0.0,0.0,0.0,0.0,0.0,0.0,0.0,0.0,0.0,0.0,0.0,0.0,0.0,0.0,-0.8845,-0.8575,-0.8833,-0.9225,-0.9308,0.0,0.0,0.0,0.0,0.0,0.0,0.0,0.0,0.0,0.0,0.0,0.0,0.0,0.0,-1.4893,0.0,-1.472,0.0,0.0,0.0,0.0,0.0,0.0,0.0,0.0,-1.4006,-1.4291,-1.4283,-1.3846,-1.3964,0.0,-1.3734,-1.3108,0.0,0.0,0.0,0.0,0.0,0.0,0.0,0.0,-1.4181,-1.4064,-1.5888,-1.7147,-1.7554,-1.7635,-1.7878,-1.8451,-1.862,-1.8485,-1.7931,-1.651,-1.5251,0.0,0.0,0.0,0.0,0.0,0.0,0.0,0.0,0.0,0.0,0.0,0.0,0.0,0.0,0.0,0.0,0.0,0.0,0.0,0.0,0.0,0.0,0.0,-0.9883,0.0,0.0,0.0,0.0,0.0,0.0,0.0,0.0,0.0,-1.1396,-1.1722,-1.214,-1.2655,-1.2353,-1.2079,-1.2061,0.0,0.0,0.0,0.0,0.0,0.0,0.0,-1.0131,-0.9556,-0.9771,-1.0101,-1.0372,-1.0155,-0.9819,-0.9558,0.0,0.0,-0.8761,-0.9281,-0.9794,-0.9748,-0.9691,-0.9744,-1.0001,-0.9712,-0.9496,0.0,0.0,0.0,0.0,0.0,0.0,0.0,0.0,-1.683,-1.5689,0.0,-1.5061,0.0,0.0,0.0,0.0,0.0,-1.4622,0.0,0.0,-1.5742,-1.5587,-1.3965,-1.3852,-1.4298,-1.5059,-1.3707,-1.3652,-1.4761,-1.4089,0.0,0.0,0.0,0.0,0.0,0.0,-1.4214,-1.4637,-1.6455,-1.7635,-1.7959,-1.804,-1.8031,-1.8121,-1.8531,-1.8692,-1.8647,-1.794,-1.7504,-1.7413,-1.49,0.0,0.0,0.0,0.0,0.0,0.0,0.0,0.0,0.0,0.0,0.0,0.0,0.0,0.0,0.0,0.0,0.0,0.0,0.0,0.0,-0.9274,0.0,0.0,0.0,0.0,0.0,0.0,0.0,0.0,0.0,0.0,-1.0893,-1.2198,-1.3123,-1.2923,0.0,0.0,0.0,0.0,-1.1576,-0.9538,-0.9161,-0.9122,-0.9015,-0.9757,-1.0596,-1.1352,0.0,0.0,-1.2028,-1.0618,-0.9612,-0.9492,-1.0047,-0.9991,-0.8524,-0.9141,-0.9845,-0.9682,-0.9627,-0.9563,-0.982,-0.9348,-0.8678,-1.6351,0.0,0.0,0.0,0.0,-1.5582,-1.6224,-1.7259,-1.6669,-1.6059,-1.547,-1.517,0.0,0.0,0.0,0.0,0.0,0.0,-1.3829,-1.4198,-1.4713,-1.4889,-1.4984,-1.4896,-1.4984,-1.5146,-1.4641,-1.4575,-1.4795,-1.535,-1.453,-1.2522,0.0,0.0,0.0,0.0,-1.4163,-1.5041,-1.6604,-1.7635,-1.8031,-1.8371,-1.8603,-1.8913,-1.9073,-1.9152,-1.9152,-1.8893,-1.8247,-1.7128,-1.6578,0.0,0.0,0.0,0.0,0.0,0.0,0.0,0.0,0.0,0.0,0.0,0.0,0.0,0.0,0.0,0.0,0.0,0.0,0.0,-1.0043,-1.0038,-0.9792,0.0,0.0,0.0,0.0,0.0,0.0,0.0,0.0,0.0,-1.2307,-1.1644,-1.1208,0.0,0.0,-1.0377,-0.9666,-1.0565,-1.1392,-1.1802,-1.1626,0.0,-1.25,-1.1952,-1.1372,-1.1503,-1.1691,-1.1636,-1.1188,-1.1041,-1.0887,-1.0663,-1.108,-1.109,-1.0137,-1.037,-1.0787,-1.0572,-1.051,-1.0479,-1.0519,-1.0268,-1.0109,-1.7712,-1.7366,-1.6139,-1.5843,-1.6156,-1.6175,-1.6736,-1.7676,-1.713,-1.6355,-1.5396,-1.5196,-1.4215,-1.2781,-1.3042,0.0,0.0,0.0,-1.4106,-1.4673,-1.4673,-1.4758,-1.4887,-1.4908,-1.4992,-1.5159,-1.4999,-1.5159,-1.547,-1.5484,-1.4844,-1.3437,0.0,0.0,-1.3342,-1.4347,-1.5292,-1.6142,-1.731,-1.8129,-1.8514,-1.8763,-1.9082,-1.9292,-1.9292,-1.9292,-1.9292,-1.9292,-1.8688,-1.7374,-1.7252,-1.5954,0.0,0.0,0.0,0.0,0.0,0.0,0.0,0.0,0.0,0.0,0.0,-0.9137,0.0,0.0,0.0,0.0,-0.9599,-0.9775,-1.0148,-0.9709,0.0,0.0,0.0,0.0,0.0,0.0,0.0,-1.0388,-1.179,-1.2771,-1.2762,-1.1974,-1.155,-1.2094,-1.1353,-1.0621,-1.042,0.0,-1.2132,-1.2758,-1.261,-1.2685,-1.3246,-1.2923,-1.2489,-1.243,-1.2123,-1.1744,-1.1327,-1.144,-1.1492,-1.1412,-1.1609,-1.176,-1.1197,-1.1359,-1.1433,-1.1112,-1.1089,-1.1083,-1.1109,-1.0981,-1.1,-1.9292,-1.9045,-1.6138,-1.5762,-1.7073,-1.7021,-1.7335,-1.798,-1.7827,-1.6474,-1.431,-1.5006,-1.4265,-1.2491,-1.2952,0.0,-1.4818,-1.4811,-1.5,-1.5311,-1.5311,-1.4908,-1.4088,-1.4088,-1.4496,-1.5235,-1.4817,-1.5228,-1.6324,-1.497,-1.4306,-1.4433,-1.5984,-1.6263,-1.5411,-1.6307,-1.7108,-1.7515,-1.8297,-1.8922,-1.9301,-1.9222,-1.9222,-1.9213,-1.9222,-1.9134,-1.9134,-1.9134,-1.8816,-1.7954,-1.7291,-1.6183,-1.4331,0.0,0.0,0.0,0.0,0.0,0.0,0.0,0.0,0.0,0.0,0.0,0.0,0.0,0.0,0.0,-0.9498,0.0,-1.0195,-0.8889,0.0,0.0,0.0,-0.9451,-1.1177,-1.1194,-1.1415,-1.2263,0.0,0.0,-1.2609,-1.2923,-1.3473,-1.4515,-1.3941,-1.3144,-1.2535,-1.3101,-1.3453,-1.2893,-1.2872,-1.2754,-1.2622,-1.2989,-1.3391,-1.3353,-1.3178,-1.2551,-1.1977,-1.1658,-1.1479,-1.142,-1.1691,-1.1842,-1.1848,-1.1756,-1.17,-1.1284,-1.1376,-1.1456,-1.1396,-1.1223,-1.1061,-1.9292,-1.9237,-1.8485,-1.8385,-1.8647,-1.802,-1.783,-1.7827,-1.6617,-1.5666,-1.5072,-1.4566,-1.409,-1.3695,-1.3769,-1.4054,-1.4337,-1.4255,-1.4365,-1.4412,-1.4419,-1.4334,-1.4088,-1.4088,-1.4082,-1.4068,-1.3984,-1.3984,-1.421,-1.4578,-1.4381,-1.3697,-1.4808,-1.5328,-1.5289,-1.6118,-1.6989,-1.7865,-1.8391,-1.8843,-1.9301,-1.8647,-1.8318,-1.8327,-1.8318,-1.7997,-1.735,-1.7908,-1.7908,-1.7098,-1.7497,-1.6488,-1.3863,-1.3126,0.0,0.0,0.0,0.0,0.0,0.0,0.0,0.0,0.0,-0.8587,-0.8149,0.0,-0.9029,0.0,-0.9134,-1.0389,-1.1608,-1.111,0.0,0.0,-1.0177,-1.0339,-1.0221,-1.1485,-1.2242,-1.1967,-1.2889,-1.3778,-1.4345,-1.4246,-1.455,-1.5654,-1.4391,-1.3262,-1.3131,-1.3791,-1.4257,-1.4127,-1.4559,-1.4748,-1.3823,-1.3314,-1.2971,-1.2478,-1.2305,-1.2003,-1.1409,-1.1241,-1.1208,-1.1214,-1.125,-1.1304,-1.1323,-1.1304,-1.1235,-1.1164,-1.1342,-1.1461,-1.1262,-1.116,-1.1117,-1.9292,-1.9292,-1.9292,-1.9054,-1.8647,-1.8238,-1.7755,-1.7342,-1.5966,-1.5151,-1.4824,-1.4334,-1.4088,-1.4088,-1.4088,-1.4088,-1.4088,-1.4088,-1.4088,-1.4088,-1.4088,-1.4088,-1.4088,-1.4088,-1.4004,-1.3913,-1.3913,-1.3822,-1.3743,-1.4321,-1.4302,-1.3648,-1.4635,-1.5188,-1.5312,-1.51,-1.5377,-1.6145,-1.6687,-1.7338,-1.8132,-1.7666,-1.7284,-1.6953,-1.6767,-1.6221,-1.5444,-1.5698,-1.5563,-1.4912,-1.5627,-1.4973,-1.2491,-1.1963,-1.0795,0.0,0.0,0.0,0.0,0.0,0.0,0.0,0.0,0.0,0.0,0.0,-0.9482,-0.9019,-0.9668,-1.0392,-1.1073,-1.1052,-1.0756,-1.0141,-1.0854,-1.1319,-1.131,-1.2613,-1.338,-1.3084,-1.4047,-1.4754,-1.4887,-1.4679,-1.4909,-1.5904,-1.5085,-1.4462,-1.4639,-1.5049,-1.5375,-1.5543,-1.5634,-1.5259,-1.4114,-1.3397,-1.268,-1.215,-1.2003,-1.1781,-1.126,-1.1117,-1.1117,-1.1117,-1.1117,-1.1117,-1.1117,-1.1117,-1.1117,-1.1135,-1.1238,-1.1274,-1.1148,-1.1117,-1.1117,-1.9292,-1.9292,-1.9292,-1.8807,-1.7997,-1.7917,-1.735,-1.6453,-1.5643,-1.4824,-1.4088,-1.4088,-1.4088,-1.4088,-1.4088,-1.4088,-1.4088,-1.4088,-1.4088,-1.4088,-1.4088,-1.4088,-1.4088,-1.4088,-1.4088,-1.4088,-1.4088,-1.4088,-1.4088,-1.4088,-1.4008,-1.3951,-1.466,-1.4983,-1.4809,-1.3533,-1.3305,-1.413,-1.4643,-1.5428,-1.6549,-1.6254,-1.5815,-1.52,-1.4768,-1.4179,-1.3441,-1.3183,-1.2818,-1.2328,-1.3061,-1.2761,-1.1102,-1.0475,-0.9676,0.0,-0.7165,0.0,0.0,0.0,0.0,0.0,0.0,0.0,0.0,-1.0161,-1.0346,-1.1065,-1.0615,-1.0212,-1.0128,-1.0244,-1.0401,-1.0438,-1.12,-1.214,-1.2977,-1.3658,-1.4163,-1.4466,-1.5117,-1.5259,-1.4712,-1.4601,-1.4887,-1.5683,-1.5738,-1.5757,-1.614,-1.6175,-1.6314,-1.6691,-1.5754,-1.4466,-1.36,-1.2959,-1.2452,-1.2003,-1.1855,-1.1706,-1.1186,-1.1117,-1.1117,-1.1117,-1.1117,-1.1117,-1.1117,-1.1117,-1.1117,-1.1117,-1.1129,-1.1129,-1.1117,-1.1117,-1.1117,-1.9292,-1.9292,-1.9292,-1.8807,-1.7917,-1.7269,-1.6453,-1.556,-1.4741,-1.425,-1.4088,-1.4088,-1.4088,-1.4088,-1.4088,-1.4088,-1.4088,-1.4088,-1.4088,-1.4088,-1.4088,-1.4088,-1.4088,-1.4088,-1.4088,-1.4088,-1.4088,-1.4088,-1.4088,-1.4088,-1.3594,-1.2659,-1.2783,-1.2587,-1.1966,0.0,0.0,0.0,-1.534,-1.5176,-1.5696,-1.3826,-1.2928,-1.3044,-1.2727,0.0,-1.131,-1.1787,-1.1787,-1.1052,-1.1787,0.0,0.0,0.0,0.0,0.0,0.0,0.0,0.0,0.0,0.0,0.0,-0.9585,-0.9703,-0.9861,-0.9848,-1.0376,-1.1784,-1.1563,-1.1374,-1.1567,-1.1787,-1.1861,-1.1879,-1.2083,-1.2263,-1.2439,-1.2586,-1.2945,-1.36,-1.389,-1.4106,-1.4458,-1.4601,-1.4895,-1.5542,-1.5833,-1.5833,-1.5842,-1.6132,-1.6132,-1.5559,-1.4178,-1.3091,-1.3018,-1.2137,-1.1484,-1.126,-1.126,-1.126,-1.1111,-1.1117,-1.1117,-1.1117,-1.1117,-1.1117,-1.1117,-1.1117,-1.1117,-1.1117,-1.1117,-1.1117,-1.1117,-1.1117,-1.1117,-1.9292,0.0,-1.8816,-1.8158,0.0,-1.6453,-1.5553,-1.4741,-1.425,-1.4088,-1.4088,-1.4088,-1.4088,-1.4088,-1.4088,-1.4088,-1.4088,-1.4088,-1.4088,-1.4088,-1.4088,-1.4088,-1.4088,-1.4088,-1.4088,-1.4088,-1.4088,-1.4088,-1.4088,-1.4088,-1.3774,-1.3186,-1.3186,-1.304,-1.2599,-1.2439,-1.3044,-1.4491,-1.3933,-1.3992,-1.4742,-1.3635,-1.292,-1.2714,-1.2347,0.0,0.0,0.0,0.0,0.0,0.0,0.0,0.0,-1.1447,0.0,-1.1056,-1.021,-0.9981,-1.0499,-1.034,-1.038,-1.0732,-1.0954,-1.1005,-1.0967,-1.1646,-1.2284,-1.2772,-1.2645,-1.247,-1.2218,-1.2592,-1.2732,-1.2372,-1.2659,-1.2739,-1.2445,-1.2659,-1.2879,-1.2952,-1.3237,-1.3528,-1.3455,-1.3455,-1.381,-1.4537,-1.4681,-1.4824,-1.518,-1.5692,-1.5621,-1.4394,-1.339,-1.2512,-1.2137,-1.162,-1.1117,-1.1117,-1.1117,-1.1117,-1.1117,-1.1117,-1.1117,-1.1117,-1.1117,-1.1117,-1.1117,-1.1117,-1.1117,-1.1117,-1.1117,-1.1117,-1.1117,-1.1117,-1.1117,-1.9292,-1.9222,-1.8567,-1.7594,-1.6617,-1.5884,-1.5068,-1.4088,0.0,0.0,0.0,-1.4088,-1.4088,-1.4088,-1.4088,-1.4088,-1.4088,-1.4088,-1.4088,-1.4088,-1.4088,-1.4088,-1.4088,-1.4088,-1.4088,-1.4088,-1.4088,-1.4088,-1.4088,-1.4088,-1.4088,-1.4088,-1.4088,-1.4088,-1.4088,-1.4088,-1.3601,-1.2659,-1.2412,-1.2856,-1.3892,-1.3655,-1.3226,-1.2649,-1.2278,-1.1744,-1.1157,-1.0807,-1.0744,-1.1052,-1.1108,-1.1101,-1.1058,-1.1051,-1.0927,-1.0524,-1.018,-1.0358,-1.1309,-1.1116,-1.1404,-1.2251,-1.2305,-1.2317,-1.2398,-1.3737,-1.4322,-1.3673,-1.3673,-1.3382,-1.2592,-1.2952,-1.3032,-1.2372,-1.2879,-1.3032,-1.2445,-1.2879,-1.2959,-1.2519,-1.2886,-1.3025,-1.2452,-1.2378,-1.2586,-1.3317,-1.36,-1.368,-1.4322,-1.4895,-1.4824,-1.3673,-1.2945,-1.2358,-1.17,-1.1335,-1.1186,-1.1117,-1.1117,-1.1117,-1.1117,-1.1117,-1.1117,-1.1117,-1.1117,-1.1117,-1.1117,-1.1117,-1.1117,-1.1117,-1.1117,-1.1037,-1.0887,-1.0887,-1.0812,-1.9292,-1.9301,-1.9143,-1.8167,-1.6698,-1.6535,-1.5643,-1.4088,-1.4088,-1.4088,-1.4088,-1.4088,-1.4088,-1.4088,-1.4088,-1.4088,-1.4088,-1.4088,-1.4088,-1.4088,-1.4088,-1.4088,-1.4088,-1.4088,-1.4088,-1.4088,-1.4088,-1.4088,-1.4088,-1.4088,-1.4088,-1.4088,-1.4088,-1.4088,-1.4088,-1.4088,-1.4001,-1.3821,-1.2826,-1.26,-1.3124,-1.1771,-1.1238,-1.1447,-1.1108,-1.0806,-1.0694,-1.0658,-1.0624,-1.0688,-1.0688,-1.112,-1.1995,-1.2128,-1.2506,-1.336,-1.3186,-1.2993,-1.2886,-1.2612,-1.2392,-1.2311,-1.2305,-1.2583,-1.3292,-1.4134,-1.4458,-1.4235,-1.4314,-1.4099,-1.3164,-1.2732,-1.2519,-1.2305,-1.2372,-1.2372,-1.2298,-1.2378,-1.2445,-1.2305,-1.2378,-1.2445,-1.2378,-1.2305,-1.2592,-1.3244,-1.339,-1.3535,-1.36,-1.3753,-1.3753,-1.3382,-1.2659,-1.2077,-1.1706,-1.1484,-1.126,-1.1117,-1.1117,-1.1117,-1.1117,-1.1117,-1.1117,-1.1117,-1.1117,-1.1117,-1.1117,-1.1117,-1.1117,-1.1117,-1.1117,-1.0893,-1.0288,-1.0143,-1.0067,-1.9054,-1.8567,-1.8086,-1.7188,-1.5966,-1.5477,-1.4824,-1.4088,-1.4088,-1.4088,-1.4088,-1.4088,-1.4088,-1.4088,-1.4088,-1.4088,-1.4088,-1.4088,-1.4088,-1.4088,-1.4088,-1.4088,-1.4088,-1.4088,-1.4088,-1.4088,-1.4088,-1.4088,-1.4088,-1.4088,-1.4088,-1.4088,-1.4088,-1.4088,-1.4088,-1.4088,-1.4088,-1.4075,-1.3547,-1.3346,-1.3571,-1.2898,-1.2621,-1.2763,-1.2621,-1.2478,-1.2472,-1.2472,-1.2472,-1.2478,-1.2472,-1.2719,-1.3227,-1.3267,-1.3514,-1.4035,-1.3808,-1.3587,-1.346,-1.3006,-1.2619,-1.2331,-1.2305,-1.2452,-1.2806,-1.3528,-1.4099,-1.4458,-1.453,-1.4243,-1.3455,-1.3098,-1.2813,-1.2372,-1.2305,-1.2305,-1.2305,-1.2305,-1.2305,-1.2305,-1.2305,-1.2305,-1.2305,-1.2305,-1.2378,-1.2813,-1.2813,-1.2886,-1.2886,-1.2886,-1.2879,-1.2806,-1.2365,-1.2003,-1.1706,-1.1558,-1.1335,-1.1111,-1.1117,-1.1117,-1.1117,-1.1117,-1.1117,-1.1117,-1.1117,-1.1117,-1.1117,-1.1117,-1.1117,-1.1117,-1.1117,-1.0812,-1.0148,-0.9311,-0.8775,-1.8318,-1.7674,-1.6935,-1.6206,-1.5311,-1.4496,-1.4088,-1.4088,-1.4088,-1.4088,-1.4088,-1.4088,-1.4088,-1.4088,-1.4088,-1.4088,-1.4088,-1.4088,-1.4088,-1.4088,-1.4088,-1.4088,-1.4088,-1.4088,-1.4088,-1.4088,-1.4088,-1.4088,-1.4088,-1.4088,-1.4088,-1.4088,-1.4088,-1.4088,-1.4088,-1.4088,-1.4088,-1.4088,-1.4088,-1.4088,-1.4088,-1.4088,-1.4082,-1.4088,-1.4075,-1.4088,-1.4088,-1.4088,-1.4088,-1.4088,-1.4088,-1.4088,-1.4088,-1.4088,-1.4088,-1.4062,-1.3874,-1.3714,-1.3532,-1.308,-1.2652,-1.2425,-1.2338,-1.2305,-1.2378,-1.3032,-1.3818,-1.4458,-1.4466,-1.4171,-1.3745,-1.339,-1.2952,-1.2378,-1.2305,-1.2305,-1.2305,-1.2305,-1.2305,-1.2305,-1.2305,-1.2305,-1.2305,-1.2305,-1.2305,-1.2305,-1.2305,-1.2305,-1.2305,-1.2305,-1.2305,-1.2231,-1.215,-1.2003,-1.1781,-1.1626,-1.1477,-1.126,-1.1186,-1.1111,-1.0962,-1.0812,-1.0812,-1.0738,-1.0818,-1.0893,-1.1043,-1.1192,-1.1043,-1.0893,-1.0812,-1.0513,-0.9458,-0.8475,-0.7859,-1.6944,-1.6772,-1.6698,-1.6206,-1.5311,-1.4496,-1.4088,-1.4088,-1.4088,-1.4088,-1.4088,-1.4088,-1.4088,-1.4088,-1.4088,-1.4088,-1.4088,-1.4088,-1.4088,-1.4088,-1.4088,-1.4088,-1.4088,-1.4088,-1.4088,-1.4088,-1.4088,-1.4088,-1.4088,-1.4088,-1.4088,-1.4088,-1.4088,-1.4088,-1.4088,-1.4088,-1.4088,-1.4088,-1.4088,-1.4088,-1.4088,-1.4088,-1.4088,-1.4088,-1.4088,-1.4088,-1.4088,-1.4088,-1.4088,-1.4088,-1.4088,-1.4088,-1.4088,-1.4088,-1.4088,-1.4088,-1.4055,-1.3935,-1.3641,-1.308,-1.2815,-1.2768,-1.2445,-1.2305,-1.2305,-1.3025,-1.3818,-1.4314,-1.3954,-1.3954,-1.4322,-1.331,-1.2519,-1.2378,-1.2305,-1.2305,-1.2305,-1.2305,-1.2305,-1.2305,-1.2305,-1.2305,-1.2305,-1.2305,-1.2305,-1.2305,-1.2305,-1.2305,-1.2305,-1.2305,-1.2305,-1.2305,-1.2305,-1.215,-1.2003,-1.1929,-1.1781,-1.1626,-1.1484,-1.1111,-1.0663,-1.0288,-0.9986,-1.0137,-1.0143,-1.0368,-1.0887,-1.1186,-1.1037,-1.0438,-1.0137,-0.9836,-0.8466,-0.7633,-0.7561,-1.637,-1.5966,-1.5966,-1.5387,-1.4664,-1.425,-1.4088,-1.4088,-1.4088,-1.4088,-1.4088,-1.4088,-1.4088,-1.4088,-1.4088,-1.4088,-1.4088,-1.4088,-1.4088,-1.4088,-1.4088,-1.4088,-1.4088,-1.4088,-1.4088,-1.4088,-1.4088,-1.4088,-1.4088,-1.4088,-1.4088,-1.4088,-1.4088,-1.4088,-1.4088,-1.4088,-1.4088,-1.4088,-1.4088,-1.4088,-1.4088,-1.4088,-1.4088,-1.4088,-1.4088,-1.4088,-1.4088,-1.4088,-1.4088,-1.4088,-1.4088,-1.4088,-1.4088,-1.4088,-1.4088,-1.4088,-1.4088,-1.3955,-1.3572,-1.3247,-1.2939,-1.2842,-1.2472,-1.2305,-1.2305,-1.2592,-1.3098,-1.3818,-1.4034,-1.4106,-1.3962,-1.3382,-1.2806,-1.2452,-1.2305,-1.2305,-1.2305,-1.2305,-1.2305,-1.2305,-1.2305,-1.2305,-1.2305,-1.2305,-1.2305,-1.2305,-1.2305,-1.2305,-1.2305,-1.2305,-1.2305,-1.2305,-1.2305,-1.2231,-1.2077,-1.2003,-1.1929,-1.1781,-1.1632,-1.126,-1.0588,-1.0368,-1.0137,-0.9679,-0.9911,-1.0218,-1.0669,-1.1186,-1.126,-1.0438,-0.9301,-0.877,-0.8241,-0.7638,-0.7488,-1.5777,-1.5183,-1.5104,-1.4657,-1.4088,-1.4088,-1.4088,-1.4088,-1.4088,-1.4088,-1.4088,-1.4088,-1.4088,-1.4088,-1.4088,-1.4088,-1.4088,-1.4088,-1.4088,-1.4088,-1.4088,-1.4088,-1.4088,-1.4088,-1.4088,-1.4088,-1.4088,-1.4088,-1.4088,-1.4088,-1.4088,-1.4088,-1.4088,-1.4088,-1.4088,-1.4088,-1.4088,-1.4088,-1.4088,-1.4088,-1.4088,-1.4088,-1.4088,-1.4088,-1.4088,-1.4088,-1.4088,-1.4088,-1.4088,-1.4088,-1.4088,-1.4088,-1.4088,-1.4088,-1.4088,-1.4088,-1.4088,-1.3995,-1.3774,-1.3494,-1.32,-1.2893,-1.2599,-1.2385,-1.2318,-1.2519,-1.2732,-1.3098,-1.389,-1.4034,-1.36,-1.3317,-1.2879,-1.2378,-1.2305,-1.2305,-1.2305,-1.2305,-1.2305,-1.2305,-1.2305,-1.2305,-1.2305,-1.2305,-1.2305,-1.2305,-1.2305,-1.2305,-1.2305,-1.2305,-1.2305,-1.2305,-1.2305,-1.2224,-1.2077,-1.2077,-1.2003,-1.1855,-1.1706,-1.1105,-1.0357,-1.0132,-1.0056,-0.9377,-0.9906,-1.0438,-1.0962,-1.1409,-1.126,-1.0282,-0.9074,-0.8012,-0.7868,-0.7565,-0.7407,-1.4583,-1.4542,-1.4287,-1.4173,-1.4088,-1.4088,-1.4088,-1.4088,-1.4088,-1.4088,-1.4088,-1.4088,-1.4088,-1.4088,-1.4088,-1.4088,-1.4088,-1.4088,-1.4088,-1.4088,-1.4088,-1.4088,-1.4088,-1.4088,-1.4088,-1.4088,-1.4088,-1.4088,-1.4088,-1.4088,-1.4088,-1.4088,-1.4088,-1.4088,-1.4088,-1.4088,-1.4088,-1.4088,-1.4088,-1.4088,-1.4088,-1.4088,-1.4088,-1.4088,-1.4088,-1.4088,-1.4088,-1.4088,-1.4088,-1.4088,-1.4088,-1.4088,-1.4088,-1.4088,-1.4088,-1.4088,-1.4088,-1.4082,-1.4021,-1.3768,-1.3474,-1.3193,-1.2866,-1.2599,-1.2338,-1.2886,-1.2952,-1.2452,-1.3105,-1.3462,-1.339,-1.2813,-1.2445,-1.2305,-1.2305,-1.2305,-1.2305,-1.2305,-1.2305,-1.2305,-1.2305,-1.2305,-1.2305,-1.2305,-1.2305,-1.2305,-1.2305,-1.2305,-1.2305,-1.2305,-1.2305,-1.2305,-1.2305,-1.2305,-1.2305,-1.2077,-1.2077,-1.1929,-1.1254,-1.0576,-0.9669,-0.9069,-0.8993,-0.9069,-0.9448,-1.0126,-1.118,-1.1403,-1.0875,-0.9895,-0.8466,-0.7638,-0.7642,-0.7484,-0.7484,-1.4696,-1.4496,-1.4208,-1.4088,-1.4088,-1.4088,-1.4088,-1.4088,-1.4088,-1.4088,-1.4088,-1.4088,-1.4088,-1.4088,-1.4088,-1.4088,-1.4088,-1.4088,-1.4088,-1.4088,-1.4088,-1.4088,-1.4088,-1.4088,-1.4088,-1.4088,-1.4088,-1.4088,-1.4088,-1.4088,-1.4088,-1.4088,-1.4088,-1.4088,-1.4088,-1.4088,-1.4088,-1.4088,-1.4088,-1.4088,-1.4088,-1.4088,-1.4088,-1.4088,-1.4088,-1.4088,-1.4088,-1.4088,-1.4088,-1.4088,-1.4088,-1.4088,-1.4088,-1.4088,-1.4088,-1.4088,-1.4088,-1.4088,-1.4055,-1.3808,-1.352,-1.3233,-1.2919,-1.2701,-1.2446,-1.2592,-1.2586,-1.2445,-1.2519,-1.2732,-1.2659,-1.2445,-1.2305,-1.2305,-1.2305,-1.2305,-1.2305,-1.2305,-1.2305,-1.2305,-1.2305,-1.2305,-1.2305,-1.2305,-1.2305,-1.2305,-1.2305,-1.2305,-1.2305,-1.2305,-1.2305,-1.2305,-1.2305,-1.2305,-1.2305,-1.1781,-1.1484,-1.126,-1.0807,-0.9976,-0.9145,-0.877,-0.8694,-0.8542,-0.8922,-0.9523,-1.0426,-1.0132,-0.975,-0.9372,-0.8016,-0.7484,-0.7411,-0.7484,-0.748,-1.4877,-1.4516,-1.4309,-1.4168,-1.4088,-1.4088,-1.4088,-1.4088,-1.4088,-1.4088,-1.4088,-1.4088,-1.4088,-1.4088,-1.4088,-1.4088,-1.4088,-1.4088,-1.4088,-1.4088,-1.4088,-1.4088,-1.4088,-1.4088,-1.4088,-1.4088,-1.4088,-1.4088,-1.4088,-1.4088,-1.4088,-1.4088,-1.4088,-1.4088,-1.4088,-1.4088,-1.4088,-1.4088,-1.4088,-1.4088,-1.4088,-1.4088,-1.4088,-1.4088,-1.4088,-1.4088,-1.4088,-1.4088,-1.4088,-1.4088,-1.4088,-1.4088,-1.4088,-1.4088,-1.4088,-1.4088,-1.4088,-1.4088,-1.4068,-1.3901,-1.3667,-1.3367,-1.3066,-1.2766,-1.2485,-1.2365,-1.2311,-1.2305,-1.2305,-1.2305,-1.2305,-1.2305,-1.2305,-1.2305,-1.2305,-1.2305,-1.2305,-1.2305,-1.2305,-1.2305,-1.2305,-1.2305,-1.2305,-1.2305,-1.2305,-1.2305,-1.2305,-1.2305,-1.2305,-1.2305,-1.2305,-1.2231,-1.2009,-1.1855,-1.1558,-1.0881,-1.0956,-1.0807,-1.0056,-0.9301,-0.8846,-0.8623,-0.8399,-0.8246,-0.847,-0.8993,-0.915,-0.8851,-0.8703,-0.8623,-0.8093,-0.748,-0.7484,-0.748,-0.748,-1.505,-1.4576,-1.4522,-1.4335,-1.4102,-1.4088,-1.4088,-1.4088,-1.4088,-1.4088,-1.4088,-1.4088,-1.4088,-1.4088,-1.4088,-1.4088,-1.4088,-1.4088,-1.4088,-1.4088,-1.4088,-1.4088,-1.4088,-1.4088,-1.4088,-1.4088,-1.4088,-1.4088,-1.4088,-1.4088,-1.4088,-1.4088,-1.4088,-1.4088,-1.4088,-1.4088,-1.4088,-1.4088,-1.4088,-1.4088,-1.4088,-1.4088,-1.4088,-1.4088,-1.4088,-1.4088,-1.4088,-1.4088,-1.4088,-1.4088,-1.4088,-1.4088,-1.4088,-1.4088,-1.4088,-1.4088,-1.4088,-1.4088,-1.4088,-1.4062,-1.3908,-1.3614,-1.3353,-1.3026,-1.2719,-1.2458,-1.2305,-1.2305,-1.2305,-1.2305,-1.2305,-1.2305,-1.2305,-1.2305,-1.2305,-1.2305,-1.2305,-1.2305,-1.2305,-1.2305,-1.2305,-1.2305,-1.2305,-1.2305,-1.2305,-1.2305,-1.2305,-1.2305,-1.2305,-1.2305,-1.2305,-1.2077,-1.1706,-1.1409,-1.0657,-0.9981,-1.0282,-1.0282,-0.9377,-0.8546,-0.847,-0.8246,-0.8246,-0.8093,-0.8093,-0.8618,-0.9448,-0.915,-0.847,-0.8241,-0.7787,-0.748,-0.748,-0.748,-0.748,-1.517,-1.4816,-1.4603,-1.4349,-1.4102,-1.4088,-1.4088,-1.4088,-1.4088,-1.4088,-1.4088,-1.4088,-1.4088,-1.4088,-1.4088,-1.4088,-1.4088,-1.4088,-1.4088,-1.4088,-1.4088,-1.4088,-1.4088,-1.4088,-1.4088,-1.4088,-1.4088,-1.4088,-1.4088,-1.4088,-1.4088,-1.4088,-1.4088,-1.4088,-1.4088,-1.4088,-1.4088,-1.4088,-1.4088,-1.4088,-1.4088,-1.4088,-1.4088,-1.4088,-1.4088,-1.4088,-1.4088,-1.4088,-1.4088,-1.4088,-1.4088,-1.4088,-1.4088,-1.4088,-1.4088,-1.4088,-1.4088,-1.4088,-1.4088,-1.4082,-1.3961,-1.3667,-1.338,-1.3073,-1.2849,-1.2472,-1.2318,-1.2305,-1.2305,-1.2305,-1.2305,-1.2305,-1.2305,-1.2305,-1.2305,-1.2305,-1.2305,-1.2305,-1.2305,-1.2305,-1.2305,-1.2305,-1.2305,-1.2305,-1.2305,-1.2305,-1.2305,-1.2305,-1.2305,-1.2231,-1.2009,-1.1558,-1.1186,-1.0732,-1.0056,-0.9377,-0.9226,-0.9377,-0.8623,-0.8322,-0.8246,-0.8093,-0.8016,-0.8016,-0.8016,-0.8318,-0.9069,-0.9069,-0.8313,-0.7936,-0.7633,-0.748,-0.748,-0.7557,-0.7561,-1.5231,-1.4943,-1.4643,-1.4349,-1.4102,-1.4088,-1.4088,-1.4088,-1.4088,-1.4088,-1.4088,-1.4088,-1.4088,-1.4088,-1.4088,-1.4088,-1.4088,-1.4088,-1.4088,-1.4088,-1.4088,-1.4088,-1.4088,-1.4088,-1.4088,-1.4088,-1.4088,-1.4088,-1.4088,-1.4088,-1.4088,-1.4088,-1.4088,-1.4088,-1.4088,-1.4088,-1.4088,-1.4088,-1.4088,-1.4173,-1.4159,-1.4243,-1.4243,-1.4243,-1.425,-1.425,-1.4088,-1.4166,-1.4166,-1.4166,-1.4166,-1.4159,-1.4088,-1.425,-1.4243,-1.4166,-1.4159,-1.4159,-1.4088,-1.4082,-1.4021,-1.3788,-1.344,-1.3146,-1.2886,-1.2572,-1.2311,-1.2305,-1.2305,-1.2305,-1.2305,-1.2305,-1.2305,-1.2305,-1.2305,-1.2305,-1.2305,-1.2305,-1.2305,-1.2305,-1.2305,-1.2305,-1.2305,-1.2305,-1.2305,-1.2305,-1.2305,-1.2083,-1.2003,-1.1781,-1.1409,-1.0881,-1.0207,-0.983,-0.9448,-0.8922,-0.8322,-0.8169,-0.794,-0.8093,-0.8169,-0.794,-0.7863,-0.7787,-0.771,-0.7791,-0.8389,-0.8161,-0.7633,-0.7557,-0.748,-0.748,-0.7557,-0.7638,-0.7642,-1.5217,-1.4923,-1.4636,-1.4355,-1.4102,-1.4088,-1.4088,-1.4088,-1.4088,-1.4088,-1.4088,-1.4088,-1.4088,-1.4088,-1.4088,-1.4088,-1.4088,-1.4088,-1.4088,-1.4088,-1.4088,-1.4088,-1.4088,-1.4088,-1.4088,-1.4088,-1.4088,-1.4088,-1.4088,-1.4088,-1.4088,-1.4088,-1.4088,-1.4088,-1.4088,-1.4088,-1.4088,-1.4088,-1.4088,-1.4166,-1.4398,-1.4398,-1.4398,-1.4398,-1.4573,-1.4489,-1.425,-1.4321,-1.4321,-1.4166,-1.4237,-1.4321,-1.425,-1.4496,-1.4489,-1.425,-1.4321,-1.4321,-1.4166,-1.4166,-1.4159,-1.4085,-1.3534,-1.3206,-1.3106,-1.2645,-1.2305,-1.2305,-1.2305,-1.2305,-1.2305,-1.2305,-1.2305,-1.2305,-1.2305,-1.2305,-1.2305,-1.2305,-1.2305,-1.2305,-1.2305,-1.2305,-1.2305,-1.2305,-1.2305,-1.2305,-1.2305,-1.2003,-1.1706,-1.1477,-1.0881,-1.0357,-0.9981,-0.9679,-0.9599,-0.8851,-0.8322,-0.8169,-0.7868,-0.7787,-0.8016,-0.7863,-0.8165,-0.7936,-0.748,-0.7561,-0.7638,-0.7633,-0.7557,-0.748,-0.748,-0.748,-0.7561,-0.7718,-0.7795,-1.5097,-1.4636,-1.4549,-1.4355,-1.4108,-1.4088,-1.4095,-1.4088,-1.4095,-1.4108,-1.4095,-1.4088,-1.4088,-1.4088,-1.4088,-1.4088,-1.4088,-1.4088,-1.4088,-1.4088,-1.4088,-1.4088,-1.4088,-1.4088,-1.4088,-1.4088,-1.4088,-1.4088,-1.4088,-1.4088,-1.4088,-1.4088,-1.4088,-1.4088,-1.4088,-1.4088,-1.4088,-1.4088,-1.4088,-1.4243,-1.4398,-1.4398,-1.4482,-1.465,-1.465,-1.4657,-1.4573,-1.4566,-1.4405,-1.4173,-1.4321,-1.4398,-1.4321,-1.4566,-1.4657,-1.4573,-1.4573,-1.4573,-1.4489,-1.4405,-1.4321,-1.4273,-1.3696,-1.3213,-1.3193,-1.2652,-1.2351,-1.2305,-1.2305,-1.2305,-1.2305,-1.2305,-1.2305,-1.2305,-1.2305,-1.2305,-1.2305,-1.2305,-1.2305,-1.2305,-1.2305,-1.2305,-1.2305,-1.2305,-1.2305,-1.2305,-1.2305,-1.215,-1.1781,-1.1626,-1.1254,-1.1031,-1.0657,-1.0201,-0.975,-0.9003,-0.8475,-0.8399,-0.8093,-0.7557,-0.771,-0.7638,-0.8389,-0.8917,-0.7859,-0.7561,-0.7787,-0.8012,-0.7787,-0.748,-0.7557,-0.7561,-0.7642,-0.7799,-0.7876,-1.519,-1.4877,-1.4756,-1.4616,-1.4462,-1.4456,-1.4456,-1.4429,-1.4315,-1.4269,-1.4249,-1.4135,-1.4088,-1.4088,-1.4088,-1.4088,-1.4088,-1.4088,-1.4088,-1.4088,-1.4088,-1.4088,-1.4088,-1.4088,-1.4088,-1.4088,-1.4088,-1.4088,-1.4088,-1.4088,-1.4088,-1.4088,-1.4088,-1.4088,-1.4088,-1.4088,-1.4088,-1.4088,-1.4166,-1.4328,-1.4482,-1.4657,-1.4741,-1.4908,-1.4908,-1.4999,-1.4908,-1.4734,-1.4573,-1.4412,-1.4573,-1.4657,-1.4573,-1.4824,-1.4908,-1.4734,-1.4824,-1.4824,-1.4734,-1.4566,-1.4504,-1.4331,-1.3762,-1.341,-1.3121,-1.2716,-1.2378,-1.2305,-1.2305,-1.2305,-1.2305,-1.2305,-1.2305,-1.2305,-1.2305,-1.2305,-1.2305,-1.2305,-1.2305,-1.2305,-1.2305,-1.2305,-1.2305,-1.2305,-1.2305,-1.2305,-1.2305,-1.2077,-1.1781,-1.1848,-1.17,-1.1254,-1.0582,-0.9906,-0.9372,-0.8699,-0.8169,-0.8169,-0.8016,-0.7557,-0.7557,-0.7638,-0.8089,-0.8542,-0.7936,-0.7557,-0.7787,-0.794,-0.771,-0.748,-0.7561,-0.7642,-0.7799,-0.7953,-0.803,-1.5378,-1.5331,-1.5064,-1.506,-1.4943,-1.5053,-1.4903,-1.4897,-1.4669,-1.4569,-1.4509,-1.4269,-1.4182,-1.4135,-1.4122,-1.4088,-1.4088,-1.4088,-1.4088,-1.4088,-1.4088,-1.4088,-1.4088,-1.4088,-1.4088,-1.4088,-1.4088,-1.4088,-1.4088,-1.4088,-1.4088,-1.4088,-1.4088,-1.4088,-1.4088,-1.4088,-1.4088,-1.4166,-1.4237,-1.4482,-1.4657,-1.4915,-1.5006,-1.509,-1.5257,-1.5257,-1.509,-1.4915,-1.4824,-1.4817,-1.4999,-1.4915,-1.4824,-1.5166,-1.5166,-1.4908,-1.4999,-1.4999,-1.4824,-1.4817,-1.4608,-1.4335,-1.4013,-1.3606,-1.3175,-1.2784,-1.2526,-1.2372,-1.2298,-1.2305,-1.2305,-1.2305,-1.2305,-1.2305,-1.2305,-1.2305,-1.2305,-1.2305,-1.2305,-1.2305,-1.2305,-1.2305,-1.2305,-1.2305,-1.2305,-1.2305,-1.2305,-1.2157,-1.1929,-1.1855,-1.1545,-1.1019,-1.0201,-0.9306,-0.8851,-0.8394,-0.8016,-0.7714,-0.771,-0.7557,-0.7633,-0.771,-0.7787,-0.7787,-0.7633,-0.748,-0.7557,-0.7557,-0.748,-0.7561,-0.7642,-0.7799,-0.788,-0.8102,-0.8255,-1.5257,-1.505,-1.499,-1.506,-1.506,-1.506,-1.4977,-1.4977,-1.4903,-1.487,-1.4796,-1.4556,-1.4436,-1.4416,-1.4222,-1.4088,-1.4108,-1.4102,-1.4088,-1.4088,-1.4088,-1.4088,-1.4088,-1.4088,-1.4088,-1.4088,-1.4088,-1.4088,-1.4088,-1.4088,-1.4088,-1.4088,-1.4088,-1.4088,-1.4088,-1.4082,-1.4088,-1.4166,-1.4321,-1.4566,-1.4734,-1.4999,-1.5173,-1.5264,-1.5347,-1.5347,-1.5347,-1.5264,-1.5257,-1.5257,-1.5173,-1.5082,-1.5082,-1.5257,-1.534,-1.5257,-1.5257,-1.5257,-1.5257,-1.5061,-1.4856,-1.4522,-1.4144,-1.3684,-1.33,-1.2845,-1.262,-1.2526,-1.2372,-1.2305,-1.2305,-1.2305,-1.2305,-1.2305,-1.2305,-1.2305,-1.2305,-1.2305,-1.2305,-1.2305,-1.2305,-1.2305,-1.2305,-1.2305,-1.2305,-1.2305,-1.2231,-1.2231,-1.2083,-1.1855,-1.1397,-1.0944,-1.0421,-0.9604,-0.9074,-0.8546,-0.794,-0.7561,-0.7557,-0.748,-0.7557,-0.7633,-0.771,-0.7633,-0.7557,-0.748,-0.7561,-0.7561,-0.7561,-0.7642,-0.7799,-0.7953,-0.8106,-0.8327,-0.8403,-1.5504,-1.5371,-1.5371,-1.5371,-1.5371,-1.5364,-1.5371,-1.5344,-1.5217,-1.517,-1.5104,-1.4856,-1.473,-1.4703,-1.4436,-1.4295,-1.4249,-1.4142,-1.4088,-1.4088,-1.4088,-1.4088,-1.4088,-1.4088,-1.4088,-1.4088,-1.4088,-1.4088,-1.4088,-1.4088,-1.4088,-1.4088,-1.4088,-1.4166,-1.425,-1.4243,-1.4328,-1.4412,-1.458,-1.4824,-1.4908,-1.5082,-1.5257,-1.5347,-1.5431,-1.5431,-1.5431,-1.5431,-1.5431,-1.5347,-1.5257,-1.5257,-1.5264,-1.5347,-1.5431,-1.5431,-1.5431,-1.5431,-1.5347,-1.5228,-1.5054,-1.4598,-1.4309,-1.3817,-1.3339,-1.2896,-1.2693,-1.2599,-1.2452,-1.2305,-1.2305,-1.2305,-1.2305,-1.2305,-1.2305,-1.2305,-1.2305,-1.2305,-1.2305,-1.2305,-1.2305,-1.2305,-1.2305,-1.2305,-1.2305,-1.2305,-1.2231,-1.2157,-1.1781,-1.1626,-1.1397,-1.0944,-1.0571,-1.0126,-0.9528,-0.877,-0.7863,-0.7638,-0.7557,-0.748,-0.7557,-0.7557,-0.7557,-0.748,-0.7557,-0.7561,-0.7638,-0.7638,-0.7714,-0.7872,-0.803,-0.8102,-0.825,-0.8403,-0.8403,-1.5825,-1.5825,-1.5825,-1.5825,-1.5825,-1.5812,-1.5792,-1.5765,-1.5571,-1.5464,-1.5404,-1.5164,-1.503,-1.4963,-1.4716,-1.4596,-1.4529,-1.4396,-1.4322,-1.4315,-1.4229,-1.4208,-1.4182,-1.4135,-1.4088,-1.4088,-1.4088,-1.4088,-1.4088,-1.4088,-1.4088,-1.4088,-1.4159,-1.4243,-1.4398,-1.4482,-1.4489,-1.4657,-1.4915,-1.4999,-1.5082,-1.5257,-1.5347,-1.5431,-1.5431,-1.5431,-1.5431,-1.5431,-1.5431,-1.5431,-1.5431,-1.5431,-1.5431,-1.5431,-1.5431,-1.5431,-1.5431,-1.5431,-1.5409,-1.5335,-1.5072,-1.4516,-1.4399,-1.403,-1.3431,-1.306,-1.2833,-1.2673,-1.2452,-1.2305,-1.2305,-1.2305,-1.2305,-1.2305,-1.2305,-1.2305,-1.2305,-1.2305,-1.2305,-1.2305,-1.2305,-1.2305,-1.2305,-1.2305,-1.2305,-1.2231,-1.2157,-1.2003,-1.1552,-1.118,-1.0875,-1.0496,-1.0045,-0.9367,-0.8846,-0.8618,-0.7787,-0.7633,-0.748,-0.748,-0.748,-0.748,-0.748,-0.7557,-0.7561,-0.7642,-0.7718,-0.7795,-0.7953,-0.8106,-0.8178,-0.8327,-0.8403,-0.8479,-0.8403,-1.5825,-1.5825,-1.5825,-1.5825,-1.5825,-1.5825,-1.592,-1.5825,-1.5859,-1.5758,-1.5705,-1.5458,-1.5324,-1.5251,-1.5023,-1.4897,-1.4836,-1.4743,-1.475,-1.4703,-1.4563,-1.4449,-1.4416,-1.4282,-1.4162,-1.4088,-1.4128,-1.4155,-1.4088,-1.4088,-1.4088,-1.4082,-1.4243,-1.4398,-1.4482,-1.4566,-1.4657,-1.4824,-1.4999,-1.509,-1.5173,-1.5264,-1.5431,-1.5431,-1.5431,-1.5431,-1.5431,-1.5431,-1.5431,-1.5431,-1.5431,-1.5431,-1.5431,-1.5431,-1.5431,-1.5431,-1.5431,-1.5431,-1.5416,-1.5174,-1.4882,-1.4509,-1.4245,-1.3945,-1.3462,-1.3119,-1.29,-1.2753,-1.2526,-1.2305,-1.2305,-1.2305,-1.2305,-1.2305,-1.2305,-1.2305,-1.2305,-1.2305,-1.2305,-1.2305,-1.2305,-1.2305,-1.2305,-1.2231,-1.2157,-1.2009,-1.1706,-1.1329,-1.0807,-1.0501,-1.0196,-0.975,-0.9372,-0.8618,-0.7863,-0.7859,-0.7557,-0.7557,-0.748,-0.748,-0.748,-0.748,-0.748,-0.7561,-0.7642,-0.7723,-0.7876,-0.7953,-0.8102,-0.8331,-0.8403,-0.8399,-0.8475,-0.8556,-0.8551,-1.6581,-1.6676,-1.7131,-1.7311,-1.7311,-1.7304,-1.7037,-1.6574,-1.6574,-1.6298,-1.588,-1.5685,-1.5618,-1.5545,-1.5317,-1.5124,-1.501,-1.506,-1.506,-1.4917,-1.4816,-1.475,-1.4743,-1.4583,-1.4556,-1.4549,-1.4536,-1.4342,-1.4115,-1.4088,-1.4095,-1.4166,-1.4321,-1.4482,-1.4566,-1.4824,-1.4915,-1.509,-1.5173,-1.5264,-1.5264,-1.5347,-1.5431,-1.5431,-1.5431,-1.5431,-1.5431,-1.5431,-1.5431,-1.5431,-1.5431,-1.5431,-1.5431,-1.5431,-1.5431,-1.5431,-1.5431,-1.5431,-1.5379,-1.5131,-1.4816,-1.4494,-1.4157,-1.3843,-1.3521,-1.3119,-1.2826,-1.2599,-1.2459,-1.2305,-1.2305,-1.2305,-1.2305,-1.2305,-1.2305,-1.2305,-1.2305,-1.2305,-1.2305,-1.2305,-1.2231,-1.2231,-1.2305,-1.2231,-1.2083,-1.1706,-1.1335,-1.0732,-1.0132,-0.975,-0.9442,-0.8917,-0.8542,-0.8241,-0.7633,-0.7557,-0.748,-0.748,-0.748,-0.748,-0.7561,-0.7561,-0.7642,-0.7718,-0.7799,-0.7876,-0.8106,-0.8255,-0.8403,-0.8479,-0.8551,-0.8551,-0.8551,-0.8551,-0.8627,-1.7419,-1.7699,-1.8427,-1.8796,-1.8796,-1.8796,-1.8334,-1.7692,-1.7606,-1.7044,-1.6204,-1.6103,-1.6001,-1.5758,-1.5591,-1.5364,-1.5137,-1.5164,-1.519,-1.5177,-1.509,-1.505,-1.5044,-1.4983,-1.4999,-1.4856,-1.4877,-1.4683,-1.4302,-1.4208,-1.4148,-1.4179,-1.4321,-1.4566,-1.4741,-1.4999,-1.5257,-1.5347,-1.5431,-1.5431,-1.5431,-1.5431,-1.5431,-1.5431,-1.5431,-1.5431,-1.5431,-1.5431,-1.5431,-1.5431,-1.5431,-1.5431,-1.5431,-1.5431,-1.5431,-1.5431,-1.5431,-1.5409,-1.5255,-1.5013,-1.4662,-1.4333,-1.4055,-1.377,-1.3528,-1.3193,-1.282,-1.2526,-1.2378,-1.2378,-1.2378,-1.2378,-1.2305,-1.2305,-1.2305,-1.2378,-1.2305,-1.2305,-1.2305,-1.2231,-1.2231,-1.2003,-1.1855,-1.1781,-1.1552,-1.0875,-1.0432,-0.9981,-0.9377,-0.9145,-0.8689,-0.8084,-0.771,-0.771,-0.7557,-0.7557,-0.748,-0.748,-0.748,-0.7557,-0.7638,-0.7718,-0.7799,-0.7876,-0.7949,-0.8102,-0.8327,-0.8403,-0.8551,-0.8627,-0.8703,-0.8703,-0.8627,-0.8627,-0.8627,-1.7785,-1.8603,-1.8796,-1.8796,-1.8888,-1.888,-1.8796,-1.8603,-1.8611,-1.8064,-1.7138,-1.7052,-1.6581,-1.5893,-1.5792,-1.5738,-1.5698,-1.5645,-1.5625,-1.5585,-1.5438,-1.5344,-1.5304,-1.5057,-1.5084,-1.509,-1.505,-1.4783,-1.4522,-1.4456,-1.4322,-1.4247,-1.4517,-1.4657,-1.4824,-1.509,-1.5347,-1.5431,-1.5431,-1.5431,-1.5431,-1.5431,-1.5431,-1.5431,-1.5431,-1.5431,-1.5431,-1.5431,-1.5431,-1.5431,-1.5431,-1.5431,-1.5431,-1.5431,-1.5431,-1.5431,-1.5409,-1.5306,-1.5043,-1.4757,-1.4443,-1.4128,-1.3784,-1.3579,-1.3433,-1.3273,-1.3046,-1.2893,-1.2673,-1.2599,-1.2599,-1.2599,-1.2452,-1.2445,-1.2452,-1.2378,-1.2378,-1.2305,-1.2305,-1.1929,-1.1781,-1.1335,-1.1037,-1.1031,-1.0956,-1.0201,-0.9523,-0.9079,-0.8699,-0.8466,-0.8313,-0.7706,-0.748,-0.748,-0.748,-0.748,-0.748,-0.748,-0.7561,-0.7561,-0.7718,-0.7799,-0.8025,-0.8102,-0.8178,-0.825,-0.8403,-0.8551,-0.8627,-0.8703,-0.8703,-0.8703,-0.8703,-0.8703,-0.8703,-1.9255,-1.9704,-2.0266,-2.0456,-2.0447,-2.0447,-2.0167,-1.9712,-1.9613,-1.9063,-1.8156,-1.7512,-1.677,-1.592,-1.5825,-1.5818,-1.5825,-1.5825,-1.5825,-1.5825,-1.5698,-1.5625,-1.5618,-1.5524,-1.5458,-1.5371,-1.5398,-1.5204,-1.489,-1.4589,-1.4515,-1.4579,-1.4663,-1.4824,-1.4908,-1.5257,-1.5347,-1.5431,-1.5431,-1.5431,-1.5431,-1.5431,-1.5431,-1.5347,-1.5347,-1.5347,-1.5347,-1.5431,-1.5431,-1.5431,-1.5431,-1.5431,-1.5431,-1.5431,-1.5431,-1.5416,-1.524,-1.5087,-1.4926,-1.4626,-1.4304,-1.3996,-1.3697,-1.3441,-1.3346,-1.3266,-1.3119,-1.29,-1.282,-1.2746,-1.2746,-1.2746,-1.2673,-1.2599,-1.2526,-1.2378,-1.2305,-1.2305,-1.215,-1.17,-1.1254,-1.0732,-1.0282,-1.0126,-0.9976,-0.9448,-0.8922,-0.8623,-0.8246,-0.7859,-0.7783,-0.7633,-0.748,-0.748,-0.748,-0.748,-0.748,-0.7557,-0.7718,-0.7718,-0.7795,-0.7953,-0.8178,-0.8327,-0.8403,-0.8475,-0.8551,-0.8627,-0.8703,-0.8703,-0.8703,-0.8703,-0.8703,-0.8703,-0.8703,-2.0619,-2.0709,-2.1454,-2.1731,-2.1731,-2.1731,-2.1275,-2.0718,-2.0628,-1.9977,-1.8696,-1.7505,-1.6487,-1.5927,-1.5825,-1.5825,-1.5825,-1.5825,-1.5825,-1.5825,-1.5818,-1.5765,-1.5671,-1.5665,-1.5618,-1.5618,-1.5444,-1.5264,-1.497,-1.4764,-1.4656,-1.4761,-1.467,-1.4838,-1.5082,-1.5257,-1.534,-1.4999,-1.4999,-1.4999,-1.4999,-1.4741,-1.4824,-1.4824,-1.4824,-1.4741,-1.4741,-1.5006,-1.5006,-1.4657,-1.5257,-1.5347,-1.509,-1.5264,-1.5267,-1.5277,-1.5079,-1.4853,-1.4662,-1.4399,-1.4187,-1.3909,-1.3689,-1.3419,-1.3346,-1.3266,-1.3266,-1.3119,-1.3046,-1.2973,-1.2973,-1.2973,-1.2746,-1.2673,-1.2599,-1.2372,-1.2077,-1.1848,-1.1471,-1.0875,-1.0351,-0.983,-0.9453,-0.9221,-0.8922,-0.8546,-0.8246,-0.8093,-0.7863,-0.7557,-0.748,-0.748,-0.748,-0.748,-0.748,-0.748,-0.748,-0.7561,-0.7718,-0.7876,-0.7953,-0.8102,-0.8327,-0.8479,-0.8627,-0.8627,-0.8627,-0.8703,-0.8703,-0.8703,-0.8703,-0.8703,-0.8703,-0.8703,-0.8703,-2.1642,-2.1642,-2.1642,-2.1731,-2.1731,-2.1731,-2.1642,-2.1454,-2.1553,-2.0439,-1.8696,-1.703,-1.6204,-1.5832,-1.5825,-1.5825,-1.5825,-1.5825,-1.5825,-1.5825,-1.5805,-1.5658,-1.5545,-1.5431,-1.5317,-1.5137,-1.5241,-1.5187,-1.4993,-1.4919,-1.472,-1.4453,-1.4685,-1.4838,-1.4999,-1.5173,-1.4999,-1.4573,-1.4307,-1.4223,-1.4048,-1.3704,-1.3444,-1.3873,-1.3444,-1.293,-1.293,-1.388,-1.4146,-1.3535,-1.4657,-1.5173,-1.4915,-1.5115,-1.5173,-1.4998,-1.4874,-1.4596,-1.4289,-1.4136,-1.3879,-1.3645,-1.3514,-1.3499,-1.3419,-1.3492,-1.3419,-1.3346,-1.3273,-1.32,-1.3119,-1.3046,-1.2893,-1.2673,-1.2452,-1.1929,-1.1626,-1.118,-1.0801,-1.0045,-0.9523,-0.9074,-0.8699,-0.8466,-0.8389,-0.8012,-0.794,-0.7787,-0.771,-0.748,-0.748,-0.748,-0.748,-0.748,-0.748,-0.748,-0.748,-0.7561,-0.7642,-0.7872,-0.8025,-0.825,-0.8403,-0.8551,-0.8627,-0.8703,-0.8627,-0.8551,-0.8475,-0.8627,-0.8703,-0.8703,-0.8703,-0.8703,-0.8703,-2.1731,-2.1731,-2.1731,-2.1731,-2.1731,-2.1731,-2.1731,-2.1731,-2.1642,-2.0628,-1.8788,-1.7956,-1.6943,-1.6109,-1.5825,-1.5825,-1.5825,-1.5825,-1.5818,-1.5752,-1.5651,-1.5504,-1.5364,-1.5204,-1.507,-1.5053,-1.5122,-1.511,-1.494,-1.4977,-1.5042,-1.4923,-1.4915,-1.5082,-1.5173,-1.4824,-1.4573,-1.4482,-1.388,-1.3451,-1.388,-1.319,-1.2845,-1.3105,-1.3021,-1.2674,-1.2845,-1.3626,-1.3711,-1.3964,-1.4741,-1.4901,-1.4761,-1.4993,-1.4991,-1.486,-1.4611,-1.4267,-1.4055,-1.3945,-1.3828,-1.3579,-1.3492,-1.3492,-1.3419,-1.3492,-1.3492,-1.3492,-1.3419,-1.3346,-1.3346,-1.32,-1.2973,-1.268,-1.2231,-1.1706,-1.1031,-1.0576,-0.9976,-0.9221,-0.8922,-0.8623,-0.8169,-0.771,-0.7633,-0.7557,-0.7557,-0.748,-0.748,-0.748,-0.748,-0.748,-0.748,-0.748,-0.748,-0.748,-0.748,-0.7561,-0.7642,-0.7872,-0.803,-0.8102,-0.8255,-0.8475,-0.8627,-0.8627,-0.8475,-0.8318,-0.8318,-0.8627,-0.8703,-0.8703,-0.8703,-0.8703,-0.8703,-2.1557,-2.1566,-2.1686,-2.1731,-2.1731,-2.1731,-2.1731,-2.1731,-2.1731,-2.0817,-1.9247,-1.8972,-1.8149,-1.6943,-1.648,-1.6386,-1.6298,-1.6197,-1.5859,-1.5745,-1.5597,-1.5402,-1.5117,-1.4937,-1.4763,-1.4831,-1.4946,-1.4891,-1.474,-1.507,-1.5106,-1.5056,-1.5166,-1.5173,-1.4657,-1.4223,-1.388,-1.3711,-1.3197,-1.251,-1.3033,-1.2345,-1.2083,-1.2174,-1.226,-1.2169,-1.251,-1.3288,-1.3795,-1.4048,-1.4552,-1.5025,-1.4986,-1.482,-1.478,-1.4575,-1.4289,-1.3967,-1.3865,-1.3806,-1.3733,-1.3528,-1.3492,-1.3346,-1.3273,-1.3346,-1.3419,-1.3127,-1.3273,-1.3492,-1.3426,-1.32,-1.268,-1.2305,-1.1781,-1.1186,-1.0276,-0.9674,-0.9074,-0.847,-0.8246,-0.8093,-0.794,-0.7557,-0.7557,-0.748,-0.748,-0.748,-0.748,-0.748,-0.748,-0.748,-0.748,-0.748,-0.748,-0.748,-0.748,-0.7561,-0.7642,-0.7799,-0.7957,-0.7953,-0.8178,-0.8403,-0.8551,-0.8479,-0.8322,-0.8089,-0.8241,-0.8623,-0.8703,-0.8703,-0.8703,-0.8703,-0.8703,-2.1117,-2.1172,-2.1548,-2.1713,-2.1695,-2.1731,-2.1731,-2.1731,-2.1642,-2.1078,-2.0068,-1.9338,-1.8788,-1.8326,-1.7591,-1.7232,-1.6842,-1.6546,-1.6147,-1.567,-1.5474,-1.5203,-1.4845,-1.4549,-1.4529,-1.426,-1.445,-1.4732,-1.4537,-1.5007,-1.5125,-1.5111,-1.5082,-1.4999,-1.4139,-1.3275,-1.2339,-1.1666,-1.1752,-1.1752,-1.1837,-1.1322,-1.1322,-1.1408,-1.158,-1.158,-1.1666,-1.2772,-1.3203,-1.3027,-1.4223,-1.4476,-1.3933,-1.4267,-1.4301,-1.388,-1.3841,-1.3686,-1.3499,-1.3455,-1.3294,-1.3214,-1.3119,-1.29,-1.2673,-1.29,-1.3273,-1.298,-1.32,-1.3339,-1.3193,-1.29,-1.2305,-1.1632,-1.1105,-1.0507,-0.9604,-0.8846,-0.8318,-0.8016,-0.7787,-0.7557,-0.7557,-0.748,-0.7557,-0.748,-0.748,-0.748,-0.748,-0.748,-0.748,-0.748,-0.748,-0.748,-0.748,-0.748,-0.748,-0.7561,-0.7484,-0.7488,-0.7565,-0.7561,-0.7863,-0.8246,-0.8169,-0.794,-0.7859,-0.7778,-0.7936,-0.8089,-0.8551,-0.8703,-0.8703,-0.8703,-0.8703,-2.0723,-2.075,-2.1154,-2.1319,-2.1355,-2.1621,-2.1731,-2.1731,-2.1642,-2.1266,-2.061,-2.0051,-1.9231,-1.8503,-1.8048,-1.7591,-1.6929,-1.6501,-1.5886,-1.5647,-1.5431,-1.513,-1.477,-1.4572,-1.4436,-1.4523,-1.4741,-1.4831,-1.4929,-1.5173,-1.5257,-1.5257,-1.4831,-1.4748,-1.4657,-1.4216,-1.3626,-1.3717,-1.3197,-1.251,-1.2863,-1.2174,-1.1488,-1.1235,-1.1235,-1.1063,-1.0722,-1.2089,-1.2345,-1.2174,-1.3372,-1.3542,-1.306,-1.3411,-1.3024,-1.2648,-1.2499,-1.2138,-1.1938,-1.1935,-1.2164,-1.2305,-1.2378,-1.2231,-1.2231,-1.2452,-1.2753,-1.3053,-1.3273,-1.3185,-1.2586,-1.2218,-1.1626,-1.0726,-1.0051,-0.9528,-0.8775,-0.8241,-0.771,-0.771,-0.748,-0.748,-0.748,-0.748,-0.748,-0.748,-0.748,-0.748,-0.748,-0.748,-0.748,-0.748,-0.748,-0.748,-0.748,-0.7326,-0.7326,-0.7326,-0.7096,-0.6865,-0.6942,-0.7092,-0.7173,-0.7399,-0.7326,-0.7253,-0.7249,-0.7169,-0.7246,-0.748,-0.794,-0.8475,-0.8551,-0.8627,-0.8703,-2.0569,-2.0606,-2.0996,-2.1172,-2.117,-2.159,-2.182,-2.19,-2.1909,-2.1624,-2.1239,-2.1141,-2.0512,-1.9322,-1.868,-1.8048,-1.7109,-1.6551,-1.6001,-1.5749,-1.5395,-1.5037,-1.4836,-1.4613,-1.4614,-1.4734,-1.4915,-1.509,-1.509,-1.5264,-1.5173,-1.4831,-1.4405,-1.4146,-1.4139,-1.3789,-1.3197,-1.2942,-1.1997,-1.2003,-1.2095,-1.1746,-1.1316,-1.1063,-1.0977,-1.1063,-1.089,-1.123,-1.1918,-1.2003,-1.2334,-1.2717,-1.2536,-1.2308,-1.208,-1.1834,-1.1564,-1.1377,-1.1259,-1.0812,-1.1111,-1.126,-1.1335,-1.1632,-1.2077,-1.2445,-1.2746,-1.3046,-1.3273,-1.2813,-1.2137,-1.1774,-1.1025,-1.0051,-0.9301,-0.8775,-0.8241,-0.771,-0.7557,-0.7557,-0.748,-0.748,-0.748,-0.748,-0.748,-0.748,-0.748,-0.748,-0.748,-0.748,-0.748,-0.7403,-0.7403,-0.7403,-0.7249,-0.7019,-0.7019,-0.7019,-0.663,-0.6089,-0.624,-0.6395,-0.6475,-0.6556,-0.6788,-0.6942,-0.6633,-0.6556,-0.6633,-0.6865,-0.7326,-0.7787,-0.8322,-0.8475,-0.8475,-2.0557,-2.0623,-2.1021,-2.1117,-2.1259,-2.1736,-2.2073,-2.218,-2.2296,-2.2208,-2.2031,-2.1961,-2.1239,-2.0628,-1.9985,-1.8948,-1.7849,-1.7022,-1.6368,-1.5807,-1.5446,-1.5113,-1.4944,-1.4762,-1.4824,-1.4824,-1.4999,-1.5173,-1.5173,-1.509,-1.4741,-1.4314,-1.3964,-1.3535,-1.3021,-1.2851,-1.2339,-1.1912,-1.1826,-1.1746,-1.1574,-1.0895,-1.089,-1.089,-1.1063,-1.1235,-1.1408,-1.2003,-1.2425,-1.2681,-1.2851,-1.262,-1.2338,-1.2159,-1.1899,-1.1611,-1.1286,-1.1012,-1.0691,-1.0133,-0.9916,-1.0212,-1.1186,-1.1409,-1.1706,-1.215,-1.2452,-1.2599,-1.2746,-1.2372,-1.1922,-1.1248,-1.0651,-0.975,-0.8851,-0.8246,-0.7787,-0.7557,-0.7557,-0.748,-0.748,-0.748,-0.748,-0.748,-0.748,-0.748,-0.748,-0.748,-0.748,-0.748,-0.7403,-0.7096,-0.7173,-0.7249,-0.7019,-0.6475,-0.6321,-0.6163,-0.5544,-0.5157,-0.5386,-0.5696,-0.5702,-0.5938,-0.6479,-0.6556,-0.6096,-0.5941,-0.5938,-0.6247,-0.6633,-0.7092,-0.7553,-0.7936,-0.8089,-2.0131,-2.0169,-2.0576,-2.0756,-2.0841,-2.1427,-2.1693,-2.1652,-2.1689,-2.1521,-2.115,-2.1159,-2.0613,-1.9438,-1.9155,-1.8386,-1.7493,-1.675,-1.625,-1.5778,-1.5426,-1.5218,-1.5034,-1.4999,-1.5082,-1.5173,-1.5264,-1.5257,-1.5082,-1.4915,-1.4398,-1.4139,-1.3366,-1.2595,-1.2254,-1.2339,-1.1997,-1.1826,-1.1826,-1.1655,-1.1655,-1.1488,-1.1402,-1.1322,-1.1413,-1.1494,-1.158,-1.1752,-1.1912,-1.1918,-1.1574,-1.1257,-1.1155,-1.0787,-1.0444,-1.0206,-0.9903,-0.96,-0.9534,-0.9249,-0.9084,-0.9311,-1.0137,-1.0738,-1.1111,-1.1558,-1.2003,-1.215,-1.2003,-1.1626,-1.1025,-1.0426,-0.9755,-0.9003,-0.825,-0.794,-0.7561,-0.748,-0.748,-0.748,-0.748,-0.748,-0.748,-0.748,-0.748,-0.748,-0.748,-0.7403,-0.7326,-0.7326,-0.7173,-0.6861,-0.6553,-0.6553,-0.6012,-0.547,-0.5389,-0.5234,-0.4691,-0.438,-0.4846,-0.5004,-0.5007,-0.524,-0.5705,-0.5631,-0.5326,-0.5323,-0.5479,-0.5631,-0.5941,-0.6402,-0.6784,-0.7246,-0.7706,-2.0167,-2.0205,-2.0445,-2.0639,-2.0697,-2.1009,-2.1154,-2.1155,-2.1542,-2.1216,-2.0184,-2.0183,-1.9592,-1.8771,-1.8692,-1.8164,-1.6941,-1.6639,-1.6148,-1.5756,-1.5408,-1.5314,-1.518,-1.5264,-1.5257,-1.5347,-1.5347,-1.5166,-1.4734,-1.3964,-1.3457,-1.2857,-1.2339,-1.166,-1.1149,-1.123,-1.1483,-1.1569,-1.174,-1.1918,-1.1826,-1.174,-1.1488,-1.158,-1.1499,-1.1413,-1.1413,-1.1408,-1.1494,-1.1322,-1.0982,-1.0804,-1.0626,-1.0279,-0.9933,-0.9704,-0.9437,-0.9284,-0.9154,-0.8889,-0.8737,-0.8856,-0.9387,-1.0062,-1.0588,-1.1043,-1.1409,-1.1632,-1.1254,-1.0807,-1.0132,-0.9453,-0.878,-0.8106,-0.7872,-0.7638,-0.7561,-0.748,-0.748,-0.748,-0.748,-0.748,-0.748,-0.748,-0.748,-0.7403,-0.7096,-0.6784,-0.6784,-0.6784,-0.6707,-0.6475,-0.6009,-0.5622,-0.5079,-0.4613,-0.4533,-0.4377,-0.3992,-0.3915,-0.4304,-0.4462,-0.4462,-0.4621,-0.4779,-0.4859,-0.5015,-0.5018,-0.5174,-0.5249,-0.5476,-0.6015,-0.6479,-0.6861,-0.7322,-2.0566,-2.0566,-2.0576,-2.0605,-2.0576,-2.0625,-2.0643,-2.0703,-2.1613,-2.0997,-1.9466,-1.8986,-1.8483,-1.7979,-1.8076,-1.7652,-1.6825,-1.636,-1.6082,-1.5877,-1.5493,-1.5347,-1.5347,-1.5431,-1.5347,-1.5347,-1.5173,-1.465,-1.388,-1.3112,-1.2174,-1.1322,-1.1241,-1.0901,-1.0381,-1.0381,-1.0549,-1.0636,-1.089,-1.0977,-1.0467,-1.0207,-1.0207,-1.0722,-1.0895,-1.1068,-1.1494,-1.1666,-1.1843,-1.158,-1.1322,-1.1149,-1.0636,-1.0289,-1.0,-0.9752,-0.9518,-0.9252,-0.9058,-0.8855,-0.8737,-0.8932,-0.9382,-0.9609,-0.9911,-1.0443,-1.0812,-1.0807,-1.0507,-1.0132,-0.9528,-0.9231,-0.8632,-0.8178,-0.7876,-0.7638,-0.7557,-0.748,-0.748,-0.748,-0.748,-0.748,-0.748,-0.748,-0.7249,-0.7173,-0.6861,-0.6475,-0.6009,-0.6009,-0.5851,-0.5774,-0.5309,-0.4766,-0.43,-0.3912,-0.3754,-0.3521,-0.3292,-0.3372,-0.3761,-0.3917,-0.3995,-0.4309,-0.4621,-0.4779,-0.4859,-0.494,-0.5018,-0.5012,-0.5321,-0.5786,-0.6247,-0.6707,-0.7169,-2.0576,-2.0576,-2.0576,-2.0576,-2.0576,-2.0576,-2.0615,-2.0635,-2.0876,-2.0017,-1.8159,-1.7023,-1.6638,-1.7024,-1.7138,-1.6773,-1.6308,-1.6155,-1.5848,-1.5665,-1.5452,-1.5431,-1.5431,-1.5431,-1.5431,-1.5173,-1.4741,-1.3964,-1.3021,-1.2174,-1.158,-1.1235,-1.0809,-1.0212,-1.0038,-1.0038,-1.0038,-1.0038,-1.0207,-1.0467,-1.0207,-1.0381,-1.0641,-1.1068,-1.1413,-1.1757,-1.2186,-1.2357,-1.2443,-1.2357,-1.2015,-1.1413,-1.0636,-1.0554,-1.0269,-0.9995,-0.9849,-0.9557,-0.9213,-0.8902,-0.8732,-0.8703,-0.8932,-0.8932,-0.9236,-0.9841,-1.0067,-0.9986,-0.976,-0.9382,-0.9079,-0.8856,-0.8632,-0.8255,-0.7953,-0.7718,-0.7557,-0.748,-0.748,-0.748,-0.748,-0.748,-0.748,-0.7326,-0.7096,-0.6784,-0.6475,-0.6009,-0.5231,-0.4921,-0.4533,-0.4453,-0.4375,-0.3908,-0.3522,-0.3288,-0.321,-0.3054,-0.2901,-0.3059,-0.3217,-0.3606,-0.3919,-0.4229,-0.4462,-0.4623,-0.4781,-0.494,-0.4937,-0.4857,-0.5321,-0.586,-0.6398,-0.6934,-0.7395,-2.0576,-2.0576,-2.0576,-2.0576,-2.0576,-2.0576,-2.0576,-2.0605,-2.0624,-1.982,-1.822,-1.6492,-1.5691,-1.6191,-1.6294,-1.6184,-1.5935,-1.5928,-1.5738,-1.5526,-1.5431,-1.5431,-1.5431,-1.5431,-1.5431,-1.5173,-1.3964,-1.3021,-1.2169,-1.1235,-1.0727,-1.0722,-1.0207,-1.0038,-1.0038,-1.0038,-1.0038,-1.0038,-1.0125,-1.0299,-1.0294,-1.0554,-1.0982,-1.1499,-1.1929,-1.2272,-1.2528,-1.2705,-1.2699,-1.2443,-1.2015,-1.1585,-1.0982,-1.0722,-1.0494,-1.0169,-1.001,-0.9766,-0.9293,-0.8935,-0.8713,-0.8703,-0.8703,-0.878,-0.8775,-0.9306,-0.9306,-0.9231,-0.9231,-0.8856,-0.8856,-0.8703,-0.8479,-0.8178,-0.803,-0.7872,-0.7638,-0.748,-0.748,-0.748,-0.748,-0.748,-0.748,-0.748,-0.7092,-0.6395,-0.6086,-0.5309,-0.4533,-0.399,-0.3522,-0.3366,-0.3365,-0.3287,-0.2978,-0.2821,-0.2743,-0.2588,-0.2588,-0.2902,-0.3217,-0.3528,-0.3919,-0.4075,-0.4309,-0.4621,-0.4779,-0.4781,-0.4701,-0.4543,-0.5237,-0.6089,-0.6626,-0.7161,-0.7778,-2.0576,-2.0576,-2.0576,-2.0576,-2.0576,-2.0576,-2.0576,-2.0596,-2.0595,-2.0093,-1.9056,-1.6932,-1.6094,-1.6063,-1.6089,-1.5994,-1.5899,-1.5782,-1.5599,-1.5504,-1.5438,-1.5431,-1.5431,-1.5431,-1.5264,-1.4741,-1.3789,-1.2595,-1.1488,-1.0809,-1.0467,-1.012,-1.0038,-1.0038,-1.0038,-1.0038,-1.0038,-1.0294,-1.0467,-1.0641,-1.0722,-1.0809,-1.1322,-1.1757,-1.2106,-1.2277,-1.2619,-1.2705,-1.2705,-1.2443,-1.2015,-1.1671,-1.1327,-1.1058,-1.0585,-1.0353,-1.0048,-0.9651,-0.9132,-0.8845,-0.8741,-0.8703,-0.8703,-0.8703,-0.8699,-0.8699,-0.8775,-0.8703,-0.8703,-0.8703,-0.8703,-0.8627,-0.8403,-0.8178,-0.8025,-0.7872,-0.7714,-0.748,-0.748,-0.748,-0.748,-0.748,-0.748,-0.748,-0.6861,-0.6163,-0.5386,-0.4533,-0.3834,-0.3444,-0.2978,-0.2899,-0.2899,-0.2665,-0.251,-0.251,-0.251,-0.251,-0.2588,-0.2824,-0.3061,-0.3374,-0.3606,-0.3841,-0.4075,-0.4387,-0.4465,-0.4545,-0.4387,-0.4307,-0.5312,-0.6163,-0.6549,-0.7242,-0.8165,-2.0576,-2.0576,-2.0576,-2.0576,-2.0576,-2.0576,-2.0576,-2.0566,-2.0528,-2.0117,-1.9143,-1.8621,-1.7716,-1.648,-1.5807,-1.557,-1.5635,-1.5577,-1.554,-1.5438,-1.5431,-1.5431,-1.5431,-1.5347,-1.4999,-1.4391,-1.3795,-1.2857,-1.158,-1.1063,-1.0636,-1.0033,-1.0038,-1.012,-1.0381,-1.0381,-1.0294,-1.0641,-1.0809,-1.0982,-1.1585,-1.1671,-1.1757,-1.21,-1.2363,-1.2534,-1.2705,-1.2705,-1.2705,-1.2534,-1.2192,-1.1929,-1.174,-1.1364,-1.0889,-1.0434,-1.0208,-0.9672,-0.9135,-0.8803,-0.8718,-0.8703,-0.8703,-0.8703,-0.8703,-0.8703,-0.8703,-0.8703,-0.8703,-0.8703,-0.8703,-0.8627,-0.8475,-0.8102,-0.7872,-0.7714,-0.7557,-0.748,-0.748,-0.748,-0.748,-0.748,-0.7484,-0.7096,-0.624,-0.5464,-0.4686,-0.391,-0.321,-0.2821,-0.251,-0.251,-0.251,-0.251,-0.251,-0.251,-0.251,-0.251,-0.2588,-0.2668,-0.2824,-0.2982,-0.3295,-0.353,-0.3841,-0.4075,-0.4153,-0.4153,-0.4075,-0.4151,-0.5389,-0.624,-0.6626,-0.7165,-0.8089]},{"header":{"parameterUnit":"m.s-1","parameterCategory":1,"la1":31.0,"la2":29.5877,"lo1":-88.7671,"lo2":-86.6584,"dy":0.0162,"dx":0.0185,"nx":115,"ny":88,"refTime":"2023-07-30T18:00:00:Z","depth":0,"parameterNumber":3,"parameterNumberName":"V-component_of_WINDS"},"data":[0.0,0.0,0.0,0.0,0.0,0.0,0.0,0.0,0.0,0.0,0.0,0.0,0.0,0.0,0.0,0.0,0.0,0.0,0.0,0.0,0.0,0.0,0.0,0.0,0.0,0.0,0.0,0.0,0.0,0.0,0.0,0.0,0.0,0.0,0.0,0.0,0.0,0.0,0.0,0.0,0.0,0.0,0.0,0.0,0.0,0.0,0.0,0.0,0.0,0.0,0.0,0.0,0.0,0.0,0.0,0.0,0.0,0.0,0.0,0.0,0.0,0.0,0.0,0.0,0.0,0.0,0.0,0.0,0.0,0.0,0.0,0.0,0.0,0.0,0.0,0.0,0.0,0.0,0.0,0.0,0.0,0.0,0.0,0.0,0.0,0.0,0.0,0.0,0.0,0.0,0.0,0.0,0.0,0.0,0.0,0.0,0.0,0.0,0.0,0.0,0.0,0.0,0.0,0.0,0.0,0.0,0.0,0.0,0.0,0.0,0.0,0.0,0.0,0.0,0.0,0.0,0.0,0.0,0.0,0.0,0.0,0.0,0.0,0.0,0.0,0.0,0.0,0.0,0.0,0.0,0.0,0.0,0.0,0.0,0.0,0.0,0.0,0.0,0.0,0.0,0.0,0.0,0.0,0.0,0.0,0.0,0.0,0.0,0.0,0.0,0.0,0.0,0.0,0.0,0.0,0.0,0.0,0.0,0.0,0.0,0.0,0.0,0.0,0.0,0.0,0.0,0.0,0.0,0.0,0.0,0.0,0.0,0.0,0.0,0.0,0.0,0.0,0.0,0.0,0.0,0.0,0.0,0.0,0.0,0.0,0.0,0.0,0.0,0.0,0.0,0.0,0.0,0.0,0.0,0.0,0.0,0.0,0.0,0.0,0.0,0.0,0.0,0.0,0.0,0.0,0.0,0.0,0.0,0.0,0.0,0.0,0.0,0.0,0.0,0.0,0.0,0.0,0.0,0.0,0.0,0.0,0.0,0.0,0.0,0.0,0.0,0.0,0.0,0.0,0.0,0.0,0.0,0.0,0.0,0.0,0.0,0.0,0.0,0.0,0.0,0.0,0.0,0.0,0.0,0.0,0.0,0.0,0.0,0.0,0.0,0.0,0.0,0.0,0.0,0.0,0.0,0.0,0.0,0.0,0.0,0.0,0.0,0.0,0.0,0.0,0.0,0.0,0.0,0.0,0.0,0.0,0.0,0.0,0.0,0.0,0.0,0.0,0.0,0.0,0.0,0.0,0.0,0.0,0.0,0.0,0.0,0.0,0.0,0.0,0.0,0.0,0.0,0.0,0.0,0.0,0.0,0.0,0.0,0.0,0.0,0.0,0.0,0.0,0.0,0.0,0.0,0.0,0.0,0.0,0.0,0.0,0.0,0.0,0.0,0.0,0.0,0.0,0.0,0.0,0.0,0.0,0.0,0.0,0.0,0.0,0.0,0.0,0.0,0.0,0.0,0.0,0.0,0.0,0.0,0.0,0.0,0.0,0.0,0.0,0.0,0.0,0.0,0.0,0.0,0.0,0.0,0.0,0.0,0.0,0.0,0.0,0.0,0.0,0.0,0.0,0.0,0.0,0.0,0.0,0.0,0.0,0.0,0.0,0.0,0.0,0.0,0.0,0.0,0.0,0.0,0.0,0.0,0.0,0.0,0.0,0.0,0.0,0.0,0.0,0.0,0.0,0.0,0.0,0.0,0.0,0.0,0.0,0.0,0.0,0.0,0.0,0.0,0.0,0.0,0.0,0.0,0.0,0.0,0.0,0.0,0.0,0.0,0.0,0.0,0.0,0.0,0.0,0.0,0.0,0.0,0.0,0.0,0.0,0.0,0.0,0.0,0.0,0.0,0.0,0.0,0.0,0.0,0.0,0.0,0.0,0.0,0.0,0.0,0.0,0.0,0.0,0.0,0.0,0.0,0.0,0.0,0.0,0.0,0.0,0.0,0.0,0.0,0.0,0.0,0.0,0.0,0.0,0.0,0.0,0.0,0.0,0.0,0.0,0.0,0.0,0.0,0.0,0.0,0.0,0.0,0.0,0.0,0.0,0.0,0.0,0.0,0.0,0.0,0.0,0.0,0.0,0.0,0.0,0.0,0.0,0.0,0.0,0.0,0.0,0.0,0.0,0.0,0.0,0.0,0.0,0.0,0.0,0.0,0.0,0.0,0.0,0.0,0.0,0.0,0.0,0.0,0.0,0.0,0.0,0.0,0.0,0.0,0.0,0.0,0.0,0.0,0.0,0.0,0.0,0.0,0.0,0.0,0.0,0.0,0.0,0.0,0.0,0.0,0.0,0.0,0.0,0.0,0.0,0.0,0.0,0.0,0.0,0.0,0.0,0.0,0.0,0.0,0.0,0.0,0.0,0.0,0.0,0.0,0.0,0.0,0.0,0.0,0.0,0.0,0.0,0.0,0.0,0.0,0.0,0.0,0.0,0.0,0.0,0.0,0.0,0.0,0.0,0.0,0.0,0.0,0.0,0.0,0.0,0.0,0.0,0.0,0.0,0.0,0.0,0.0,0.0,0.0,0.0,0.0,0.0,0.0,0.0,0.0,0.0,0.0,0.0,0.0,0.0,0.0,0.0,0.0,0.0,0.0,0.0,0.0,0.0,0.0,0.0,0.0,0.0,0.0,0.0,0.0,0.0,0.0,0.0,0.0,0.0,0.0,0.0,0.0,0.0,0.0,0.0,0.0,0.0,0.0,0.0,0.0,0.0,0.0,0.0,0.0,0.0,0.0,0.0,0.0,0.0,0.0,0.0,0.0,0.0,0.0,0.0,0.0,0.0,0.0,0.0,0.0,0.0,0.0,0.0,0.0,0.0,0.0,0.0,0.0,0.0,0.0,0.0,0.0,0.0,0.0,0.0,0.0,0.0,0.0,0.0,0.0,0.0,0.0,0.0,0.0,0.0,0.0,0.0,0.0,0.0,0.0,0.0,0.0,0.0,0.0,0.0,0.0,0.0,0.0,0.0,0.0,0.0,0.0,0.0,0.0,0.0,0.0,0.0,0.0,0.0,0.0,0.0,0.0,0.0,0.0,0.0,0.0,0.0,0.0,0.0,0.0,0.0,0.0,0.0,0.0,0.0,0.0,0.0,0.0,0.0,0.0,0.0,0.0,0.0,0.0,0.0,0.0,0.0,0.0,0.0,0.0,0.0,0.0,0.0,0.0,0.0,0.0,0.0,0.0,0.0,0.0,0.0,0.0,0.0,0.0,0.0,0.0,0.0,0.0,0.0,0.0,0.0,0.0,0.0,0.0,0.0,0.0,0.0,0.0,0.0,0.0,0.0,0.0,0.0,0.0,0.0,0.0,0.0,0.0,0.0,0.0,0.0,0.0,0.0,0.0,0.0,0.0,0.0,0.0,0.0,0.0,0.0,0.0,0.0,0.0,0.0,0.0,0.0,0.0,0.0,0.0,0.0,0.0,0.0,0.0,0.0,0.0,0.0,0.0,0.0,0.0,0.0,0.0,0.0,0.0,0.0,0.0,0.0,0.0,0.0,0.0,0.0,0.0,0.0,0.0,0.0,0.0,0.0,0.0,0.0,0.0,0.0,0.0,0.0,0.0,0.0,0.0,0.0,0.0,0.0,0.0,0.0,0.0,0.0,0.0,0.0,0.0,0.0,0.0,0.0,0.0,0.0,0.0,0.0,0.0,0.0,0.0,0.0,0.0,0.0,0.0,0.0,0.0,0.0,0.0,0.0,0.0,0.0,0.0,0.0,0.0,0.0,0.0,0.0,0.0,0.0,0.0,0.0,0.0,0.0,0.0,0.0,0.0,0.0,0.0,0.0,0.0,0.0,0.0,0.0,0.0,0.0,0.0,0.0,0.0,0.0,0.0,0.0,0.0,0.0,0.0,0.0,0.0,0.0,0.0,0.0,0.0,0.0,0.0,0.0,0.0,0.0,0.0,0.0,0.0,0.0,0.0,0.0,0.0,0.0,0.0,0.0,0.0,0.0,0.0,0.0,0.0,0.0,0.0,0.0,0.0,0.0,0.0,0.0,0.0,0.0,0.0,0.0,0.0,0.0,0.0,0.0,0.0,0.0,0.0,0.0,0.0,0.0,0.0,0.0,0.0,0.0,0.0,0.0,0.0,0.0,0.0,0.0,0.0,0.0,0.0,0.0,0.0,0.0,0.0,0.0,0.0,0.0,0.0,0.0,0.0,0.0,0.0,0.0,0.0,0.0,0.0,0.0,0.0,0.0,0.0,0.0,0.0,0.0,0.0,0.0,0.0,0.0,0.0,0.0,0.0,0.0,0.0,-2.0892,0.0,0.0,0.0,0.0,0.0,0.0,0.0,0.0,0.0,0.0,0.0,0.0,0.0,0.0,0.0,0.0,0.0,0.0,0.0,0.0,0.0,0.0,0.0,0.0,0.0,0.0,0.0,0.0,0.0,0.0,0.0,0.0,0.0,0.0,0.0,0.0,0.0,0.0,0.0,0.0,0.0,0.0,0.0,0.0,0.0,0.0,0.0,0.0,0.0,0.0,0.0,0.0,0.0,0.0,0.0,0.0,0.0,0.0,0.0,0.0,0.0,0.0,0.0,0.0,0.0,0.0,0.0,0.0,0.0,0.0,0.0,0.0,0.0,0.0,0.0,0.0,0.0,0.0,0.0,0.0,0.0,0.0,0.0,0.0,0.0,0.0,0.0,0.0,0.0,0.0,0.0,0.0,0.0,0.0,0.0,0.0,0.0,0.0,0.0,0.0,0.0,0.0,0.0,0.0,0.0,0.0,0.0,0.0,0.0,0.0,-2.437,-2.3515,-2.2567,-2.1559,-2.0527,0.0,0.0,0.0,0.0,0.0,0.0,0.0,0.0,0.0,0.0,0.0,0.0,0.0,0.0,0.0,0.0,0.0,0.0,0.0,0.0,0.0,0.0,0.0,0.0,0.0,0.0,0.0,0.0,0.0,0.0,0.0,0.0,0.0,0.0,0.0,0.0,0.0,0.0,0.0,0.0,0.0,0.0,0.0,0.0,0.0,0.0,0.0,0.0,0.0,0.0,0.0,0.0,0.0,0.0,0.0,0.0,0.0,0.0,0.0,0.0,0.0,0.0,0.0,0.0,0.0,0.0,0.0,0.0,0.0,0.0,0.0,0.0,0.0,0.0,0.0,0.0,0.0,0.0,0.0,0.0,0.0,0.0,0.0,0.0,0.0,0.0,0.0,0.0,0.0,0.0,0.0,0.0,0.0,0.0,0.0,0.0,0.0,0.0,0.0,0.0,0.0,0.0,0.0,0.0,0.0,0.0,0.0,0.0,0.0,0.0,0.0,0.0,-2.2675,-2.165,-2.0426,0.0,0.0,0.0,0.0,0.0,0.0,0.0,0.0,0.0,0.0,0.0,0.0,0.0,0.0,0.0,0.0,0.0,0.0,0.0,0.0,0.0,0.0,0.0,0.0,0.0,0.0,0.0,0.0,0.0,0.0,0.0,0.0,0.0,0.0,0.0,0.0,0.0,0.0,0.0,0.0,0.0,0.0,0.0,0.0,0.0,0.0,0.0,0.0,0.0,0.0,0.0,0.0,0.0,0.0,0.0,0.0,0.0,0.0,0.0,0.0,0.0,0.0,0.0,0.0,0.0,0.0,0.0,0.0,0.0,0.0,0.0,0.0,0.0,0.0,0.0,0.0,0.0,0.0,0.0,0.0,0.0,0.0,0.0,0.0,0.0,0.0,0.0,0.0,0.0,0.0,0.0,0.0,0.0,0.0,0.0,0.0,0.0,0.0,0.0,0.0,0.0,0.0,0.0,0.0,0.0,0.0,0.0,0.0,0.0,0.0,-2.4344,-2.3167,-2.2291,0.0,-2.0922,0.0,0.0,0.0,0.0,0.0,0.0,0.0,0.0,0.0,0.0,0.0,0.0,0.0,0.0,0.0,0.0,0.0,0.0,0.0,0.0,0.0,0.0,0.0,0.0,0.0,0.0,0.0,0.0,0.0,0.0,0.0,0.0,0.0,0.0,0.0,0.0,0.0,0.0,0.0,0.0,0.0,0.0,0.0,0.0,0.0,0.0,0.0,0.0,0.0,0.0,0.0,0.0,0.0,0.0,0.0,0.0,0.0,0.0,0.0,0.0,0.0,0.0,0.0,0.0,0.0,0.0,0.0,0.0,0.0,0.0,0.0,0.0,0.0,0.0,0.0,0.0,0.0,0.0,0.0,0.0,0.0,0.0,0.0,0.0,0.0,0.0,0.0,0.0,0.0,0.0,0.0,0.0,0.0,0.0,0.0,0.0,0.0,0.0,0.0,0.0,0.0,0.0,0.0,0.0,0.0,0.0,0.0,0.0,0.0,0.0,-2.4369,-2.2864,-2.1449,-2.0808,0.0,0.0,0.0,0.0,0.0,0.0,0.0,0.0,0.0,0.0,0.0,0.0,0.0,0.0,0.0,0.0,0.0,0.0,0.0,0.0,0.0,0.0,0.0,0.0,0.0,0.0,0.0,0.0,0.0,0.0,0.0,0.0,0.0,0.0,0.0,0.0,0.0,0.0,0.0,0.0,0.0,0.0,0.0,0.0,0.0,0.0,0.0,0.0,0.0,0.0,0.0,0.0,0.0,0.0,0.0,0.0,0.0,0.0,0.0,0.0,0.0,0.0,0.0,0.0,0.0,0.0,0.0,0.0,0.0,0.0,0.0,0.0,0.0,0.0,0.0,0.0,0.0,0.0,0.0,0.0,0.0,0.0,0.0,0.0,0.0,0.0,0.0,0.0,0.0,0.0,0.0,0.0,0.0,0.0,0.0,0.0,0.0,0.0,0.0,0.0,0.0,0.0,0.0,0.0,0.0,0.0,0.0,0.0,0.0,0.0,-2.523,-2.42,-2.2512,-2.1147,-2.0578,-2.0909,0.0,0.0,0.0,0.0,0.0,0.0,0.0,0.0,0.0,0.0,0.0,0.0,0.0,0.0,0.0,0.0,0.0,0.0,0.0,0.0,0.0,0.0,0.0,0.0,0.0,0.0,0.0,0.0,0.0,0.0,0.0,0.0,0.0,0.0,0.0,0.0,0.0,0.0,0.0,0.0,0.0,0.0,0.0,0.0,0.0,0.0,0.0,0.0,0.0,0.0,0.0,0.0,0.0,0.0,0.0,0.0,0.0,0.0,0.0,0.0,0.0,0.0,0.0,0.0,0.0,0.0,0.0,0.0,0.0,0.0,0.0,0.0,0.0,0.0,0.0,0.0,0.0,0.0,0.0,0.0,0.0,0.0,0.0,0.0,0.0,0.0,0.0,0.0,0.0,0.0,0.0,0.0,0.0,0.0,0.0,0.0,0.0,0.0,0.0,0.0,0.0,0.0,0.0,0.0,0.0,0.0,0.0,0.0,-2.5368,-2.4879,-2.3801,-2.2202,-2.1688,-2.1214,0.0,0.0,0.0,0.0,0.0,0.0,0.0,0.0,0.0,0.0,0.0,0.0,0.0,0.0,0.0,0.0,0.0,0.0,0.0,0.0,0.0,0.0,0.0,0.0,0.0,0.0,0.0,0.0,0.0,0.0,0.0,0.0,0.0,0.0,0.0,0.0,0.0,0.0,0.0,0.0,0.0,0.0,0.0,0.0,0.0,0.0,0.0,0.0,0.0,0.0,0.0,0.0,0.0,0.0,0.0,0.0,0.0,0.0,0.0,0.0,0.0,0.0,0.0,0.0,0.0,0.0,0.0,0.0,0.0,0.0,0.0,0.0,0.0,0.0,0.0,0.0,0.0,0.0,0.0,0.0,0.0,0.0,0.0,0.0,0.0,0.0,0.0,0.0,0.0,0.0,0.0,0.0,0.0,0.0,0.0,0.0,0.0,0.0,0.0,0.0,0.0,0.0,0.0,0.0,0.0,0.0,0.0,0.0,0.0,-2.4981,-2.4193,-2.3465,-2.2878,-2.1892,-2.1377,0.0,0.0,0.0,0.0,0.0,0.0,0.0,0.0,0.0,0.0,0.0,0.0,0.0,0.0,0.0,0.0,0.0,0.0,0.0,0.0,0.0,0.0,0.0,0.0,0.0,0.0,0.0,0.0,0.0,0.0,0.0,0.0,0.0,0.0,0.0,0.0,0.0,0.0,0.0,0.0,0.0,0.0,0.0,0.0,0.0,0.0,0.0,0.0,0.0,0.0,0.0,0.0,0.0,0.0,0.0,0.0,0.0,0.0,0.0,0.0,0.0,0.0,0.0,0.0,0.0,0.0,0.0,0.0,0.0,0.0,0.0,0.0,0.0,0.0,0.0,0.0,0.0,0.0,0.0,0.0,0.0,0.0,0.0,0.0,0.0,0.0,0.0,0.0,0.0,0.0,0.0,0.0,0.0,0.0,0.0,0.0,0.0,0.0,0.0,0.0,0.0,0.0,0.0,0.0,0.0,0.0,0.0,0.0,0.0,-2.4599,0.0,-2.3533,-2.3271,-2.2409,-2.1864,0.0,0.0,0.0,0.0,0.0,0.0,0.0,0.0,0.0,0.0,0.0,0.0,0.0,0.0,0.0,0.0,0.0,0.0,0.0,0.0,0.0,0.0,0.0,0.0,0.0,0.0,0.0,0.0,0.0,0.0,0.0,0.0,0.0,0.0,0.0,0.0,0.0,0.0,0.0,0.0,0.0,0.0,0.0,0.0,0.0,0.0,0.0,0.0,0.0,0.0,0.0,0.0,0.0,0.0,0.0,0.0,0.0,0.0,0.0,0.0,0.0,0.0,0.0,0.0,0.0,0.0,0.0,0.0,0.0,0.0,0.0,0.0,0.0,0.0,0.0,0.0,0.0,0.0,0.0,0.0,0.0,0.0,0.0,0.0,0.0,0.0,0.0,0.0,0.0,0.0,0.0,0.0,0.0,0.0,0.0,0.0,0.0,0.0,0.0,0.0,0.0,0.0,0.0,0.0,0.0,0.0,0.0,0.0,-2.425,-2.4302,-2.4287,-2.3963,-2.3332,-2.3255,-2.2655,0.0,0.0,0.0,0.0,0.0,0.0,0.0,0.0,0.0,0.0,0.0,0.0,0.0,0.0,0.0,0.0,0.0,0.0,0.0,0.0,0.0,0.0,0.0,0.0,0.0,0.0,0.0,0.0,0.0,0.0,0.0,0.0,0.0,0.0,0.0,0.0,0.0,0.0,0.0,0.0,0.0,0.0,0.0,0.0,0.0,0.0,0.0,0.0,0.0,0.0,0.0,0.0,0.0,0.0,0.0,0.0,0.0,0.0,0.0,0.0,0.0,0.0,0.0,0.0,0.0,0.0,0.0,0.0,0.0,0.0,0.0,0.0,0.0,0.0,0.0,0.0,0.0,0.0,0.0,0.0,0.0,0.0,0.0,0.0,0.0,0.0,0.0,0.0,0.0,0.0,0.0,0.0,0.0,0.0,0.0,0.0,0.0,0.0,0.0,0.0,0.0,0.0,0.0,0.0,0.0,0.0,0.0,0.0,0.0,-2.4302,-2.4302,-2.4194,-2.3994,-2.3548,-2.3102,0.0,0.0,0.0,0.0,0.0,0.0,0.0,0.0,0.0,0.0,0.0,0.0,0.0,0.0,0.0,0.0,0.0,0.0,0.0,0.0,0.0,0.0,0.0,0.0,0.0,0.0,0.0,0.0,0.0,0.0,0.0,0.0,0.0,0.0,0.0,0.0,0.0,0.0,0.0,0.0,0.0,0.0,0.0,0.0,0.0,0.0,0.0,0.0,0.0,0.0,0.0,0.0,0.0,0.0,0.0,0.0,0.0,0.0,0.0,0.0,0.0,0.0,0.0,0.0,0.0,0.0,0.0,0.0,0.0,0.0,0.0,0.0,0.0,0.0,0.0,0.0,0.0,0.0,0.0,0.0,0.0,0.0,0.0,0.0,0.0,0.0,0.0,0.0,0.0,0.0,0.0,0.0,0.0,0.0,0.0,0.0,0.0,0.0,0.0,0.0,0.0,0.0,0.0,0.0,0.0,0.0,0.0,0.0,0.0,-2.5326,-2.5284,-2.5242,-2.5242,-2.4891,-2.4315,-2.342,0.0,0.0,0.0,0.0,0.0,0.0,0.0,0.0,0.0,0.0,0.0,0.0,0.0,0.0,0.0,0.0,0.0,0.0,0.0,0.0,0.0,0.0,0.0,0.0,0.0,0.0,0.0,0.0,0.0,0.0,0.0,0.0,0.0,0.0,0.0,0.0,0.0,0.0,0.0,0.0,0.0,0.0,0.0,0.0,0.0,0.0,0.0,0.0,0.0,0.0,0.0,0.0,0.0,0.0,0.0,0.0,0.0,0.0,0.0,0.0,0.0,0.0,0.0,0.0,0.0,0.0,0.0,0.0,0.0,0.0,0.0,0.0,0.0,0.0,0.0,0.0,0.0,0.0,0.0,0.0,0.0,0.0,0.0,0.0,0.0,0.0,0.0,0.0,0.0,0.0,0.0,0.0,0.0,0.0,0.0,0.0,0.0,0.0,0.0,0.0,0.0,0.0,0.0,0.0,0.0,0.0,0.0,0.0,-2.7221,-2.7111,-2.7039,-2.6961,-2.7024,-2.6078,0.0,0.0,0.0,0.0,0.0,0.0,0.0,0.0,0.0,0.0,0.0,0.0,0.0,0.0,0.0,0.0,0.0,0.0,0.0,0.0,0.0,0.0,0.0,0.0,0.0,0.0,0.0,0.0,0.0,0.0,0.0,0.0,0.0,0.0,0.0,0.0,0.0,0.0,0.0,0.0,0.0,0.0,0.0,0.0,0.0,0.0,0.0,0.0,0.0,0.0,0.0,0.0,0.0,0.0,0.0,0.0,0.0,0.0,0.0,0.0,0.0,0.0,0.0,0.0,0.0,0.0,0.0,0.0,0.0,0.0,0.0,0.0,0.0,0.0,0.0,0.0,0.0,0.0,0.0,0.0,0.0,0.0,0.0,0.0,0.0,0.0,0.0,0.0,0.0,0.0,0.0,0.0,0.0,0.0,0.0,0.0,0.0,0.0,0.0,0.0,0.0,0.0,0.0,0.0,0.0,0.0,0.0,0.0,0.0,-2.8822,-2.9858,-2.9798,-2.86,-2.7632,-2.6799,0.0,0.0,0.0,0.0,0.0,0.0,0.0,0.0,0.0,0.0,0.0,0.0,0.0,0.0,0.0,0.0,0.0,0.0,0.0,0.0,0.0,0.0,0.0,0.0,0.0,0.0,0.0,0.0,0.0,0.0,0.0,0.0,0.0,0.0,0.0,0.0,0.0,0.0,0.0,0.0,0.0,0.0,0.0,0.0,0.0,0.0,0.0,0.0,0.0,0.0,0.0,0.0,0.0,0.0,0.0,0.0,0.0,0.0,0.0,0.0,0.0,0.0,0.0,0.0,0.0,0.0,0.0,0.0,0.0,0.0,0.0,0.0,0.0,0.0,0.0,0.0,0.0,0.0,0.0,0.0,0.0,0.0,0.0,0.0,0.0,0.0,0.0,0.0,0.0,0.0,0.0,0.0,0.0,0.0,0.0,0.0,0.0,0.0,0.0,0.0,0.0,0.0,0.0,0.0,0.0,0.0,0.0,0.0,-2.8626,-2.9665,-3.1645,-3.224,-3.1278,-2.931,-2.7939,0.0,0.0,0.0,0.0,0.0,0.0,0.0,0.0,0.0,0.0,0.0,0.0,0.0,0.0,0.0,0.0,0.0,0.0,0.0,0.0,0.0,0.0,0.0,0.0,0.0,0.0,0.0,0.0,0.0,0.0,0.0,0.0,0.0,0.0,0.0,0.0,0.0,0.0,0.0,0.0,0.0,0.0,0.0,0.0,0.0,0.0,0.0,0.0,0.0,0.0,0.0,0.0,0.0,0.0,0.0,0.0,0.0,0.0,0.0,0.0,0.0,0.0,0.0,0.0,0.0,0.0,0.0,0.0,0.0,0.0,0.0,0.0,0.0,0.0,0.0,0.0,0.0,0.0,0.0,0.0,0.0,0.0,0.0,0.0,0.0,0.0,0.0,0.0,0.0,0.0,0.0,0.0,0.0,0.0,0.0,0.0,0.0,0.0,0.0,0.0,0.0,0.0,0.0,0.0,0.0,0.0,0.0,0.0,-2.9746,-3.0178,-3.2708,-3.4084,-3.407,-3.1329,-2.9135,0.0,0.0,0.0,0.0,0.0,0.0,0.0,0.0,0.0,0.0,0.0,0.0,0.0,0.0,0.0,0.0,0.0,0.0,0.0,0.0,0.0,0.0,0.0,0.0,0.0,0.0,0.0,0.0,0.0,0.0,0.0,0.0,0.0,0.0,0.0,0.0,0.0,0.0,0.0,0.0,0.0,0.0,0.0,0.0,0.0,0.0,0.0,0.0,0.0,0.0,0.0,0.0,0.0,0.0,0.0,0.0,0.0,0.0,0.0,0.0,0.0,0.0,0.0,0.0,0.0,0.0,0.0,0.0,0.0,0.0,0.0,0.0,0.0,0.0,0.0,0.0,0.0,0.0,0.0,0.0,0.0,0.0,0.0,0.0,0.0,0.0,0.0,0.0,0.0,0.0,0.0,0.0,0.0,0.0,0.0,0.0,0.0,0.0,0.0,0.0,0.0,0.0,0.0,0.0,0.0,0.0,0.0,0.0,-3.038,-3.1558,-3.3226,-3.425,-3.4529,-3.0977,-2.913,0.0,0.0,0.0,0.0,0.0,0.0,0.0,0.0,0.0,0.0,0.0,0.0,0.0,0.0,0.0,0.0,0.0,0.0,0.0,0.0,0.0,0.0,0.0,0.0,0.0,0.0,0.0,0.0,0.0,0.0,0.0,0.0,0.0,0.0,0.0,0.0,0.0,0.0,0.0,0.0,0.0,0.0,0.0,0.0,0.0,0.0,0.0,0.0,-2.4052,0.0,0.0,0.0,0.0,0.0,0.0,0.0,0.0,0.0,0.0,0.0,0.0,0.0,0.0,0.0,0.0,0.0,0.0,0.0,0.0,0.0,0.0,0.0,0.0,0.0,0.0,0.0,0.0,0.0,0.0,0.0,0.0,0.0,0.0,0.0,0.0,0.0,0.0,0.0,0.0,0.0,0.0,0.0,0.0,0.0,0.0,0.0,0.0,0.0,0.0,0.0,0.0,0.0,0.0,0.0,0.0,0.0,0.0,0.0,-3.0571,-3.1979,-3.3372,-3.4201,-3.4284,-3.1602,-3.0097,0.0,0.0,0.0,0.0,0.0,0.0,0.0,0.0,0.0,0.0,0.0,0.0,0.0,0.0,0.0,0.0,0.0,0.0,0.0,0.0,0.0,0.0,0.0,0.0,0.0,0.0,0.0,0.0,0.0,0.0,0.0,0.0,0.0,0.0,0.0,0.0,0.0,0.0,0.0,0.0,0.0,0.0,0.0,0.0,0.0,0.0,0.0,0.0,0.0,0.0,0.0,0.0,0.0,0.0,0.0,0.0,0.0,0.0,0.0,0.0,0.0,0.0,0.0,0.0,0.0,0.0,0.0,0.0,0.0,0.0,0.0,0.0,0.0,0.0,0.0,0.0,0.0,0.0,0.0,0.0,0.0,0.0,0.0,0.0,0.0,0.0,0.0,0.0,0.0,0.0,0.0,0.0,0.0,0.0,0.0,0.0,0.0,0.0,0.0,0.0,0.0,0.0,0.0,0.0,0.0,0.0,0.0,-2.9286,-3.0668,-3.2287,-3.3485,-3.4134,-3.4168,-3.243,-3.1104,-3.0245,0.0,0.0,0.0,0.0,0.0,0.0,0.0,0.0,0.0,0.0,0.0,0.0,0.0,0.0,0.0,0.0,0.0,0.0,0.0,0.0,0.0,0.0,0.0,0.0,0.0,0.0,0.0,0.0,0.0,0.0,0.0,0.0,0.0,0.0,0.0,0.0,0.0,0.0,-2.3039,-2.277,0.0,0.0,0.0,0.0,0.0,0.0,0.0,0.0,-2.439,0.0,0.0,0.0,0.0,0.0,0.0,0.0,0.0,0.0,0.0,0.0,0.0,0.0,0.0,0.0,0.0,0.0,0.0,0.0,0.0,0.0,0.0,0.0,0.0,0.0,0.0,0.0,0.0,0.0,0.0,0.0,0.0,0.0,0.0,0.0,0.0,0.0,0.0,0.0,0.0,0.0,0.0,0.0,0.0,0.0,0.0,0.0,0.0,0.0,0.0,0.0,0.0,0.0,0.0,0.0,0.0,-2.9513,-2.9789,-3.1121,-3.3663,-3.3987,-3.425,-3.4545,-3.2566,-3.0872,-2.9501,0.0,0.0,0.0,0.0,0.0,0.0,0.0,0.0,0.0,0.0,0.0,0.0,0.0,0.0,0.0,0.0,0.0,0.0,0.0,0.0,0.0,0.0,0.0,0.0,0.0,0.0,0.0,0.0,0.0,0.0,0.0,0.0,0.0,0.0,0.0,0.0,0.0,0.0,0.0,-2.344,-2.3172,0.0,0.0,0.0,0.0,0.0,0.0,0.0,0.0,-2.6256,0.0,0.0,0.0,0.0,0.0,0.0,0.0,0.0,0.0,0.0,0.0,0.0,0.0,0.0,0.0,0.0,0.0,0.0,0.0,0.0,0.0,0.0,0.0,0.0,0.0,0.0,0.0,0.0,0.0,0.0,0.0,0.0,0.0,0.0,0.0,0.0,0.0,0.0,0.0,0.0,0.0,0.0,0.0,0.0,0.0,0.0,0.0,0.0,0.0,0.0,0.0,0.0,0.0,0.0,0.0,-2.9837,-3.0693,-3.2089,-3.4119,-3.43,-3.4349,-3.4448,-3.2611,-3.0599,0.0,0.0,0.0,0.0,0.0,0.0,0.0,0.0,0.0,0.0,0.0,0.0,0.0,0.0,0.0,0.0,0.0,0.0,0.0,0.0,0.0,0.0,0.0,0.0,0.0,0.0,0.0,0.0,0.0,0.0,0.0,0.0,0.0,0.0,0.0,0.0,0.0,0.0,0.0,0.0,-2.4339,-2.4414,-2.5928,0.0,0.0,0.0,0.0,0.0,0.0,-2.5617,-2.5887,0.0,0.0,0.0,0.0,0.0,0.0,0.0,0.0,0.0,0.0,0.0,0.0,0.0,0.0,0.0,0.0,0.0,0.0,0.0,0.0,0.0,0.0,0.0,0.0,0.0,0.0,0.0,0.0,0.0,0.0,0.0,0.0,0.0,0.0,0.0,0.0,0.0,0.0,0.0,0.0,0.0,0.0,0.0,0.0,0.0,0.0,0.0,0.0,0.0,0.0,0.0,0.0,0.0,0.0,0.0,-2.9946,-3.1421,-3.2835,-3.4219,-3.4431,-3.4497,-3.435,-3.2243,-3.003,0.0,0.0,0.0,0.0,0.0,0.0,0.0,0.0,0.0,0.0,0.0,0.0,0.0,0.0,0.0,0.0,0.0,0.0,0.0,0.0,0.0,0.0,0.0,0.0,0.0,0.0,0.0,0.0,0.0,0.0,0.0,0.0,0.0,0.0,0.0,0.0,0.0,0.0,0.0,0.0,0.0,-2.5557,-2.7057,-2.5988,0.0,0.0,0.0,0.0,-2.5382,-2.5652,0.0,0.0,0.0,0.0,0.0,0.0,0.0,0.0,0.0,0.0,0.0,0.0,0.0,0.0,0.0,0.0,0.0,0.0,0.0,0.0,0.0,0.0,0.0,0.0,0.0,0.0,0.0,0.0,0.0,0.0,0.0,0.0,0.0,0.0,0.0,0.0,0.0,0.0,0.0,0.0,0.0,0.0,0.0,0.0,0.0,0.0,0.0,0.0,0.0,0.0,0.0,0.0,0.0,0.0,0.0,0.0,-3.0146,-3.1404,-3.2772,-3.4219,-3.4546,-3.4643,-3.4593,-3.0941,-2.8727,0.0,0.0,0.0,0.0,0.0,0.0,0.0,0.0,0.0,0.0,0.0,0.0,0.0,0.0,0.0,0.0,0.0,0.0,0.0,0.0,0.0,0.0,0.0,0.0,0.0,0.0,0.0,0.0,0.0,0.0,0.0,0.0,0.0,0.0,0.0,0.0,0.0,0.0,0.0,0.0,0.0,-2.5557,-2.7092,-2.5988,-2.5005,0.0,0.0,-2.704,-2.7023,-2.8256,0.0,0.0,0.0,0.0,0.0,0.0,0.0,0.0,0.0,0.0,0.0,0.0,0.0,0.0,0.0,0.0,0.0,0.0,0.0,0.0,0.0,0.0,0.0,0.0,0.0,0.0,0.0,0.0,0.0,0.0,0.0,0.0,0.0,0.0,0.0,0.0,0.0,0.0,0.0,0.0,0.0,0.0,0.0,0.0,0.0,0.0,0.0,0.0,0.0,0.0,0.0,0.0,0.0,0.0,0.0,-2.9832,-2.9898,-3.2619,-3.4389,-3.4927,-3.5102,-3.5165,-3.5102,-3.1002,-2.8706,0.0,0.0,0.0,0.0,0.0,0.0,0.0,0.0,0.0,0.0,0.0,0.0,0.0,0.0,0.0,0.0,0.0,0.0,0.0,0.0,0.0,0.0,0.0,0.0,0.0,0.0,0.0,0.0,0.0,0.0,0.0,0.0,0.0,0.0,0.0,0.0,0.0,0.0,0.0,0.0,0.0,0.0,-2.7213,-2.6713,0.0,0.0,0.0,-2.7006,-2.6126,0.0,0.0,0.0,0.0,0.0,0.0,0.0,0.0,0.0,0.0,0.0,0.0,0.0,0.0,0.0,0.0,0.0,0.0,0.0,0.0,0.0,0.0,0.0,0.0,0.0,0.0,0.0,0.0,0.0,0.0,0.0,0.0,0.0,0.0,0.0,0.0,0.0,0.0,0.0,0.0,0.0,0.0,0.0,0.0,0.0,0.0,0.0,0.0,0.0,0.0,0.0,0.0,0.0,0.0,0.0,0.0,0.0,-2.9653,-3.3575,-3.5599,-3.5407,-3.5577,-3.5605,-3.5448,-3.1919,0.0,0.0,0.0,0.0,0.0,0.0,0.0,0.0,0.0,0.0,0.0,0.0,0.0,0.0,0.0,0.0,0.0,0.0,0.0,0.0,0.0,0.0,0.0,0.0,0.0,0.0,0.0,-2.2998,0.0,0.0,0.0,0.0,0.0,0.0,0.0,0.0,0.0,0.0,0.0,0.0,0.0,0.0,-2.7313,-2.739,-2.7376,-2.7514,0.0,0.0,-2.7085,-2.6308,-2.856,-2.9109,0.0,0.0,0.0,0.0,0.0,0.0,0.0,0.0,0.0,0.0,0.0,0.0,0.0,0.0,0.0,0.0,0.0,0.0,0.0,0.0,0.0,0.0,0.0,0.0,0.0,0.0,0.0,0.0,0.0,0.0,0.0,0.0,0.0,0.0,0.0,0.0,0.0,0.0,0.0,0.0,0.0,0.0,0.0,0.0,0.0,0.0,0.0,0.0,0.0,0.0,0.0,0.0,0.0,0.0,0.0,-2.9844,-3.3532,-3.5493,-3.5407,-3.565,-3.5783,-3.5749,-3.3722,-3.1588,0.0,0.0,0.0,0.0,0.0,0.0,0.0,0.0,0.0,0.0,0.0,0.0,0.0,0.0,0.0,0.0,0.0,0.0,0.0,0.0,0.0,0.0,0.0,0.0,0.0,0.0,0.0,0.0,0.0,0.0,0.0,0.0,0.0,0.0,0.0,0.0,0.0,0.0,0.0,0.0,0.0,-2.739,-2.7642,-2.7574,-2.8066,0.0,0.0,-2.7952,-2.9236,-3.0921,-3.0828,-2.6935,0.0,0.0,0.0,0.0,0.0,0.0,0.0,0.0,0.0,0.0,0.0,0.0,0.0,0.0,0.0,0.0,0.0,0.0,0.0,0.0,0.0,0.0,0.0,0.0,0.0,0.0,0.0,0.0,0.0,0.0,0.0,0.0,0.0,0.0,0.0,0.0,0.0,0.0,0.0,0.0,0.0,0.0,0.0,0.0,0.0,0.0,0.0,0.0,0.0,0.0,0.0,0.0,0.0,-3.0525,-2.9814,-3.4289,-3.6539,-3.6367,-3.6509,-3.6485,-3.6377,-3.4328,-3.1792,0.0,0.0,0.0,0.0,0.0,0.0,0.0,0.0,0.0,0.0,0.0,0.0,0.0,0.0,0.0,0.0,0.0,0.0,0.0,0.0,0.0,0.0,0.0,0.0,0.0,0.0,0.0,0.0,-2.5065,-2.4985,-2.3476,0.0,0.0,0.0,0.0,0.0,0.0,0.0,0.0,0.0,0.0,-2.7089,-2.8583,-2.8776,0.0,0.0,-2.9336,-2.8641,-2.7932,-2.9242,-2.881,-2.4444,-2.486,0.0,0.0,0.0,0.0,0.0,0.0,0.0,0.0,0.0,0.0,0.0,0.0,0.0,0.0,0.0,0.0,0.0,0.0,0.0,0.0,0.0,0.0,0.0,0.0,0.0,0.0,0.0,0.0,0.0,0.0,0.0,0.0,0.0,0.0,0.0,0.0,0.0,0.0,0.0,0.0,0.0,0.0,0.0,0.0,0.0,0.0,0.0,0.0,0.0,0.0,0.0,0.0,-3.0642,-2.9824,-3.471,-3.7182,-3.7005,-3.697,-3.6908,-3.6771,-3.5276,-3.3053,0.0,0.0,0.0,0.0,0.0,0.0,0.0,0.0,0.0,0.0,0.0,0.0,0.0,0.0,0.0,0.0,0.0,0.0,0.0,0.0,0.0,0.0,0.0,0.0,0.0,0.0,0.0,0.0,-2.4761,-2.4541,-2.3049,0.0,0.0,0.0,0.0,0.0,0.0,0.0,0.0,0.0,0.0,-2.7486,-2.8499,-2.857,-2.8533,-2.8512,-2.808,-2.7382,-2.6409,-2.7225,-2.6876,-2.3629,0.0,0.0,0.0,0.0,0.0,0.0,0.0,0.0,0.0,0.0,0.0,0.0,0.0,0.0,0.0,0.0,0.0,0.0,0.0,0.0,0.0,0.0,0.0,0.0,0.0,0.0,0.0,0.0,0.0,0.0,-2.5178,0.0,0.0,0.0,0.0,0.0,0.0,0.0,0.0,0.0,0.0,0.0,0.0,0.0,0.0,0.0,0.0,0.0,0.0,0.0,0.0,0.0,0.0,-3.0256,-2.9793,-3.4727,-3.722,-3.7009,-3.6987,-3.697,-3.6987,-3.6917,-3.5738,-3.3264,0.0,0.0,0.0,0.0,0.0,0.0,0.0,0.0,0.0,0.0,0.0,0.0,0.0,0.0,0.0,0.0,0.0,0.0,0.0,0.0,0.0,0.0,0.0,0.0,0.0,0.0,-1.9243,-2.0603,-2.2104,0.0,0.0,0.0,0.0,0.0,0.0,0.0,0.0,0.0,0.0,-2.723,-2.8707,-2.6935,-2.6504,-2.6272,-2.5807,-2.4287,-2.3685,-2.5234,-2.5454,-2.5481,0.0,0.0,0.0,0.0,0.0,0.0,0.0,0.0,0.0,0.0,0.0,0.0,0.0,0.0,0.0,0.0,0.0,0.0,0.0,0.0,0.0,0.0,0.0,0.0,0.0,0.0,0.0,-2.6296,-2.6776,0.0,0.0,0.0,0.0,0.0,0.0,0.0,0.0,0.0,0.0,0.0,-3.1242,-3.0243,0.0,0.0,0.0,0.0,0.0,0.0,0.0,0.0,0.0,0.0,0.0,0.0,-3.0251,-3.0446,-3.503,-3.741,-3.722,-3.7182,-3.7083,-3.6806,-3.6806,-3.5627,-3.3144,0.0,0.0,0.0,0.0,0.0,0.0,0.0,0.0,0.0,0.0,0.0,0.0,0.0,0.0,0.0,0.0,0.0,0.0,0.0,0.0,0.0,0.0,0.0,0.0,0.0,-2.2136,0.0,0.0,0.0,0.0,0.0,0.0,0.0,0.0,0.0,0.0,0.0,-2.3955,-2.5631,-2.5057,-2.4766,-2.56,-2.5677,-2.6131,0.0,0.0,0.0,0.0,0.0,0.0,0.0,0.0,0.0,0.0,0.0,0.0,0.0,0.0,-2.8932,-2.7196,-2.8015,-2.9038,-2.9299,0.0,0.0,0.0,0.0,0.0,0.0,0.0,0.0,0.0,0.0,0.0,0.0,0.0,0.0,-2.7717,0.0,-2.858,0.0,0.0,0.0,0.0,0.0,0.0,0.0,0.0,-3.0556,-3.2099,-3.3445,-3.2421,-3.2115,0.0,-3.1213,-2.944,0.0,0.0,0.0,0.0,0.0,0.0,0.0,0.0,-3.0238,-3.0508,-3.5065,-3.741,-3.722,-3.7182,-3.7066,-3.6806,-3.6742,-3.5891,-3.4263,-3.1546,-2.9141,0.0,0.0,0.0,0.0,0.0,0.0,0.0,0.0,0.0,0.0,0.0,0.0,0.0,0.0,0.0,0.0,0.0,0.0,0.0,0.0,0.0,0.0,0.0,-2.2729,0.0,0.0,0.0,0.0,0.0,0.0,0.0,0.0,0.0,-2.3365,-2.364,-2.4348,-2.5946,-2.5049,-2.4226,-2.406,0.0,0.0,0.0,0.0,0.0,0.0,0.0,-2.1976,-2.1337,-2.1946,-2.3231,-2.5511,-2.8478,-3.0674,-3.1022,0.0,0.0,-3.0058,-3.0596,-3.1542,-3.1883,-3.1451,-3.0903,-3.0553,-3.0113,-2.9444,0.0,0.0,0.0,0.0,0.0,0.0,0.0,0.0,-3.1819,-3.03,0.0,-3.1052,0.0,0.0,0.0,0.0,0.0,-2.8697,0.0,0.0,-3.5151,-3.6499,-3.4782,-3.4721,-3.4519,-3.4023,-3.2098,-3.0844,-3.0264,-3.0561,0.0,0.0,0.0,0.0,0.0,0.0,-3.0309,-3.0346,-3.4889,-3.7182,-3.7027,-3.6987,-3.697,-3.6948,-3.6766,-3.6684,-3.6597,-3.4281,-3.2921,-3.2748,-2.8023,0.0,0.0,0.0,0.0,0.0,0.0,0.0,0.0,0.0,0.0,0.0,0.0,0.0,0.0,0.0,0.0,0.0,0.0,0.0,0.0,-2.2668,0.0,0.0,0.0,0.0,0.0,0.0,0.0,0.0,0.0,0.0,-2.2089,-2.3684,-2.4942,-2.4958,0.0,0.0,0.0,0.0,-2.3734,-1.9556,-1.8783,-1.8911,-1.9114,-2.0923,-2.3117,-2.5348,0.0,0.0,-2.9771,-3.0406,-3.0719,-2.9876,-3.3119,-3.513,-3.2959,-3.1879,-3.1464,-3.2168,-3.1246,-3.0099,-3.0448,-3.0105,-2.9064,-2.9346,0.0,0.0,0.0,0.0,-2.8699,-3.0195,-3.2631,-3.2892,-3.2564,-3.1895,-3.3095,0.0,0.0,0.0,0.0,0.0,0.0,-3.1428,-3.3247,-3.4663,-3.5945,-3.7087,-3.7102,-3.7087,-3.7022,-3.6467,-3.6073,-3.5941,-3.5729,-3.2634,-2.6853,0.0,0.0,0.0,0.0,-3.1258,-3.3004,-3.5811,-3.7182,-3.697,-3.6846,-3.6708,-3.6527,-3.6444,-3.6402,-3.6402,-3.5721,-3.4318,-3.2214,-3.1179,0.0,0.0,0.0,0.0,0.0,0.0,0.0,0.0,0.0,0.0,0.0,0.0,0.0,0.0,0.0,0.0,0.0,0.0,0.0,-2.2295,-2.4086,-2.3786,0.0,0.0,0.0,0.0,0.0,0.0,0.0,0.0,0.0,-2.4155,-2.3482,-2.2979,0.0,0.0,-2.0928,-1.9602,-2.1423,-2.2975,-2.3163,-2.3317,0.0,-2.563,-2.52,-2.4953,-2.5686,-2.8052,-3.0115,-3.095,-3.276,-3.4269,-3.4605,-3.5683,-3.6272,-3.5942,-3.6464,-3.671,-3.6569,-3.6058,-3.5375,-3.4404,-3.3848,-3.3325,-3.2965,-3.1819,-2.9418,-2.9179,-3.0386,-3.042,-3.1979,-3.4505,-3.4736,-3.4482,-3.3979,-3.5157,-3.3898,-3.0856,-3.0725,0.0,0.0,0.0,-3.3435,-3.5865,-3.5865,-3.6757,-3.8281,-3.8336,-3.8303,-3.8238,-3.8322,-3.8238,-3.805,-3.6924,-3.4139,-2.9828,0.0,0.0,-2.8129,-3.0419,-3.2241,-3.3653,-3.5887,-3.6965,-3.6731,-3.6626,-3.6461,-3.6284,-3.6284,-3.6284,-3.6284,-3.6284,-3.552,-3.3914,-3.2965,-3.0977,0.0,0.0,0.0,0.0,0.0,0.0,0.0,0.0,0.0,0.0,0.0,-2.1922,0.0,0.0,0.0,0.0,-2.3759,-2.3455,-2.3338,-2.4031,0.0,0.0,0.0,0.0,0.0,0.0,0.0,-2.0835,-2.3015,-2.4663,-2.4646,-2.3885,-2.3681,-2.4524,-2.3538,-2.2394,-2.1364,0.0,-2.4875,-2.5174,-2.5292,-2.5865,-2.7309,-2.7247,-2.7405,-2.8586,-3.0196,-3.162,-3.2435,-3.4191,-3.5634,-3.6193,-3.654,-3.6738,-3.6913,-3.7742,-3.829,-3.7815,-3.7435,-3.6825,-3.5776,-3.5366,-3.4889,-3.6284,-3.5818,-3.0351,-2.9644,-3.211,-3.2182,-3.4022,-3.6865,-3.696,-3.615,-3.4979,-3.7142,-3.5755,-3.171,-3.1462,0.0,-3.449,-3.4473,-3.5771,-3.8135,-3.8135,-3.8336,-3.8707,-3.8707,-3.8515,-3.8186,-3.835,-3.8168,-3.7542,-3.5699,-3.4537,-3.4209,-3.3512,-3.2091,-3.0245,-3.2178,-3.3217,-3.3291,-3.5526,-3.6544,-3.6301,-3.6343,-3.6343,-3.6326,-3.6343,-3.6367,-3.6367,-3.6367,-3.6533,-3.6812,-3.3935,-3.2459,-3.2764,0.0,0.0,0.0,0.0,0.0,0.0,0.0,0.0,0.0,0.0,0.0,0.0,0.0,0.0,0.0,-2.5745,0.0,-2.5393,-2.3617,0.0,0.0,0.0,-2.384,-2.5553,-2.529,-2.4761,-2.4199,0.0,0.0,-2.4351,-2.4958,-2.6301,-2.8641,-2.8903,-2.8028,-2.57,-2.7313,-2.8206,-2.6002,-2.5817,-2.6006,-2.6914,-2.8337,-3.0255,-3.2437,-3.3455,-3.357,-3.3821,-3.4592,-3.533,-3.5411,-3.598,-3.6445,-3.6463,-3.6452,-3.6552,-3.6621,-3.6081,-3.5522,-3.5337,-3.4797,-3.4296,-3.6284,-3.618,-3.4766,-3.4576,-3.5255,-3.5558,-3.6155,-3.696,-3.7542,-3.7589,-3.7305,-3.8196,-3.7937,-3.6875,-3.6826,-3.7095,-3.7593,-3.7624,-3.7917,-3.8546,-3.8564,-3.8596,-3.8707,-3.8707,-3.8689,-3.8652,-3.8683,-3.8683,-3.8517,-3.7731,-3.6046,-3.3689,-3.3066,-3.2871,-3.2976,-3.3231,-3.4261,-3.6029,-3.6486,-3.6585,-3.6301,-3.6597,-3.6741,-3.6759,-3.6741,-3.69,-3.7208,-3.6921,-3.6921,-3.7303,-3.6274,-3.4959,-3.3262,-2.7518,0.0,0.0,0.0,0.0,0.0,0.0,0.0,0.0,0.0,-2.086,-1.8968,0.0,-2.2347,0.0,-2.5794,-2.8352,-2.8551,-2.8203,0.0,0.0,-2.519,-2.5272,-2.5298,-2.7058,-2.7496,-2.5517,-2.6722,-2.7635,-2.7411,-2.766,-2.8711,-3.0889,-2.8244,-2.575,-2.5224,-2.7213,-2.8596,-2.8181,-2.9362,-3.0747,-3.1046,-3.1946,-3.2718,-3.3597,-3.3807,-3.3895,-3.4099,-3.434,-3.4494,-3.4513,-3.4624,-3.4791,-3.4847,-3.4791,-3.4835,-3.4878,-3.5169,-3.5274,-3.4661,-3.4346,-3.4216,-3.6284,-3.6284,-3.6284,-3.6409,-3.6597,-3.6781,-3.7017,-3.719,-3.7844,-3.8219,-3.8368,-3.8596,-3.8707,-3.8707,-3.8707,-3.8707,-3.8707,-3.8707,-3.8707,-3.8707,-3.8707,-3.8707,-3.8707,-3.8707,-3.8738,-3.875,-3.875,-3.8762,-3.881,-3.8559,-3.7502,-3.5787,-3.5331,-3.5352,-3.5639,-3.2568,-3.1528,-3.2739,-3.4214,-3.5548,-3.6768,-3.7038,-3.6441,-3.4953,-3.4956,-3.4394,-3.3119,-3.2913,-3.2998,-3.3298,-3.2947,-3.211,-3.0722,-2.5949,-2.2506,0.0,0.0,0.0,0.0,0.0,0.0,0.0,0.0,0.0,0.0,0.0,-2.3469,-2.3044,-2.6744,-2.8746,-2.7755,-2.7701,-2.7482,-2.6944,-2.738,-2.8015,-2.8712,-3.008,-3.0409,-2.9045,-2.9783,-3.0419,-3.0354,-3.0434,-3.0909,-3.2074,-2.9929,-2.823,-2.8271,-2.9377,-3.0176,-3.0178,-3.1358,-3.2537,-3.305,-3.3368,-3.3689,-3.3842,-3.3895,-3.3972,-3.4148,-3.4216,-3.4216,-3.4216,-3.4216,-3.4216,-3.4216,-3.4216,-3.4216,-3.4271,-3.4587,-3.4699,-3.4309,-3.4216,-3.4216,-3.6284,-3.6284,-3.6284,-3.6516,-3.69,-3.6939,-3.7208,-3.7614,-3.8,-3.8368,-3.8707,-3.8707,-3.8707,-3.8707,-3.8707,-3.8707,-3.8707,-3.8707,-3.8707,-3.8707,-3.8707,-3.8707,-3.8707,-3.8707,-3.8707,-3.8707,-3.8707,-3.8707,-3.8707,-3.8707,-3.8487,-3.8071,-3.7699,-3.7319,-3.6653,-3.0939,-2.8211,-2.8811,-3.1402,-3.4051,-3.6738,-3.6506,-3.4905,-3.2047,-3.2033,-3.0756,-2.7865,-2.7794,-2.7964,-2.8183,-2.7851,-2.784,-2.8185,-2.4091,-2.1732,0.0,-1.7959,0.0,0.0,0.0,0.0,0.0,0.0,0.0,0.0,-2.4838,-2.529,-2.6387,-2.8017,-2.825,-2.6385,-2.6172,-2.7096,-2.9476,-3.0155,-3.1219,-3.3156,-3.3178,-3.2965,-3.2876,-3.2603,-3.2537,-3.266,-3.2795,-3.2666,-3.2335,-3.2091,-3.1777,-3.2022,-3.1917,-3.1846,-3.1893,-3.23,-3.2876,-3.3243,-3.3541,-3.3753,-3.3895,-3.3947,-3.3998,-3.4173,-3.4216,-3.4216,-3.4216,-3.4216,-3.4216,-3.4216,-3.4216,-3.4216,-3.4216,-3.4253,-3.4253,-3.4216,-3.4216,-3.4216,-3.6284,-3.6284,-3.6284,-3.6516,-3.6939,-3.7246,-3.7614,-3.8034,-3.8401,-3.8627,-3.8707,-3.8707,-3.8707,-3.8707,-3.8707,-3.8707,-3.8707,-3.8707,-3.8707,-3.8707,-3.8707,-3.8707,-3.8707,-3.8707,-3.8707,-3.8707,-3.8707,-3.8707,-3.8707,-3.8707,-3.7349,-3.478,-3.4651,-3.3223,-3.0574,0.0,0.0,0.0,-3.3661,-3.292,-3.3281,-3.1237,-2.9733,-2.8956,-2.9096,0.0,-2.8712,-2.8456,-2.8456,-2.8791,-2.8456,0.0,0.0,0.0,0.0,0.0,0.0,0.0,0.0,0.0,0.0,0.0,-2.3428,-2.3569,-2.4874,-2.4375,-2.5362,-2.8626,-2.8801,-2.963,-3.1997,-3.2166,-3.2368,-3.286,-3.2973,-3.324,-3.3716,-3.3662,-3.3504,-3.3243,-3.3124,-3.3032,-3.2858,-3.2795,-3.2684,-3.2403,-3.2283,-3.2283,-3.2301,-3.2179,-3.2179,-3.2438,-3.3001,-3.3447,-3.3476,-3.3805,-3.4074,-3.4148,-3.4148,-3.4148,-3.4197,-3.4216,-3.4216,-3.4216,-3.4216,-3.4216,-3.4216,-3.4216,-3.4216,-3.4216,-3.4216,-3.4216,-3.4216,-3.4216,-3.4216,-3.6284,0.0,-3.6533,-3.6821,0.0,-3.7614,-3.8016,-3.8401,-3.8627,-3.8707,-3.8707,-3.8707,-3.8707,-3.8707,-3.8707,-3.8707,-3.8707,-3.8707,-3.8707,-3.8707,-3.8707,-3.8707,-3.8707,-3.8707,-3.8707,-3.8707,-3.8707,-3.8707,-3.8707,-3.8707,-3.7845,-3.6229,-3.6229,-3.5347,-3.3698,-3.3716,-3.4428,-3.5643,-3.4057,-3.399,-3.5371,-3.4177,-3.2591,-3.0884,-3.0948,0.0,0.0,0.0,0.0,0.0,0.0,0.0,0.0,-2.8511,0.0,-2.9375,-2.6772,-2.5834,-2.7351,-2.6763,-2.7041,-2.8704,-2.8724,-2.8118,-2.6808,-2.7605,-2.9116,-3.1219,-3.1102,-3.1656,-3.3568,-3.368,-3.3606,-3.3762,-3.3634,-3.3625,-3.3734,-3.3634,-3.355,-3.3522,-3.339,-3.3273,-3.3302,-3.3302,-3.3136,-3.2844,-3.2781,-3.2716,-3.2553,-3.2352,-3.2386,-3.2908,-3.335,-3.3689,-3.3805,-3.3986,-3.4216,-3.4216,-3.4216,-3.4216,-3.4216,-3.4216,-3.4216,-3.4216,-3.4216,-3.4216,-3.4216,-3.4216,-3.4216,-3.4216,-3.4216,-3.4216,-3.4216,-3.4216,-3.4216,-3.6284,-3.6343,-3.6638,-3.7094,-3.7542,-3.7879,-3.8252,-3.8707,0.0,0.0,0.0,-3.8707,-3.8707,-3.8707,-3.8707,-3.8707,-3.8707,-3.8707,-3.8707,-3.8707,-3.8707,-3.8707,-3.8707,-3.8707,-3.8707,-3.8707,-3.8707,-3.8707,-3.8707,-3.8707,-3.8707,-3.8707,-3.8707,-3.8707,-3.8707,-3.8707,-3.7367,-3.478,-3.41,-3.5082,-3.7656,-3.7264,-3.5611,-3.2739,-3.2838,-3.162,-2.8877,-2.8905,-2.8929,-2.8791,-2.8749,-2.8731,-2.8621,-2.8603,-2.8651,-2.8718,-2.797,-2.8654,-3.1072,-3.054,-3.1121,-3.366,-3.3807,-3.251,-2.9386,-3.1404,-3.2939,-3.3214,-3.3214,-3.3332,-3.368,-3.3522,-3.3512,-3.3762,-3.355,-3.3512,-3.3734,-3.355,-3.3541,-3.3707,-3.3569,-3.3494,-3.3753,-3.378,-3.3662,-3.3379,-3.3243,-3.3232,-3.2939,-3.2684,-3.2716,-3.3214,-3.3504,-3.3725,-3.3979,-3.4124,-3.4173,-3.4216,-3.4216,-3.4216,-3.4216,-3.4216,-3.4216,-3.4216,-3.4216,-3.4216,-3.4216,-3.4216,-3.4216,-3.4216,-3.4216,-3.4221,-3.4269,-3.4269,-3.4293,-3.6284,-3.6301,-3.6385,-3.6838,-3.7505,-3.7578,-3.8,-3.8707,-3.8707,-3.8707,-3.8707,-3.8707,-3.8707,-3.8707,-3.8707,-3.8707,-3.8707,-3.8707,-3.8707,-3.8707,-3.8707,-3.8707,-3.8707,-3.8707,-3.8707,-3.8707,-3.8707,-3.8707,-3.8707,-3.8707,-3.8707,-3.8707,-3.8707,-3.8707,-3.8707,-3.8707,-3.8469,-3.7973,-3.5238,-3.3927,-3.4189,-3.1693,-3.0058,-2.9435,-2.971,-2.9489,-2.8989,-2.9085,-2.8994,-2.897,-2.897,-3.0143,-3.2735,-3.2873,-3.4128,-3.6707,-3.6229,-3.5697,-3.5404,-3.4651,-3.4045,-3.3825,-3.3807,-3.3433,-3.2694,-3.2701,-3.2858,-3.2934,-3.2921,-3.3014,-3.3419,-3.3606,-3.3707,-3.3807,-3.3762,-3.3762,-3.3788,-3.378,-3.3734,-3.3807,-3.378,-3.3734,-3.378,-3.3807,-3.368,-3.3408,-3.335,-3.3291,-3.3243,-3.3202,-3.3202,-3.3332,-3.3634,-3.3868,-3.3998,-3.4074,-3.4148,-3.4216,-3.4216,-3.4216,-3.4216,-3.4216,-3.4216,-3.4216,-3.4216,-3.4216,-3.4216,-3.4216,-3.4216,-3.4216,-3.4216,-3.4288,-3.4454,-3.4517,-3.4539,-3.6409,-3.6638,-3.6878,-3.7283,-3.7844,-3.8068,-3.8368,-3.8707,-3.8707,-3.8707,-3.8707,-3.8707,-3.8707,-3.8707,-3.8707,-3.8707,-3.8707,-3.8707,-3.8707,-3.8707,-3.8707,-3.8707,-3.8707,-3.8707,-3.8707,-3.8707,-3.8707,-3.8707,-3.8707,-3.8707,-3.8707,-3.8707,-3.8707,-3.8707,-3.8707,-3.8707,-3.8707,-3.867,-3.7221,-3.6421,-3.6296,-3.4962,-3.4211,-3.4137,-3.4211,-3.4284,-3.4266,-3.4266,-3.4266,-3.4284,-3.4266,-3.4945,-3.634,-3.645,-3.7129,-3.856,-3.7936,-3.7331,-3.6982,-3.5734,-3.4669,-3.388,-3.3807,-3.3753,-3.3578,-3.3273,-3.3014,-3.2858,-3.2827,-3.2952,-3.3302,-3.3465,-3.3597,-3.3762,-3.3807,-3.3807,-3.3807,-3.3807,-3.3807,-3.3807,-3.3807,-3.3807,-3.3807,-3.3807,-3.378,-3.3597,-3.3597,-3.3569,-3.3569,-3.3569,-3.355,-3.3578,-3.3743,-3.3895,-3.3998,-3.4049,-3.4124,-3.4197,-3.4216,-3.4216,-3.4216,-3.4216,-3.4216,-3.4216,-3.4216,-3.4216,-3.4216,-3.4216,-3.4216,-3.4216,-3.4216,-3.4293,-3.4536,-3.4751,-3.487,-3.6741,-3.7055,-3.7377,-3.7721,-3.8135,-3.8515,-3.8707,-3.8707,-3.8707,-3.8707,-3.8707,-3.8707,-3.8707,-3.8707,-3.8707,-3.8707,-3.8707,-3.8707,-3.8707,-3.8707,-3.8707,-3.8707,-3.8707,-3.8707,-3.8707,-3.8707,-3.8707,-3.8707,-3.8707,-3.8707,-3.8707,-3.8707,-3.8707,-3.8707,-3.8707,-3.8707,-3.8707,-3.8707,-3.8707,-3.8707,-3.8707,-3.8707,-3.8689,-3.8707,-3.867,-3.8707,-3.8707,-3.8707,-3.8707,-3.8707,-3.8707,-3.8707,-3.8707,-3.8707,-3.8707,-3.8634,-3.812,-3.7679,-3.7434,-3.5936,-3.4761,-3.4137,-3.3899,-3.3807,-3.378,-3.3512,-3.3154,-3.2858,-3.2876,-3.2983,-3.3184,-3.335,-3.3522,-3.378,-3.3807,-3.3807,-3.3807,-3.3807,-3.3807,-3.3807,-3.3807,-3.3807,-3.3807,-3.3807,-3.3807,-3.3807,-3.3807,-3.3807,-3.3807,-3.3807,-3.3807,-3.3834,-3.3842,-3.3895,-3.3972,-3.4005,-3.4055,-3.4148,-3.4173,-3.4197,-3.4245,-3.4293,-3.4293,-3.4316,-3.4311,-3.4288,-3.424,-3.4191,-3.424,-3.4288,-3.4293,-3.4386,-3.4691,-3.4964,-3.5088,-3.7395,-3.7451,-3.7505,-3.7721,-3.8135,-3.8515,-3.8707,-3.8707,-3.8707,-3.8707,-3.8707,-3.8707,-3.8707,-3.8707,-3.8707,-3.8707,-3.8707,-3.8707,-3.8707,-3.8707,-3.8707,-3.8707,-3.8707,-3.8707,-3.8707,-3.8707,-3.8707,-3.8707,-3.8707,-3.8707,-3.8707,-3.8707,-3.8707,-3.8707,-3.8707,-3.8707,-3.8707,-3.8707,-3.8707,-3.8707,-3.8707,-3.8707,-3.8707,-3.8707,-3.8707,-3.8707,-3.8707,-3.8707,-3.8707,-3.8707,-3.8707,-3.8707,-3.8707,-3.8707,-3.8707,-3.8707,-3.8615,-3.8285,-3.7477,-3.5936,-3.4972,-3.4844,-3.4192,-3.3807,-3.3807,-3.3494,-3.3154,-3.2921,-3.3075,-3.3075,-3.2939,-3.3361,-3.3707,-3.378,-3.3807,-3.3807,-3.3807,-3.3807,-3.3807,-3.3807,-3.3807,-3.3807,-3.3807,-3.3807,-3.3807,-3.3807,-3.3807,-3.3807,-3.3807,-3.3807,-3.3807,-3.3807,-3.3807,-3.3842,-3.3895,-3.3921,-3.3972,-3.4005,-3.4074,-3.4197,-3.434,-3.4454,-3.4542,-3.4498,-3.4517,-3.445,-3.4269,-3.4173,-3.4221,-3.4409,-3.4498,-3.4586,-3.4926,-3.5157,-3.5193,-3.765,-3.7844,-3.7844,-3.8083,-3.8451,-3.8627,-3.8707,-3.8707,-3.8707,-3.8707,-3.8707,-3.8707,-3.8707,-3.8707,-3.8707,-3.8707,-3.8707,-3.8707,-3.8707,-3.8707,-3.8707,-3.8707,-3.8707,-3.8707,-3.8707,-3.8707,-3.8707,-3.8707,-3.8707,-3.8707,-3.8707,-3.8707,-3.8707,-3.8707,-3.8707,-3.8707,-3.8707,-3.8707,-3.8707,-3.8707,-3.8707,-3.8707,-3.8707,-3.8707,-3.8707,-3.8707,-3.8707,-3.8707,-3.8707,-3.8707,-3.8707,-3.8707,-3.8707,-3.8707,-3.8707,-3.8707,-3.8707,-3.834,-3.7544,-3.6395,-3.555,-3.5045,-3.4266,-3.3807,-3.3807,-3.368,-3.3465,-3.3154,-3.3063,-3.3032,-3.3093,-3.3332,-3.3578,-3.3753,-3.3807,-3.3807,-3.3807,-3.3807,-3.3807,-3.3807,-3.3807,-3.3807,-3.3807,-3.3807,-3.3807,-3.3807,-3.3807,-3.3807,-3.3807,-3.3807,-3.3807,-3.3807,-3.3807,-3.3834,-3.3868,-3.3895,-3.3921,-3.3972,-3.4023,-3.4148,-3.4363,-3.445,-3.4498,-3.4609,-3.4564,-3.4495,-3.4358,-3.4173,-3.4148,-3.4409,-3.4713,-3.4851,-3.5,-3.5176,-3.5229,-3.8325,-3.8543,-3.8343,-3.8433,-3.8707,-3.8707,-3.8707,-3.8707,-3.8707,-3.8707,-3.8707,-3.8707,-3.8707,-3.8707,-3.8707,-3.8707,-3.8707,-3.8707,-3.8707,-3.8707,-3.8707,-3.8707,-3.8707,-3.8707,-3.8707,-3.8707,-3.8707,-3.8707,-3.8707,-3.8707,-3.8707,-3.8707,-3.8707,-3.8707,-3.8707,-3.8707,-3.8707,-3.8707,-3.8707,-3.8707,-3.8707,-3.8707,-3.8707,-3.8707,-3.8707,-3.8707,-3.8707,-3.8707,-3.8707,-3.8707,-3.8707,-3.8707,-3.8707,-3.8707,-3.8707,-3.8707,-3.8707,-3.845,-3.7845,-3.7074,-3.6266,-3.5422,-3.4614,-3.4027,-3.3844,-3.3707,-3.3606,-3.3465,-3.3124,-3.3063,-3.3243,-3.3379,-3.355,-3.378,-3.3807,-3.3807,-3.3807,-3.3807,-3.3807,-3.3807,-3.3807,-3.3807,-3.3807,-3.3807,-3.3807,-3.3807,-3.3807,-3.3807,-3.3807,-3.3807,-3.3807,-3.3807,-3.3807,-3.3815,-3.3868,-3.3868,-3.3895,-3.3947,-3.3998,-3.4179,-3.4413,-3.448,-3.4502,-3.4693,-3.4545,-3.4409,-3.4245,-3.4099,-3.4148,-3.4435,-3.4773,-3.5053,-3.5126,-3.5212,-3.5226,-3.9795,-3.9685,-3.8988,-3.8676,-3.8707,-3.8707,-3.8707,-3.8707,-3.8707,-3.8707,-3.8707,-3.8707,-3.8707,-3.8707,-3.8707,-3.8707,-3.8707,-3.8707,-3.8707,-3.8707,-3.8707,-3.8707,-3.8707,-3.8707,-3.8707,-3.8707,-3.8707,-3.8707,-3.8707,-3.8707,-3.8707,-3.8707,-3.8707,-3.8707,-3.8707,-3.8707,-3.8707,-3.8707,-3.8707,-3.8707,-3.8707,-3.8707,-3.8707,-3.8707,-3.8707,-3.8707,-3.8707,-3.8707,-3.8707,-3.8707,-3.8707,-3.8707,-3.8707,-3.8707,-3.8707,-3.8707,-3.8707,-3.8689,-3.8524,-3.7826,-3.7019,-3.6248,-3.5349,-3.4614,-3.3899,-3.3569,-3.3522,-3.3753,-3.3484,-3.3321,-3.335,-3.3597,-3.3734,-3.3807,-3.3807,-3.3807,-3.3807,-3.3807,-3.3807,-3.3807,-3.3807,-3.3807,-3.3807,-3.3807,-3.3807,-3.3807,-3.3807,-3.3807,-3.3807,-3.3807,-3.3807,-3.3807,-3.3807,-3.3807,-3.3807,-3.3868,-3.3868,-3.3921,-3.413,-3.4325,-3.4572,-3.4754,-3.4774,-3.4754,-3.4653,-3.4461,-3.4154,-3.408,-3.4232,-3.4508,-3.4926,-3.5176,-3.5196,-3.5209,-3.5209,-4.0377,-3.9827,-3.9038,-3.8707,-3.8707,-3.8707,-3.8707,-3.8707,-3.8707,-3.8707,-3.8707,-3.8707,-3.8707,-3.8707,-3.8707,-3.8707,-3.8707,-3.8707,-3.8707,-3.8707,-3.8707,-3.8707,-3.8707,-3.8707,-3.8707,-3.8707,-3.8707,-3.8707,-3.8707,-3.8707,-3.8707,-3.8707,-3.8707,-3.8707,-3.8707,-3.8707,-3.8707,-3.8707,-3.8707,-3.8707,-3.8707,-3.8707,-3.8707,-3.8707,-3.8707,-3.8707,-3.8707,-3.8707,-3.8707,-3.8707,-3.8707,-3.8707,-3.8707,-3.8707,-3.8707,-3.8707,-3.8707,-3.8707,-3.8615,-3.7936,-3.7147,-3.6358,-3.5495,-3.466,-3.3963,-3.368,-3.3662,-3.3734,-3.3707,-3.3606,-3.3634,-3.3734,-3.3807,-3.3807,-3.3807,-3.3807,-3.3807,-3.3807,-3.3807,-3.3807,-3.3807,-3.3807,-3.3807,-3.3807,-3.3807,-3.3807,-3.3807,-3.3807,-3.3807,-3.3807,-3.3807,-3.3807,-3.3807,-3.3807,-3.3807,-3.3972,-3.4074,-3.4148,-3.4274,-3.4505,-3.4734,-3.4851,-3.487,-3.4908,-3.4812,-3.4632,-3.4371,-3.448,-3.4569,-3.4674,-3.5072,-3.5209,-3.5245,-3.5209,-3.519,-4.0873,-3.9882,-3.9313,-3.8927,-3.8707,-3.8707,-3.8707,-3.8707,-3.8707,-3.8707,-3.8707,-3.8707,-3.8707,-3.8707,-3.8707,-3.8707,-3.8707,-3.8707,-3.8707,-3.8707,-3.8707,-3.8707,-3.8707,-3.8707,-3.8707,-3.8707,-3.8707,-3.8707,-3.8707,-3.8707,-3.8707,-3.8707,-3.8707,-3.8707,-3.8707,-3.8707,-3.8707,-3.8707,-3.8707,-3.8707,-3.8707,-3.8707,-3.8707,-3.8707,-3.8707,-3.8707,-3.8707,-3.8707,-3.8707,-3.8707,-3.8707,-3.8707,-3.8707,-3.8707,-3.8707,-3.8707,-3.8707,-3.8707,-3.8652,-3.8193,-3.7551,-3.6725,-3.5899,-3.5073,-3.4302,-3.3972,-3.3825,-3.3807,-3.3807,-3.3807,-3.3807,-3.3807,-3.3807,-3.3807,-3.3807,-3.3807,-3.3807,-3.3807,-3.3807,-3.3807,-3.3807,-3.3807,-3.3807,-3.3807,-3.3807,-3.3807,-3.3807,-3.3807,-3.3807,-3.3807,-3.3807,-3.3834,-3.3913,-3.3947,-3.4049,-3.425,-3.4227,-3.4274,-3.4502,-3.4713,-3.4832,-3.4908,-3.4982,-3.5019,-3.4945,-3.4774,-3.4753,-3.4851,-3.4908,-3.4908,-3.5054,-3.519,-3.5209,-3.519,-3.519,-4.135,-4.0047,-3.99,-3.9386,-3.8744,-3.8707,-3.8707,-3.8707,-3.8707,-3.8707,-3.8707,-3.8707,-3.8707,-3.8707,-3.8707,-3.8707,-3.8707,-3.8707,-3.8707,-3.8707,-3.8707,-3.8707,-3.8707,-3.8707,-3.8707,-3.8707,-3.8707,-3.8707,-3.8707,-3.8707,-3.8707,-3.8707,-3.8707,-3.8707,-3.8707,-3.8707,-3.8707,-3.8707,-3.8707,-3.8707,-3.8707,-3.8707,-3.8707,-3.8707,-3.8707,-3.8707,-3.8707,-3.8707,-3.8707,-3.8707,-3.8707,-3.8707,-3.8707,-3.8707,-3.8707,-3.8707,-3.8707,-3.8707,-3.8707,-3.8634,-3.8212,-3.7404,-3.6688,-3.5789,-3.4945,-3.4229,-3.3807,-3.3807,-3.3807,-3.3807,-3.3807,-3.3807,-3.3807,-3.3807,-3.3807,-3.3807,-3.3807,-3.3807,-3.3807,-3.3807,-3.3807,-3.3807,-3.3807,-3.3807,-3.3807,-3.3807,-3.3807,-3.3807,-3.3807,-3.3807,-3.3807,-3.3868,-3.3998,-3.4099,-3.4321,-3.4524,-3.4435,-3.4435,-3.4693,-3.4926,-3.4945,-3.5019,-3.5019,-3.5054,-3.5054,-3.4889,-3.4653,-3.4753,-3.4945,-3.5,-3.5124,-3.519,-3.519,-3.519,-3.519,-4.168,-4.0708,-4.012,-3.9423,-3.8744,-3.8707,-3.8707,-3.8707,-3.8707,-3.8707,-3.8707,-3.8707,-3.8707,-3.8707,-3.8707,-3.8707,-3.8707,-3.8707,-3.8707,-3.8707,-3.8707,-3.8707,-3.8707,-3.8707,-3.8707,-3.8707,-3.8707,-3.8707,-3.8707,-3.8707,-3.8707,-3.8707,-3.8707,-3.8707,-3.8707,-3.8707,-3.8707,-3.8707,-3.8707,-3.8707,-3.8707,-3.8707,-3.8707,-3.8707,-3.8707,-3.8707,-3.8707,-3.8707,-3.8707,-3.8707,-3.8707,-3.8707,-3.8707,-3.8707,-3.8707,-3.8707,-3.8707,-3.8707,-3.8707,-3.8689,-3.8358,-3.7551,-3.6762,-3.5917,-3.5064,-3.4266,-3.3844,-3.3807,-3.3807,-3.3807,-3.3807,-3.3807,-3.3807,-3.3807,-3.3807,-3.3807,-3.3807,-3.3807,-3.3807,-3.3807,-3.3807,-3.3807,-3.3807,-3.3807,-3.3807,-3.3807,-3.3807,-3.3807,-3.3807,-3.3834,-3.3913,-3.4049,-3.4173,-3.4298,-3.4502,-3.4693,-3.4733,-3.4693,-3.4908,-3.5001,-3.5019,-3.5054,-3.5072,-3.5072,-3.5072,-3.4982,-3.4754,-3.4754,-3.4963,-3.507,-3.5157,-3.519,-3.519,-3.5174,-3.5193,-4.1846,-4.1056,-4.023,-3.9423,-3.8744,-3.8707,-3.8707,-3.8707,-3.8707,-3.8707,-3.8707,-3.8707,-3.8707,-3.8707,-3.8707,-3.8707,-3.8707,-3.8707,-3.8707,-3.8707,-3.8707,-3.8707,-3.8707,-3.8707,-3.8707,-3.8707,-3.8707,-3.8707,-3.8707,-3.8707,-3.8707,-3.8707,-3.8707,-3.8707,-3.8707,-3.8707,-3.8707,-3.8707,-3.8707,-3.8676,-3.864,-3.8609,-3.8609,-3.8609,-3.8627,-3.8627,-3.8707,-3.8658,-3.8658,-3.8658,-3.8658,-3.864,-3.8707,-3.8627,-3.8609,-3.8658,-3.864,-3.864,-3.8707,-3.8689,-3.8524,-3.7881,-3.6927,-3.6119,-3.5404,-3.4541,-3.3825,-3.3807,-3.3807,-3.3807,-3.3807,-3.3807,-3.3807,-3.3807,-3.3807,-3.3807,-3.3807,-3.3807,-3.3807,-3.3807,-3.3807,-3.3807,-3.3807,-3.3807,-3.3807,-3.3807,-3.3807,-3.3887,-3.3895,-3.3972,-3.4099,-3.425,-3.4458,-3.4567,-3.4653,-3.4812,-3.5001,-3.5037,-3.5089,-3.5054,-3.5037,-3.5089,-3.5107,-3.5124,-3.5141,-3.5143,-3.4944,-3.4999,-3.5157,-3.5174,-3.519,-3.519,-3.5174,-3.5176,-3.5196,-4.1809,-4.1001,-4.0212,-3.9441,-3.8744,-3.8707,-3.8707,-3.8707,-3.8707,-3.8707,-3.8707,-3.8707,-3.8707,-3.8707,-3.8707,-3.8707,-3.8707,-3.8707,-3.8707,-3.8707,-3.8707,-3.8707,-3.8707,-3.8707,-3.8707,-3.8707,-3.8707,-3.8707,-3.8707,-3.8707,-3.8707,-3.8707,-3.8707,-3.8707,-3.8707,-3.8707,-3.8707,-3.8707,-3.8707,-3.8658,-3.851,-3.851,-3.851,-3.851,-3.8465,-3.8496,-3.8627,-3.8559,-3.8559,-3.8658,-3.859,-3.8559,-3.8627,-3.8515,-3.8496,-3.8627,-3.8559,-3.8559,-3.8658,-3.8658,-3.864,-3.8438,-3.7184,-3.6285,-3.6009,-3.4743,-3.3807,-3.3807,-3.3807,-3.3807,-3.3807,-3.3807,-3.3807,-3.3807,-3.3807,-3.3807,-3.3807,-3.3807,-3.3807,-3.3807,-3.3807,-3.3807,-3.3807,-3.3807,-3.3807,-3.3807,-3.3807,-3.3895,-3.3998,-3.4055,-3.425,-3.4413,-3.4524,-3.4609,-3.4612,-3.4851,-3.5001,-3.5037,-3.5126,-3.5124,-3.5072,-3.5107,-3.5018,-3.507,-3.519,-3.5193,-3.5176,-3.5157,-3.5174,-3.519,-3.519,-3.519,-3.5193,-3.5179,-3.5162,-4.1479,-4.0212,-3.9974,-3.9441,-3.8762,-3.8707,-3.8726,-3.8707,-3.8726,-3.8762,-3.8726,-3.8707,-3.8707,-3.8707,-3.8707,-3.8707,-3.8707,-3.8707,-3.8707,-3.8707,-3.8707,-3.8707,-3.8707,-3.8707,-3.8707,-3.8707,-3.8707,-3.8707,-3.8707,-3.8707,-3.8707,-3.8707,-3.8707,-3.8707,-3.8707,-3.8707,-3.8707,-3.8707,-3.8707,-3.8609,-3.851,-3.851,-3.8478,-3.8415,-3.8415,-3.8433,-3.8465,-3.8446,-3.8528,-3.8676,-3.8559,-3.851,-3.8559,-3.8446,-3.8433,-3.8465,-3.8465,-3.8465,-3.8496,-3.8528,-3.8559,-3.8431,-3.7124,-3.6303,-3.6248,-3.4761,-3.3935,-3.3807,-3.3807,-3.3807,-3.3807,-3.3807,-3.3807,-3.3807,-3.3807,-3.3807,-3.3807,-3.3807,-3.3807,-3.3807,-3.3807,-3.3807,-3.3807,-3.3807,-3.3807,-3.3807,-3.3807,-3.3842,-3.3972,-3.4005,-3.413,-3.4203,-3.4321,-3.4439,-3.4569,-3.4812,-3.4964,-3.4982,-3.5054,-3.5174,-3.5141,-3.5176,-3.4944,-3.4793,-3.5088,-3.5193,-3.5124,-3.5053,-3.5124,-3.519,-3.5174,-3.5193,-3.5196,-3.5181,-3.5164,-4.1735,-4.0873,-4.0543,-4.0157,-3.9735,-3.9717,-3.9717,-3.9643,-3.9331,-3.9203,-3.9148,-3.8836,-3.8707,-3.8707,-3.8707,-3.8707,-3.8707,-3.8707,-3.8707,-3.8707,-3.8707,-3.8707,-3.8707,-3.8707,-3.8707,-3.8707,-3.8707,-3.8707,-3.8707,-3.8707,-3.8707,-3.8707,-3.8707,-3.8707,-3.8707,-3.8707,-3.8707,-3.8707,-3.8658,-3.8578,-3.8478,-3.8433,-3.8401,-3.8336,-3.8336,-3.8322,-3.8336,-3.8382,-3.8465,-3.8546,-3.8465,-3.8433,-3.8465,-3.8368,-3.8336,-3.8382,-3.8368,-3.8368,-3.8382,-3.8446,-3.8282,-3.7825,-3.6808,-3.6106,-3.5567,-3.4467,-3.378,-3.3807,-3.3807,-3.3807,-3.3807,-3.3807,-3.3807,-3.3807,-3.3807,-3.3807,-3.3807,-3.3807,-3.3807,-3.3807,-3.3807,-3.3807,-3.3807,-3.3807,-3.3807,-3.3807,-3.3807,-3.3868,-3.3972,-3.3928,-3.3979,-3.413,-3.4344,-3.4545,-3.4674,-3.4889,-3.5037,-3.5037,-3.5072,-3.5174,-3.5174,-3.5176,-3.5035,-3.4908,-3.507,-3.5174,-3.5124,-3.5089,-3.5141,-3.519,-3.5193,-3.5196,-3.5181,-3.5147,-3.5129,-4.2249,-4.2121,-4.1387,-4.1097,-4.1056,-4.1079,-4.0946,-4.0928,-4.0304,-4.0029,-3.9863,-3.9203,-3.8964,-3.8836,-3.8799,-3.8707,-3.8707,-3.8707,-3.8707,-3.8707,-3.8707,-3.8707,-3.8707,-3.8707,-3.8707,-3.8707,-3.8707,-3.8707,-3.8707,-3.8707,-3.8707,-3.8707,-3.8707,-3.8707,-3.8707,-3.8707,-3.8707,-3.8658,-3.859,-3.8478,-3.8433,-3.8354,-3.834,-3.8307,-3.8241,-3.8241,-3.8307,-3.8354,-3.8368,-3.835,-3.8322,-3.8354,-3.8368,-3.8256,-3.8256,-3.8336,-3.8322,-3.8322,-3.8368,-3.835,-3.8054,-3.7343,-3.6504,-3.5677,-3.5005,-3.4192,-3.3726,-3.3762,-3.3788,-3.3807,-3.3807,-3.3807,-3.3807,-3.3807,-3.3807,-3.3807,-3.3807,-3.3807,-3.3807,-3.3807,-3.3807,-3.3807,-3.3807,-3.3807,-3.3807,-3.3807,-3.3807,-3.386,-3.3921,-3.3947,-3.4012,-3.4165,-3.4439,-3.4732,-3.4851,-3.4963,-3.5072,-3.516,-3.5141,-3.5174,-3.5157,-3.5141,-3.5124,-3.5124,-3.5157,-3.519,-3.5174,-3.5174,-3.519,-3.5193,-3.5196,-3.5181,-3.5183,-3.5092,-3.5057,-4.1919,-4.135,-4.1185,-4.1097,-4.1097,-4.1097,-4.1148,-4.1148,-4.0946,-4.0855,-4.0653,-3.9992,-3.9662,-3.9606,-3.9074,-3.8707,-3.8762,-3.8744,-3.8707,-3.8707,-3.8707,-3.8707,-3.8707,-3.8707,-3.8707,-3.8707,-3.8707,-3.8707,-3.8707,-3.8707,-3.8707,-3.8707,-3.8707,-3.8707,-3.8707,-3.8689,-3.8707,-3.8658,-3.8559,-3.8446,-3.8382,-3.8322,-3.8274,-3.8259,-3.8225,-3.8225,-3.8225,-3.8259,-3.8241,-3.8241,-3.8274,-3.8289,-3.8289,-3.8241,-3.8207,-3.8241,-3.8241,-3.8241,-3.8241,-3.8234,-3.7958,-3.7103,-3.637,-3.5647,-3.4874,-3.4128,-3.3753,-3.3726,-3.3762,-3.3807,-3.3807,-3.3807,-3.3807,-3.3807,-3.3807,-3.3807,-3.3807,-3.3807,-3.3807,-3.3807,-3.3807,-3.3807,-3.3807,-3.3807,-3.3807,-3.3807,-3.3834,-3.3834,-3.3887,-3.3947,-3.4062,-3.4189,-3.4353,-3.463,-3.4773,-3.4926,-3.5089,-3.5193,-3.5174,-3.519,-3.5174,-3.5157,-3.5141,-3.5157,-3.5174,-3.519,-3.5193,-3.5193,-3.5193,-3.5196,-3.5181,-3.5147,-3.5111,-3.502,-3.5001,-4.2598,-4.2231,-4.2231,-4.2231,-4.2231,-4.2213,-4.2231,-4.2158,-4.1809,-4.168,-4.1497,-4.0818,-4.0469,-4.0396,-3.9662,-3.9276,-3.9148,-3.8854,-3.8707,-3.8707,-3.8707,-3.8707,-3.8707,-3.8707,-3.8707,-3.8707,-3.8707,-3.8707,-3.8707,-3.8707,-3.8707,-3.8707,-3.8707,-3.8658,-3.8627,-3.8609,-3.8578,-3.8546,-3.8483,-3.8368,-3.8336,-3.8289,-3.8241,-3.8225,-3.8192,-3.8192,-3.8192,-3.8192,-3.8192,-3.8225,-3.8241,-3.8241,-3.8259,-3.8225,-3.8192,-3.8192,-3.8192,-3.8192,-3.8225,-3.8168,-3.7733,-3.659,-3.6095,-3.5302,-3.4524,-3.3816,-3.3725,-3.3698,-3.3753,-3.3807,-3.3807,-3.3807,-3.3807,-3.3807,-3.3807,-3.3807,-3.3807,-3.3807,-3.3807,-3.3807,-3.3807,-3.3807,-3.3807,-3.3807,-3.3807,-3.3807,-3.3834,-3.386,-3.3972,-3.4005,-3.4062,-3.4189,-3.4307,-3.4461,-3.4651,-3.4851,-3.5107,-3.5176,-3.5174,-3.519,-3.5174,-3.5174,-3.5174,-3.519,-3.5174,-3.5193,-3.5176,-3.5176,-3.516,-3.5145,-3.5129,-3.5092,-3.5038,-3.5001,-3.5001,-4.3479,-4.3479,-4.3479,-4.3479,-4.3479,-4.3442,-4.3387,-4.3314,-4.2782,-4.2488,-4.2323,-4.1662,-4.1295,-4.1111,-4.0432,-4.0102,-3.9918,-3.9551,-3.935,-3.9331,-3.9093,-3.9038,-3.8964,-3.8836,-3.8707,-3.8707,-3.8707,-3.8707,-3.8707,-3.8707,-3.8707,-3.8707,-3.864,-3.8609,-3.851,-3.8478,-3.8496,-3.8433,-3.8354,-3.8322,-3.8289,-3.8241,-3.8225,-3.8192,-3.8192,-3.8192,-3.8192,-3.8192,-3.8192,-3.8192,-3.8192,-3.8192,-3.8192,-3.8192,-3.8192,-3.8192,-3.8192,-3.8192,-3.8138,-3.7957,-3.7305,-3.5928,-3.5639,-3.4945,-3.388,-3.3585,-3.3651,-3.3671,-3.3753,-3.3807,-3.3807,-3.3807,-3.3807,-3.3807,-3.3807,-3.3807,-3.3807,-3.3807,-3.3807,-3.3807,-3.3807,-3.3807,-3.3807,-3.3807,-3.3807,-3.3834,-3.386,-3.3895,-3.403,-3.4154,-3.4232,-3.433,-3.4464,-3.4655,-3.4832,-3.4889,-3.5124,-3.5157,-3.519,-3.519,-3.519,-3.519,-3.519,-3.5174,-3.5193,-3.5196,-3.5179,-3.5162,-3.5147,-3.5111,-3.5075,-3.502,-3.5001,-3.4983,-3.5001,-4.3479,-4.3479,-4.3479,-4.3479,-4.3479,-4.3479,-4.3444,-4.3479,-4.3279,-4.3296,-4.3149,-4.247,-4.2103,-4.1901,-4.1277,-4.0928,-4.0763,-4.0506,-4.0524,-4.0396,-4.001,-3.9698,-3.9606,-3.9239,-3.8909,-3.8707,-3.8817,-3.8891,-3.8707,-3.8707,-3.8707,-3.8689,-3.8609,-3.851,-3.8478,-3.8446,-3.8433,-3.8368,-3.8322,-3.8307,-3.8274,-3.8259,-3.8192,-3.8192,-3.8192,-3.8192,-3.8192,-3.8192,-3.8192,-3.8192,-3.8192,-3.8192,-3.8192,-3.8192,-3.8192,-3.8192,-3.8192,-3.8192,-3.8156,-3.7558,-3.6834,-3.591,-3.5258,-3.4516,-3.3742,-3.352,-3.3605,-3.3661,-3.3726,-3.3807,-3.3807,-3.3807,-3.3807,-3.3807,-3.3807,-3.3807,-3.3807,-3.3807,-3.3807,-3.3807,-3.3807,-3.3807,-3.3807,-3.3834,-3.386,-3.3913,-3.3998,-3.4105,-3.4274,-3.4348,-3.442,-3.4569,-3.4674,-3.4889,-3.5107,-3.5088,-3.5174,-3.5174,-3.519,-3.519,-3.519,-3.519,-3.519,-3.5193,-3.5196,-3.5198,-3.5164,-3.5147,-3.5092,-3.5039,-3.5001,-3.4982,-3.4964,-3.4964,-3.4945,-4.3196,-4.316,-4.2939,-4.2846,-4.2846,-4.2828,-4.2976,-4.3178,-4.3178,-4.3304,-4.3334,-4.3094,-4.291,-4.2708,-4.2084,-4.1552,-4.124,-4.1097,-4.1097,-4.0983,-4.0708,-4.0524,-4.0506,-4.0065,-3.9992,-3.9974,-3.9937,-3.9405,-3.8781,-3.8707,-3.8726,-3.8658,-3.8559,-3.8478,-3.8446,-3.8368,-3.8354,-3.8307,-3.8274,-3.8259,-3.8259,-3.8225,-3.8192,-3.8192,-3.8192,-3.8192,-3.8192,-3.8192,-3.8192,-3.8192,-3.8192,-3.8192,-3.8192,-3.8192,-3.8192,-3.8192,-3.8192,-3.8192,-3.8065,-3.7449,-3.6671,-3.5874,-3.5041,-3.4262,-3.3676,-3.352,-3.3633,-3.3698,-3.3771,-3.3807,-3.3807,-3.3807,-3.3807,-3.3807,-3.3807,-3.3807,-3.3807,-3.3807,-3.3807,-3.3807,-3.3834,-3.3834,-3.3807,-3.3834,-3.3887,-3.3998,-3.4124,-3.4298,-3.448,-3.4569,-3.4634,-3.4793,-3.4908,-3.5,-3.5157,-3.5174,-3.519,-3.519,-3.519,-3.519,-3.5193,-3.5193,-3.5196,-3.5179,-3.5181,-3.5164,-3.5111,-3.5057,-3.5001,-3.4983,-3.4945,-3.4945,-3.4945,-3.4945,-3.4927,-4.2844,-4.2729,-4.2378,-4.2216,-4.2216,-4.2216,-4.2418,-4.2711,-4.2768,-4.2995,-4.3339,-4.3356,-4.3373,-4.3296,-4.2837,-4.2213,-4.1589,-4.1662,-4.1735,-4.1699,-4.146,-4.135,-4.1332,-4.1167,-4.0932,-4.0818,-4.0873,-4.0341,-3.9294,-3.9038,-3.8872,-3.8695,-3.8559,-3.8446,-3.8401,-3.8322,-3.8241,-3.8225,-3.8192,-3.8192,-3.8192,-3.8192,-3.8192,-3.8192,-3.8192,-3.8192,-3.8192,-3.8192,-3.8192,-3.8192,-3.8192,-3.8192,-3.8192,-3.8192,-3.8192,-3.8192,-3.8192,-3.8138,-3.7757,-3.716,-3.629,-3.5476,-3.4787,-3.4081,-3.3694,-3.3491,-3.3615,-3.3726,-3.378,-3.378,-3.378,-3.378,-3.3807,-3.3807,-3.3807,-3.378,-3.3807,-3.3807,-3.3807,-3.3834,-3.3834,-3.3895,-3.3947,-3.3972,-3.403,-3.4232,-3.439,-3.4524,-3.4693,-3.4734,-3.4851,-3.5016,-3.5141,-3.5141,-3.5174,-3.5174,-3.519,-3.519,-3.519,-3.5174,-3.5176,-3.5179,-3.5181,-3.5164,-3.5127,-3.5092,-3.502,-3.5001,-3.4945,-3.4927,-3.4908,-3.4908,-3.4927,-3.4927,-3.4927,-4.2673,-4.2279,-4.2216,-4.2216,-4.2175,-4.2157,-4.2216,-4.2279,-4.2297,-4.2555,-4.2957,-4.3013,-4.3196,-4.3371,-4.3387,-4.324,-4.313,-4.2983,-4.2928,-4.2818,-4.2415,-4.2158,-4.2047,-4.1368,-4.1442,-4.146,-4.135,-4.0616,-3.99,-3.9717,-3.935,-3.8878,-3.8569,-3.8433,-3.8368,-3.8307,-3.8225,-3.8192,-3.8192,-3.8192,-3.8192,-3.8192,-3.8192,-3.8192,-3.8192,-3.8192,-3.8192,-3.8192,-3.8192,-3.8192,-3.8192,-3.8192,-3.8192,-3.8192,-3.8192,-3.8192,-3.8138,-3.7884,-3.7232,-3.6526,-3.5747,-3.4969,-3.4117,-3.361,-3.3459,-3.3481,-3.3549,-3.3587,-3.3671,-3.3698,-3.3698,-3.3698,-3.3753,-3.3734,-3.3753,-3.378,-3.378,-3.3807,-3.3807,-3.3921,-3.3972,-3.4124,-3.4221,-3.4203,-3.4227,-3.4439,-3.4632,-3.4792,-3.4889,-3.4926,-3.4963,-3.5122,-3.519,-3.519,-3.519,-3.519,-3.519,-3.519,-3.5193,-3.5193,-3.5179,-3.5181,-3.511,-3.5092,-3.5075,-3.5038,-3.5001,-3.4945,-3.4927,-3.4908,-3.4908,-3.4908,-3.4908,-3.4908,-3.4908,-4.2008,-4.1778,-4.1552,-4.148,-4.1463,-4.1463,-4.1578,-4.1796,-4.1821,-4.2074,-4.2516,-4.2806,-4.3123,-4.3444,-4.3479,-4.3461,-4.3479,-4.3479,-4.3479,-4.3479,-4.313,-4.2928,-4.291,-4.2653,-4.247,-4.2231,-4.2304,-4.1772,-4.091,-4.0084,-3.9612,-3.9255,-3.8702,-3.8368,-3.8336,-3.8241,-3.8225,-3.8192,-3.8192,-3.8192,-3.8192,-3.8192,-3.8192,-3.8225,-3.8225,-3.8225,-3.8225,-3.8192,-3.8192,-3.8192,-3.8192,-3.8192,-3.8192,-3.8192,-3.8192,-3.8156,-3.7721,-3.7341,-3.6942,-3.62,-3.5403,-3.4643,-3.39,-3.3477,-3.3452,-3.3462,-3.352,-3.3605,-3.3615,-3.3643,-3.3643,-3.3643,-3.3671,-3.3698,-3.3726,-3.378,-3.3807,-3.3807,-3.3842,-3.3979,-3.413,-3.4298,-3.4435,-3.4461,-3.4505,-3.4653,-3.4812,-3.4908,-3.5019,-3.5088,-3.5105,-3.5157,-3.519,-3.519,-3.519,-3.519,-3.519,-3.5174,-3.5179,-3.5179,-3.5162,-3.5147,-3.5075,-3.502,-3.5001,-3.4964,-3.4945,-3.4927,-3.4908,-3.4908,-3.4908,-3.4908,-3.4908,-3.4908,-3.4908,-4.1356,-4.1311,-4.0995,-4.0871,-4.0871,-4.0871,-4.1088,-4.1328,-4.1373,-4.1648,-4.2239,-4.2788,-4.3232,-4.3463,-4.3479,-4.3479,-4.3479,-4.3479,-4.3479,-4.3479,-4.3461,-4.3314,-4.3057,-4.3039,-4.291,-4.291,-4.2433,-4.1937,-4.113,-4.029,-3.9726,-3.9479,-3.872,-3.8405,-3.8289,-3.8241,-3.8207,-3.8322,-3.8322,-3.8322,-3.8322,-3.8401,-3.8368,-3.8368,-3.8368,-3.8401,-3.8401,-3.834,-3.834,-3.8433,-3.8241,-3.8225,-3.8307,-3.8259,-3.8026,-3.7812,-3.7323,-3.6761,-3.629,-3.5639,-3.5113,-3.4425,-3.3882,-3.3422,-3.3452,-3.3462,-3.3462,-3.352,-3.3549,-3.3577,-3.3577,-3.3577,-3.3643,-3.3671,-3.3698,-3.3762,-3.3868,-3.3928,-3.4037,-3.4232,-3.4394,-3.4567,-3.4672,-3.4714,-3.4812,-3.4926,-3.5019,-3.5054,-3.5107,-3.5174,-3.519,-3.519,-3.519,-3.519,-3.519,-3.519,-3.519,-3.5193,-3.5179,-3.5164,-3.5147,-3.5092,-3.502,-3.4983,-3.4927,-3.4927,-3.4927,-3.4908,-3.4908,-3.4908,-3.4908,-3.4908,-3.4908,-3.4908,-3.4908,-4.0918,-4.0918,-4.0918,-4.0871,-4.0871,-4.0871,-4.0918,-4.0995,-4.0965,-4.1445,-4.2239,-4.2958,-4.3339,-4.3497,-4.3479,-4.3479,-4.3479,-4.3479,-4.3479,-4.3479,-4.3424,-4.302,-4.2708,-4.2396,-4.2084,-4.1589,-4.1592,-4.1445,-4.0914,-4.017,-3.9369,-3.8656,-3.8506,-3.8405,-3.8322,-3.8274,-3.8322,-3.8465,-3.8523,-3.8554,-3.8597,-3.87,-3.877,-3.864,-3.877,-3.8924,-3.8924,-3.8658,-3.8603,-3.8759,-3.8433,-3.8274,-3.8354,-3.8129,-3.779,-3.7355,-3.6816,-3.6127,-3.5367,-3.4987,-3.4353,-3.3773,-3.3447,-3.3411,-3.3422,-3.3393,-3.3422,-3.3452,-3.3481,-3.3509,-3.352,-3.3549,-3.3587,-3.3671,-3.3753,-3.3921,-3.4005,-3.4154,-3.4255,-3.4464,-3.4632,-3.4773,-3.4889,-3.4926,-3.4944,-3.5053,-3.5089,-3.5124,-3.5141,-3.519,-3.519,-3.519,-3.519,-3.519,-3.519,-3.519,-3.519,-3.5193,-3.5196,-3.5145,-3.511,-3.5038,-3.5001,-3.4945,-3.4927,-3.4908,-3.4927,-3.4945,-3.4964,-3.4927,-3.4908,-3.4908,-3.4908,-3.4908,-3.4908,-4.0871,-4.0871,-4.0871,-4.0871,-4.0871,-4.0871,-4.0871,-4.0871,-4.0918,-4.1373,-4.2198,-4.2559,-4.3014,-4.3375,-4.3479,-4.3479,-4.3479,-4.3479,-4.3461,-4.3277,-4.3002,-4.2598,-4.2213,-4.1772,-4.1405,-4.1079,-4.0991,-4.0683,-4.0225,-3.9794,-3.9185,-3.8624,-3.8354,-3.8289,-3.8274,-3.8368,-3.8465,-3.8478,-3.8658,-3.8789,-3.8658,-3.8857,-3.8952,-3.8886,-3.8915,-3.9008,-3.8952,-3.8748,-3.8718,-3.8628,-3.8401,-3.8318,-3.8204,-3.782,-3.7337,-3.6779,-3.6164,-3.5313,-3.4787,-3.4516,-3.4226,-3.361,-3.3393,-3.3393,-3.3422,-3.3393,-3.3393,-3.3393,-3.3422,-3.3452,-3.3452,-3.3509,-3.3577,-3.3689,-3.3834,-3.3998,-3.4203,-3.4325,-3.4505,-3.4714,-3.4812,-3.4908,-3.5037,-3.5141,-3.5157,-3.5174,-3.5174,-3.519,-3.519,-3.519,-3.519,-3.519,-3.519,-3.519,-3.519,-3.519,-3.519,-3.5193,-3.5196,-3.5145,-3.5129,-3.5092,-3.5057,-3.4964,-3.4927,-3.4927,-3.4964,-3.4982,-3.4982,-3.4927,-3.4908,-3.4908,-3.4908,-3.4908,-3.4908,-4.0543,-4.056,-4.0784,-4.0871,-4.0871,-4.0871,-4.0871,-4.0871,-4.0871,-4.13,-4.199,-4.2115,-4.2498,-4.3014,-4.3214,-4.325,-4.3304,-4.3321,-4.3279,-4.2968,-4.2564,-4.2032,-4.1534,-4.1038,-4.0561,-4.0474,-4.0244,-3.9827,-3.9424,-3.9258,-3.8846,-3.8467,-3.8256,-3.8274,-3.8433,-3.8554,-3.8658,-3.8718,-3.8876,-3.9082,-3.8952,-3.9154,-3.9216,-3.9208,-3.9181,-3.9189,-3.9082,-3.8865,-3.8688,-3.8597,-3.841,-3.8143,-3.7802,-3.7384,-3.6812,-3.6073,-3.5367,-3.457,-3.4317,-3.4172,-3.3991,-3.3484,-3.3393,-3.3452,-3.3481,-3.3452,-3.3422,-3.3538,-3.3481,-3.3393,-3.3441,-3.3509,-3.3689,-3.3807,-3.3972,-3.4173,-3.4416,-3.4591,-3.4773,-3.4945,-3.5019,-3.5054,-3.5089,-3.5174,-3.5174,-3.519,-3.519,-3.519,-3.519,-3.519,-3.519,-3.519,-3.519,-3.519,-3.519,-3.519,-3.519,-3.5193,-3.5196,-3.5181,-3.5166,-3.5147,-3.5075,-3.5001,-3.4945,-3.4983,-3.5001,-3.5035,-3.5,-3.4908,-3.4908,-3.4908,-3.4908,-3.4908,-3.4908,-3.9715,-3.9819,-4.0526,-4.0836,-4.0802,-4.0871,-4.0871,-4.0871,-4.0918,-4.1146,-4.1604,-4.1948,-4.2198,-4.24,-4.2732,-4.292,-4.3032,-4.3105,-4.2902,-4.2475,-4.1944,-4.1211,-4.051,-3.9974,-3.9648,-3.8915,-3.8907,-3.8885,-3.8624,-3.8591,-3.8398,-3.8361,-3.8289,-3.8322,-3.8585,-3.8828,-3.9136,-3.9383,-3.9357,-3.9357,-3.9331,-3.9483,-3.9483,-3.9458,-3.9408,-3.9408,-3.9383,-3.9017,-3.8894,-3.8933,-3.8554,-3.8209,-3.7766,-3.7411,-3.6539,-3.5236,-3.4915,-3.4304,-3.3622,-3.3513,-3.3535,-3.3546,-3.352,-3.3605,-3.3671,-3.3605,-3.3481,-3.3595,-3.3509,-3.3433,-3.3491,-3.3605,-3.3807,-3.4023,-3.4179,-3.4367,-3.463,-3.4832,-3.4982,-3.5072,-3.5124,-3.5174,-3.5174,-3.519,-3.5174,-3.519,-3.519,-3.519,-3.519,-3.519,-3.519,-3.519,-3.519,-3.519,-3.519,-3.519,-3.519,-3.5193,-3.5209,-3.5229,-3.5212,-3.5193,-3.5107,-3.5019,-3.5037,-3.5089,-3.5088,-3.5086,-3.507,-3.5035,-3.4945,-3.4908,-3.4908,-3.4908,-3.4908,-3.8974,-3.9026,-3.9784,-4.0095,-4.0164,-4.0664,-4.0871,-4.0871,-4.0918,-4.1071,-4.1338,-4.1569,-4.1955,-4.2302,-4.2519,-4.2732,-4.2977,-4.2432,-4.2207,-4.213,-4.1272,-4.0467,-3.9768,-3.9237,-3.887,-3.8588,-3.8401,-3.8387,-3.8391,-3.8274,-3.8241,-3.8241,-3.8387,-3.8419,-3.8433,-3.8535,-3.8748,-3.8737,-3.8876,-3.9082,-3.9008,-3.9208,-3.9414,-3.9508,-3.9508,-3.9556,-3.967,-3.9234,-3.9154,-3.9208,-3.8836,-3.8508,-3.82,-3.7871,-3.7034,-3.5966,-3.5542,-3.4758,-3.4186,-3.3939,-3.3879,-3.3807,-3.378,-3.3834,-3.3834,-3.3753,-3.3661,-3.3567,-3.3481,-3.3473,-3.3662,-3.3797,-3.4005,-3.4279,-3.4483,-3.4651,-3.487,-3.5,-3.5141,-3.5141,-3.519,-3.519,-3.519,-3.519,-3.519,-3.519,-3.519,-3.519,-3.519,-3.519,-3.519,-3.519,-3.519,-3.519,-3.519,-3.5223,-3.5223,-3.5223,-3.527,-3.5315,-3.53,-3.5251,-3.5254,-3.5187,-3.5223,-3.5258,-3.5239,-3.5235,-3.5219,-3.519,-3.5089,-3.4964,-3.4945,-3.4927,-3.4908,-3.8081,-3.815,-3.8872,-3.9198,-3.9399,-4.0393,-4.0823,-4.0758,-4.0776,-4.0884,-4.1019,-4.1047,-4.1366,-4.1913,-4.2203,-4.2519,-4.2885,-4.2287,-4.1683,-4.157,-4.0367,-3.9688,-3.9159,-3.8825,-3.8574,-3.8382,-3.8354,-3.8307,-3.8307,-3.8259,-3.8274,-3.8387,-3.8528,-3.8603,-3.8585,-3.867,-3.8876,-3.8961,-3.9242,-3.9261,-3.9253,-3.9338,-3.9464,-3.9556,-3.958,-3.9556,-3.9604,-3.9489,-3.9287,-3.9261,-3.9117,-3.885,-3.8581,-3.8162,-3.7456,-3.6694,-3.5857,-3.5014,-3.4396,-3.4293,-3.4197,-3.4148,-3.4124,-3.4023,-3.3868,-3.3734,-3.3643,-3.3549,-3.3481,-3.3597,-3.3805,-3.3954,-3.4184,-3.4483,-3.4713,-3.487,-3.5,-3.5141,-3.5174,-3.5174,-3.519,-3.519,-3.519,-3.519,-3.519,-3.519,-3.519,-3.519,-3.519,-3.519,-3.519,-3.5207,-3.5207,-3.5207,-3.5239,-3.5285,-3.5285,-3.5285,-3.534,-3.5438,-3.5391,-3.5364,-3.5369,-3.5374,-3.533,-3.53,-3.536,-3.5374,-3.536,-3.5315,-3.5223,-3.5124,-3.5001,-3.4964,-3.4964,-3.7086,-3.7205,-3.7923,-3.8294,-3.855,-3.9825,-4.0443,-4.0429,-4.0431,-4.048,-4.0577,-4.0659,-4.1019,-4.1373,-4.1666,-4.2062,-4.2307,-4.1867,-4.1288,-4.0648,-3.9719,-3.9115,-3.8678,-3.8455,-3.8368,-3.8368,-3.8322,-3.8274,-3.8274,-3.8307,-3.8401,-3.8541,-3.8628,-3.8759,-3.8915,-3.8971,-3.9136,-3.9268,-3.9294,-3.9338,-3.9389,-3.9623,-3.9604,-3.9604,-3.9556,-3.9508,-3.9458,-3.9261,-3.9109,-3.9027,-3.8971,-3.8553,-3.8255,-3.7984,-3.7452,-3.6826,-3.6068,-3.5192,-3.4699,-3.4764,-3.4583,-3.4476,-3.4173,-3.4099,-3.3998,-3.3842,-3.3753,-3.3698,-3.3643,-3.3762,-3.3902,-3.4111,-3.4302,-3.4569,-3.4851,-3.5019,-3.5124,-3.5174,-3.5174,-3.519,-3.519,-3.519,-3.519,-3.519,-3.519,-3.519,-3.519,-3.519,-3.519,-3.519,-3.5207,-3.527,-3.5254,-3.5239,-3.5285,-3.5369,-3.5397,-3.5405,-3.5507,-3.5566,-3.5512,-3.5463,-3.5502,-3.5483,-3.5388,-3.5374,-3.5476,-3.5502,-3.5483,-3.543,-3.536,-3.5251,-3.5155,-3.507,-3.5035,-3.6317,-3.6385,-3.712,-3.7445,-3.7598,-3.8457,-3.9136,-3.9671,-3.974,-4.0053,-4.0845,-4.0863,-4.1119,-4.1924,-4.2032,-4.2034,-4.1715,-4.1198,-4.0473,-3.9799,-3.9161,-3.8634,-3.8413,-3.8322,-3.8289,-3.8274,-3.8259,-3.8241,-3.8289,-3.8354,-3.851,-3.8585,-3.8818,-3.9054,-3.9163,-3.9136,-3.9242,-3.9294,-3.9294,-3.9345,-3.9345,-3.9414,-3.9439,-3.9483,-3.9477,-3.9433,-3.9408,-3.9357,-3.9268,-3.9287,-3.9389,-3.9258,-3.9226,-3.9227,-3.8977,-3.809,-3.6958,-3.5826,-3.5581,-3.5131,-3.4811,-3.4751,-3.4498,-3.4316,-3.4197,-3.4049,-3.3895,-3.3842,-3.3895,-3.4005,-3.4184,-3.4371,-3.4588,-3.4812,-3.5038,-3.5089,-3.5193,-3.519,-3.519,-3.519,-3.519,-3.519,-3.519,-3.519,-3.519,-3.519,-3.519,-3.5207,-3.5223,-3.5223,-3.5254,-3.5296,-3.5355,-3.5355,-3.5451,-3.5538,-3.5531,-3.5554,-3.563,-3.567,-3.5609,-3.5607,-3.5626,-3.5593,-3.5521,-3.5553,-3.5639,-3.562,-3.5596,-3.5553,-3.5502,-3.5402,-3.5311,-3.5219,-3.5122,-3.5827,-3.5895,-3.6321,-3.648,-3.6582,-3.6944,-3.758,-3.8362,-3.8862,-3.9485,-4.0044,-4.0482,-4.1075,-4.167,-4.1984,-4.2024,-4.1668,-4.0926,-4.0219,-3.9492,-3.8622,-3.8386,-3.8292,-3.8259,-3.8241,-3.8225,-3.8225,-3.8256,-3.8382,-3.8628,-3.8807,-3.899,-3.9136,-3.9364,-3.9532,-3.9489,-3.9396,-3.9371,-3.932,-3.9287,-3.9294,-3.932,-3.9414,-3.9408,-3.9452,-3.9477,-3.9477,-3.9458,-3.9433,-3.9483,-3.9599,-3.9628,-3.9656,-3.9747,-3.9472,-3.8563,-3.7503,-3.6554,-3.6043,-3.5324,-3.504,-3.487,-3.473,-3.452,-3.4363,-3.424,-3.4099,-3.4023,-3.413,-3.4274,-3.448,-3.4672,-3.4889,-3.5111,-3.5145,-3.5176,-3.5193,-3.519,-3.519,-3.519,-3.519,-3.519,-3.519,-3.519,-3.519,-3.5207,-3.527,-3.5311,-3.5311,-3.5311,-3.5326,-3.5369,-3.5432,-3.5495,-3.5577,-3.564,-3.5631,-3.565,-3.5735,-3.5743,-3.5698,-3.5699,-3.5699,-3.5698,-3.5697,-3.5706,-3.5684,-3.5704,-3.5681,-3.5651,-3.5577,-3.547,-3.5388,-3.5296,-3.5203,-3.5622,-3.5622,-3.5639,-3.569,-3.5639,-3.5723,-3.6118,-3.678,-3.7814,-3.8471,-3.8831,-3.9805,-4.0557,-4.1103,-4.1572,-4.1584,-4.1125,-4.0492,-3.9804,-3.9297,-3.8588,-3.8225,-3.8225,-3.8192,-3.8225,-3.8225,-3.8274,-3.8415,-3.8658,-3.8905,-3.9208,-3.9483,-3.9526,-3.9642,-3.9781,-3.9781,-3.9717,-3.9693,-3.9604,-3.958,-3.9758,-3.9826,-3.9826,-3.967,-3.9623,-3.9575,-3.9433,-3.9383,-3.935,-3.9408,-3.9483,-3.9532,-3.9693,-3.9785,-3.9375,-3.8753,-3.7825,-3.7106,-3.6329,-3.5514,-3.504,-3.485,-3.4711,-3.4649,-3.4564,-3.4427,-3.4293,-3.4274,-3.4367,-3.448,-3.4651,-3.4752,-3.4946,-3.5075,-3.5164,-3.5176,-3.5174,-3.519,-3.519,-3.519,-3.519,-3.519,-3.519,-3.519,-3.5239,-3.5254,-3.5296,-3.5369,-3.5432,-3.5432,-3.5438,-3.5451,-3.5523,-3.56,-3.566,-3.5724,-3.5721,-3.5745,-3.5826,-3.5838,-3.5779,-3.5763,-3.5754,-3.5737,-3.5698,-3.5697,-3.5706,-3.5715,-3.5704,-3.5665,-3.5601,-3.5528,-3.543,-3.5326,-3.5235,-3.5639,-3.5639,-3.5639,-3.5639,-3.5639,-3.5639,-3.5707,-3.5921,-3.6525,-3.7646,-3.8943,-3.9623,-4.0167,-4.0598,-4.0869,-4.0745,-4.0112,-3.9985,-3.9224,-3.8771,-3.8246,-3.8192,-3.8192,-3.8192,-3.8192,-3.8274,-3.8401,-3.8628,-3.8915,-3.9208,-3.9408,-3.9508,-3.9647,-3.9845,-3.9889,-3.9889,-3.9889,-3.9889,-3.9826,-3.9758,-3.9826,-3.9781,-3.9712,-3.9575,-3.9477,-3.9376,-3.9245,-3.9192,-3.9165,-3.9192,-3.9298,-3.9477,-3.9693,-3.9735,-3.9709,-3.9356,-3.8083,-3.7291,-3.6612,-3.5704,-3.5022,-3.4908,-3.485,-3.485,-3.4771,-3.4604,-3.4539,-3.4542,-3.4607,-3.4711,-3.4792,-3.487,-3.4946,-3.5057,-3.5147,-3.5179,-3.5174,-3.519,-3.519,-3.519,-3.519,-3.519,-3.519,-3.5223,-3.527,-3.5311,-3.5369,-3.5432,-3.5535,-3.5579,-3.5631,-3.5621,-3.5631,-3.5685,-3.5764,-3.5787,-3.5794,-3.5807,-3.5859,-3.5866,-3.5872,-3.5815,-3.5782,-3.5727,-3.5699,-3.5718,-3.5716,-3.5715,-3.5695,-3.5687,-3.5601,-3.5496,-3.5383,-3.5262,-3.5168,-3.5639,-3.5639,-3.5639,-3.5639,-3.5639,-3.5639,-3.5639,-3.569,-3.6084,-3.6887,-3.7985,-3.8852,-3.9581,-4.0075,-4.0329,-4.0057,-3.9441,-3.9423,-3.8952,-3.8427,-3.8192,-3.8192,-3.8192,-3.8192,-3.8192,-3.8274,-3.8628,-3.8915,-3.9189,-3.9508,-3.9689,-3.967,-3.9826,-3.9889,-3.9889,-3.9889,-3.9889,-3.9889,-3.9867,-3.9823,-3.9804,-3.9735,-3.9599,-3.9452,-3.9324,-3.9219,-3.9137,-3.9101,-3.9082,-3.9165,-3.9298,-3.9427,-3.9599,-3.967,-3.9509,-3.8968,-3.8021,-3.7095,-3.6592,-3.5836,-3.4946,-3.4908,-3.4908,-3.4889,-3.487,-3.4732,-3.4732,-3.4752,-3.4752,-3.487,-3.487,-3.4908,-3.4983,-3.5075,-3.5129,-3.5145,-3.5176,-3.519,-3.519,-3.519,-3.519,-3.519,-3.519,-3.519,-3.5251,-3.5364,-3.5418,-3.5523,-3.5631,-3.5715,-3.5764,-3.5779,-3.576,-3.5767,-3.5833,-3.5846,-3.5852,-3.5883,-3.5883,-3.5879,-3.5872,-3.5823,-3.5782,-3.5765,-3.5737,-3.5698,-3.5697,-3.5716,-3.5707,-3.5708,-3.5574,-3.5438,-3.5321,-3.5197,-3.5086,-3.5639,-3.5639,-3.5639,-3.5639,-3.5639,-3.5639,-3.5639,-3.5673,-3.6034,-3.6249,-3.6606,-3.7807,-3.8616,-3.9263,-3.9822,-3.9586,-3.9351,-3.9061,-3.8608,-3.8373,-3.821,-3.8192,-3.8192,-3.8192,-3.8259,-3.8401,-3.867,-3.9054,-3.9414,-3.9647,-3.9758,-3.9848,-3.9889,-3.9889,-3.9889,-3.9889,-3.9889,-3.9804,-3.9758,-3.9712,-3.967,-3.9647,-3.9483,-3.9376,-3.929,-3.9237,-3.9129,-3.9101,-3.9101,-3.9165,-3.9298,-3.9401,-3.9502,-3.9537,-3.9161,-3.8637,-3.7829,-3.6984,-3.629,-3.5476,-3.5059,-3.4908,-3.4908,-3.4908,-3.4889,-3.4889,-3.487,-3.4908,-3.4908,-3.4908,-3.4908,-3.4927,-3.5001,-3.5075,-3.511,-3.5145,-3.516,-3.519,-3.519,-3.519,-3.519,-3.519,-3.519,-3.519,-3.5296,-3.5405,-3.5512,-3.5631,-3.5732,-3.5772,-3.5833,-3.584,-3.584,-3.5858,-3.5889,-3.5889,-3.5889,-3.5889,-3.5883,-3.5885,-3.5885,-3.5857,-3.5815,-3.5791,-3.5765,-3.5728,-3.5718,-3.5728,-3.5728,-3.5718,-3.5543,-3.5405,-3.5336,-3.52,-3.5018,-3.5639,-3.5639,-3.5639,-3.5639,-3.5639,-3.5639,-3.5639,-3.5622,-3.5735,-3.5922,-3.6385,-3.6545,-3.7143,-3.79,-3.8397,-3.8536,-3.8699,-3.8554,-3.8464,-3.821,-3.8192,-3.8192,-3.8192,-3.8225,-3.8322,-3.8491,-3.8688,-3.899,-3.9408,-3.9556,-3.9693,-3.987,-3.9889,-3.9848,-3.9781,-3.9781,-3.9804,-3.9712,-3.9647,-3.9599,-3.9427,-3.9401,-3.9376,-3.9272,-3.921,-3.9156,-3.9101,-3.9101,-3.9101,-3.9156,-3.9264,-3.9324,-3.932,-3.9308,-3.8936,-3.8271,-3.7442,-3.6736,-3.5967,-3.5306,-3.4965,-3.4908,-3.4908,-3.4908,-3.4908,-3.4908,-3.4908,-3.4908,-3.4908,-3.4908,-3.4908,-3.4927,-3.4964,-3.5092,-3.5145,-3.516,-3.5174,-3.519,-3.519,-3.519,-3.519,-3.519,-3.5209,-3.527,-3.5391,-3.55,-3.5591,-3.5704,-3.5794,-3.5846,-3.5889,-3.5889,-3.5889,-3.5889,-3.5889,-3.5889,-3.5889,-3.5889,-3.5883,-3.5897,-3.5885,-3.5892,-3.5864,-3.5842,-3.5791,-3.5765,-3.5756,-3.5756,-3.5765,-3.5736,-3.5531,-3.5391,-3.5321,-3.5216,-3.5035]}]]